<?xml version="1.0" encoding="UTF-8" standalone="no" ?>
<gpx xmlns="http://www.topografix.com/GPX/1/1" xmlns:xsi="http://www.w3.org/2001/XMLSchema-instance" xsi:schemaLocation="http://www.topografix.com/GPX/1/1 http://www.topografix.com/GPX/1/1/gpx.xsd" version="1.1" creator="VisuGPX - https://www.visugpx.com">
  <metadata>
    <name>Néouvielle - face Est Ramoun</name>
    <desc><![CDATA[
[url]https://picasaweb.google.com/105108571230570121986/20150530NeouvielleFaceEstRamoun[url]
]]></desc>
  </metadata>
  <trk>
    <name><![CDATA[Néouvielle - face Est Ramoun]]></name>
    <trkseg>
      <trkpt lat="42.84043" lon="0.14456">
        <ele>2140</ele>
        <time>2015-05-30T04:13:09Z</time>
      </trkpt>
      <trkpt lat="42.84036" lon="0.14455">
        <ele>2140</ele>
        <time>2015-05-30T04:13:32Z</time>
      </trkpt>
      <trkpt lat="42.84036" lon="0.14456">
        <ele>2140</ele>
        <time>2015-05-30T04:13:55Z</time>
      </trkpt>
      <trkpt lat="42.84031" lon="0.14448">
        <ele>2140</ele>
        <time>2015-05-30T04:14:18Z</time>
      </trkpt>
      <trkpt lat="42.84031" lon="0.14447">
        <ele>2143</ele>
        <time>2015-05-30T04:14:21Z</time>
      </trkpt>
      <trkpt lat="42.84032" lon="0.14446">
        <ele>2147</ele>
        <time>2015-05-30T04:14:24Z</time>
      </trkpt>
      <trkpt lat="42.84032" lon="0.14446">
        <ele>2151</ele>
        <time>2015-05-30T04:14:28Z</time>
      </trkpt>
      <trkpt lat="42.84032" lon="0.14445">
        <ele>2155</ele>
        <time>2015-05-30T04:14:32Z</time>
      </trkpt>
      <trkpt lat="42.84029" lon="0.14446">
        <ele>2158</ele>
        <time>2015-05-30T04:14:36Z</time>
      </trkpt>
      <trkpt lat="42.84028" lon="0.14446">
        <ele>2162</ele>
        <time>2015-05-30T04:14:42Z</time>
      </trkpt>
      <trkpt lat="42.84028" lon="0.14446">
        <ele>2162</ele>
        <time>2015-05-30T04:14:43Z</time>
      </trkpt>
      <trkpt lat="42.84027" lon="0.1445">
        <ele>2165</ele>
        <time>2015-05-30T04:14:56Z</time>
      </trkpt>
      <trkpt lat="42.84024" lon="0.14449">
        <ele>2168</ele>
        <time>2015-05-30T04:15:14Z</time>
      </trkpt>
      <trkpt lat="42.84019" lon="0.14442">
        <ele>2168</ele>
        <time>2015-05-30T04:15:35Z</time>
      </trkpt>
      <trkpt lat="42.84017" lon="0.14444">
        <ele>2167</ele>
        <time>2015-05-30T04:15:45Z</time>
      </trkpt>
      <trkpt lat="42.84017" lon="0.14443">
        <ele>2167</ele>
        <time>2015-05-30T04:16:00Z</time>
      </trkpt>
      <trkpt lat="42.84017" lon="0.14443">
        <ele>2167</ele>
        <time>2015-05-30T04:16:17Z</time>
      </trkpt>
      <trkpt lat="42.8402" lon="0.14453">
        <ele>2167</ele>
        <time>2015-05-30T04:16:54Z</time>
      </trkpt>
      <trkpt lat="42.84021" lon="0.14448">
        <ele>2167</ele>
        <time>2015-05-30T04:17:15Z</time>
      </trkpt>
      <trkpt lat="42.84018" lon="0.14451">
        <ele>2168</ele>
        <time>2015-05-30T04:17:40Z</time>
      </trkpt>
      <trkpt lat="42.84022" lon="0.14451">
        <ele>2168</ele>
        <time>2015-05-30T04:17:57Z</time>
      </trkpt>
      <trkpt lat="42.84021" lon="0.14448">
        <ele>2168</ele>
        <time>2015-05-30T04:18:14Z</time>
      </trkpt>
      <trkpt lat="42.8402" lon="0.14447">
        <ele>2168</ele>
        <time>2015-05-30T04:18:27Z</time>
      </trkpt>
      <trkpt lat="42.84022" lon="0.14438">
        <ele>2167</ele>
        <time>2015-05-30T04:18:34Z</time>
      </trkpt>
      <trkpt lat="42.84028" lon="0.14432">
        <ele>2167</ele>
        <time>2015-05-30T04:18:39Z</time>
      </trkpt>
      <trkpt lat="42.84033" lon="0.14429">
        <ele>2167</ele>
        <time>2015-05-30T04:18:43Z</time>
      </trkpt>
      <trkpt lat="42.84045" lon="0.14407">
        <ele>2165</ele>
        <time>2015-05-30T04:18:59Z</time>
      </trkpt>
      <trkpt lat="42.84048" lon="0.14398">
        <ele>2165</ele>
        <time>2015-05-30T04:19:05Z</time>
      </trkpt>
      <trkpt lat="42.84051" lon="0.14394">
        <ele>2165</ele>
        <time>2015-05-30T04:19:08Z</time>
      </trkpt>
      <trkpt lat="42.84052" lon="0.14392">
        <ele>2165</ele>
        <time>2015-05-30T04:19:10Z</time>
      </trkpt>
      <trkpt lat="42.84051" lon="0.14375">
        <ele>2166</ele>
        <time>2015-05-30T04:19:20Z</time>
      </trkpt>
      <trkpt lat="42.84043" lon="0.14353">
        <ele>2166</ele>
        <time>2015-05-30T04:19:35Z</time>
      </trkpt>
      <trkpt lat="42.84038" lon="0.14346">
        <ele>2166</ele>
        <time>2015-05-30T04:19:42Z</time>
      </trkpt>
      <trkpt lat="42.84036" lon="0.14339">
        <ele>2165</ele>
        <time>2015-05-30T04:19:52Z</time>
      </trkpt>
      <trkpt lat="42.84033" lon="0.14326">
        <ele>2162</ele>
        <time>2015-05-30T04:20:05Z</time>
      </trkpt>
      <trkpt lat="42.84031" lon="0.14322">
        <ele>2161</ele>
        <time>2015-05-30T04:20:09Z</time>
      </trkpt>
      <trkpt lat="42.84032" lon="0.14319">
        <ele>2162</ele>
        <time>2015-05-30T04:20:11Z</time>
      </trkpt>
      <trkpt lat="42.84019" lon="0.14313">
        <ele>2160</ele>
        <time>2015-05-30T04:20:24Z</time>
      </trkpt>
      <trkpt lat="42.84007" lon="0.14312">
        <ele>2161</ele>
        <time>2015-05-30T04:20:36Z</time>
      </trkpt>
      <trkpt lat="42.84002" lon="0.14314">
        <ele>2161</ele>
        <time>2015-05-30T04:20:42Z</time>
      </trkpt>
      <trkpt lat="42.83983" lon="0.14321">
        <ele>2160</ele>
        <time>2015-05-30T04:20:58Z</time>
      </trkpt>
      <trkpt lat="42.83972" lon="0.14322">
        <ele>2159</ele>
        <time>2015-05-30T04:21:06Z</time>
      </trkpt>
      <trkpt lat="42.83965" lon="0.14321">
        <ele>2157</ele>
        <time>2015-05-30T04:21:16Z</time>
      </trkpt>
      <trkpt lat="42.83959" lon="0.14328">
        <ele>2158</ele>
        <time>2015-05-30T04:21:22Z</time>
      </trkpt>
      <trkpt lat="42.83955" lon="0.14329">
        <ele>2158</ele>
        <time>2015-05-30T04:21:25Z</time>
      </trkpt>
      <trkpt lat="42.83945" lon="0.1434">
        <ele>2158</ele>
        <time>2015-05-30T04:21:35Z</time>
      </trkpt>
      <trkpt lat="42.83931" lon="0.14356">
        <ele>2157</ele>
        <time>2015-05-30T04:21:51Z</time>
      </trkpt>
      <trkpt lat="42.83925" lon="0.14363">
        <ele>2157</ele>
        <time>2015-05-30T04:21:59Z</time>
      </trkpt>
      <trkpt lat="42.83913" lon="0.14349">
        <ele>2157</ele>
        <time>2015-05-30T04:22:12Z</time>
      </trkpt>
      <trkpt lat="42.83899" lon="0.14327">
        <ele>2156</ele>
        <time>2015-05-30T04:22:28Z</time>
      </trkpt>
      <trkpt lat="42.83887" lon="0.1431">
        <ele>2156</ele>
        <time>2015-05-30T04:22:41Z</time>
      </trkpt>
      <trkpt lat="42.83874" lon="0.14286">
        <ele>2156</ele>
        <time>2015-05-30T04:22:57Z</time>
      </trkpt>
      <trkpt lat="42.83873" lon="0.14283">
        <ele>2156</ele>
        <time>2015-05-30T04:22:59Z</time>
      </trkpt>
      <trkpt lat="42.83871" lon="0.14255">
        <ele>2156</ele>
        <time>2015-05-30T04:23:15Z</time>
      </trkpt>
      <trkpt lat="42.83871" lon="0.1423">
        <ele>2156</ele>
        <time>2015-05-30T04:23:30Z</time>
      </trkpt>
      <trkpt lat="42.83871" lon="0.1422">
        <ele>2156</ele>
        <time>2015-05-30T04:23:36Z</time>
      </trkpt>
      <trkpt lat="42.83873" lon="0.14183">
        <ele>2156</ele>
        <time>2015-05-30T04:23:56Z</time>
      </trkpt>
      <trkpt lat="42.83873" lon="0.14156">
        <ele>2156</ele>
        <time>2015-05-30T04:24:11Z</time>
      </trkpt>
      <trkpt lat="42.83865" lon="0.14133">
        <ele>2156</ele>
        <time>2015-05-30T04:24:26Z</time>
      </trkpt>
      <trkpt lat="42.83853" lon="0.14112">
        <ele>2155</ele>
        <time>2015-05-30T04:24:41Z</time>
      </trkpt>
      <trkpt lat="42.83851" lon="0.14111">
        <ele>2155</ele>
        <time>2015-05-30T04:24:43Z</time>
      </trkpt>
      <trkpt lat="42.83846" lon="0.14108">
        <ele>2155</ele>
        <time>2015-05-30T04:24:47Z</time>
      </trkpt>
      <trkpt lat="42.83828" lon="0.14091">
        <ele>2156</ele>
        <time>2015-05-30T04:25:04Z</time>
      </trkpt>
      <trkpt lat="42.83816" lon="0.14069">
        <ele>2156</ele>
        <time>2015-05-30T04:25:20Z</time>
      </trkpt>
      <trkpt lat="42.83806" lon="0.14044">
        <ele>2155</ele>
        <time>2015-05-30T04:25:35Z</time>
      </trkpt>
      <trkpt lat="42.83795" lon="0.14012">
        <ele>2155</ele>
        <time>2015-05-30T04:25:54Z</time>
      </trkpt>
      <trkpt lat="42.83787" lon="0.13999">
        <ele>2155</ele>
        <time>2015-05-30T04:26:08Z</time>
      </trkpt>
      <trkpt lat="42.83785" lon="0.14001">
        <ele>2155</ele>
        <time>2015-05-30T04:26:10Z</time>
      </trkpt>
      <trkpt lat="42.8378" lon="0.14008">
        <ele>2156</ele>
        <time>2015-05-30T04:26:17Z</time>
      </trkpt>
      <trkpt lat="42.83774" lon="0.14001">
        <ele>2159</ele>
        <time>2015-05-30T04:26:29Z</time>
      </trkpt>
      <trkpt lat="42.83771" lon="0.13997">
        <ele>2160</ele>
        <time>2015-05-30T04:26:35Z</time>
      </trkpt>
      <trkpt lat="42.83768" lon="0.13988">
        <ele>2162</ele>
        <time>2015-05-30T04:26:48Z</time>
      </trkpt>
      <trkpt lat="42.83769" lon="0.13979">
        <ele>2164</ele>
        <time>2015-05-30T04:27:00Z</time>
      </trkpt>
      <trkpt lat="42.83769" lon="0.13974">
        <ele>2165</ele>
        <time>2015-05-30T04:27:04Z</time>
      </trkpt>
      <trkpt lat="42.83769" lon="0.13961">
        <ele>2165</ele>
        <time>2015-05-30T04:27:12Z</time>
      </trkpt>
      <trkpt lat="42.83773" lon="0.1395">
        <ele>2166</ele>
        <time>2015-05-30T04:27:25Z</time>
      </trkpt>
      <trkpt lat="42.83775" lon="0.13948">
        <ele>2167</ele>
        <time>2015-05-30T04:27:29Z</time>
      </trkpt>
      <trkpt lat="42.83775" lon="0.13945">
        <ele>2167</ele>
        <time>2015-05-30T04:27:31Z</time>
      </trkpt>
      <trkpt lat="42.83779" lon="0.13937">
        <ele>2167</ele>
        <time>2015-05-30T04:27:37Z</time>
      </trkpt>
      <trkpt lat="42.83782" lon="0.13932">
        <ele>2166</ele>
        <time>2015-05-30T04:27:51Z</time>
      </trkpt>
      <trkpt lat="42.83785" lon="0.13931">
        <ele>2166</ele>
        <time>2015-05-30T04:28:23Z</time>
      </trkpt>
      <trkpt lat="42.83784" lon="0.13931">
        <ele>2166</ele>
        <time>2015-05-30T04:28:54Z</time>
      </trkpt>
      <trkpt lat="42.83783" lon="0.13931">
        <ele>2166</ele>
        <time>2015-05-30T04:29:28Z</time>
      </trkpt>
      <trkpt lat="42.83784" lon="0.13929">
        <ele>2166</ele>
        <time>2015-05-30T04:30:06Z</time>
      </trkpt>
      <trkpt lat="42.83782" lon="0.13931">
        <ele>2166</ele>
        <time>2015-05-30T04:30:46Z</time>
      </trkpt>
      <trkpt lat="42.83782" lon="0.13936">
        <ele>2166</ele>
        <time>2015-05-30T04:31:08Z</time>
      </trkpt>
      <trkpt lat="42.83781" lon="0.13935">
        <ele>2166</ele>
        <time>2015-05-30T04:31:35Z</time>
      </trkpt>
      <trkpt lat="42.83779" lon="0.13933">
        <ele>2168</ele>
        <time>2015-05-30T04:32:06Z</time>
      </trkpt>
      <trkpt lat="42.83778" lon="0.13926">
        <ele>2168</ele>
        <time>2015-05-30T04:32:39Z</time>
      </trkpt>
      <trkpt lat="42.83781" lon="0.13923">
        <ele>2168</ele>
        <time>2015-05-30T04:33:13Z</time>
      </trkpt>
      <trkpt lat="42.83783" lon="0.13932">
        <ele>2167</ele>
        <time>2015-05-30T04:33:38Z</time>
      </trkpt>
      <trkpt lat="42.8378" lon="0.13933">
        <ele>2168</ele>
        <time>2015-05-30T04:33:50Z</time>
      </trkpt>
      <trkpt lat="42.83774" lon="0.13937">
        <ele>2168</ele>
        <time>2015-05-30T04:34:01Z</time>
      </trkpt>
      <trkpt lat="42.8376" lon="0.13943">
        <ele>2168</ele>
        <time>2015-05-30T04:34:15Z</time>
      </trkpt>
      <trkpt lat="42.83748" lon="0.13945">
        <ele>2169</ele>
        <time>2015-05-30T04:34:30Z</time>
      </trkpt>
      <trkpt lat="42.83741" lon="0.13941">
        <ele>2172</ele>
        <time>2015-05-30T04:34:47Z</time>
      </trkpt>
      <trkpt lat="42.83737" lon="0.1395">
        <ele>2173</ele>
        <time>2015-05-30T04:34:59Z</time>
      </trkpt>
      <trkpt lat="42.83731" lon="0.13957">
        <ele>2174</ele>
        <time>2015-05-30T04:35:12Z</time>
      </trkpt>
      <trkpt lat="42.83724" lon="0.1396">
        <ele>2175</ele>
        <time>2015-05-30T04:35:25Z</time>
      </trkpt>
      <trkpt lat="42.83717" lon="0.13963">
        <ele>2177</ele>
        <time>2015-05-30T04:35:37Z</time>
      </trkpt>
      <trkpt lat="42.8371" lon="0.13958">
        <ele>2179</ele>
        <time>2015-05-30T04:35:54Z</time>
      </trkpt>
      <trkpt lat="42.83706" lon="0.13954">
        <ele>2182</ele>
        <time>2015-05-30T04:36:07Z</time>
      </trkpt>
      <trkpt lat="42.83701" lon="0.1395">
        <ele>2185</ele>
        <time>2015-05-30T04:36:21Z</time>
      </trkpt>
      <trkpt lat="42.83698" lon="0.13943">
        <ele>2185</ele>
        <time>2015-05-30T04:36:33Z</time>
      </trkpt>
      <trkpt lat="42.83692" lon="0.13944">
        <ele>2187</ele>
        <time>2015-05-30T04:36:46Z</time>
      </trkpt>
      <trkpt lat="42.83686" lon="0.13943">
        <ele>2189</ele>
        <time>2015-05-30T04:36:56Z</time>
      </trkpt>
      <trkpt lat="42.83682" lon="0.13938">
        <ele>2190</ele>
        <time>2015-05-30T04:37:10Z</time>
      </trkpt>
      <trkpt lat="42.83674" lon="0.13935">
        <ele>2192</ele>
        <time>2015-05-30T04:37:24Z</time>
      </trkpt>
      <trkpt lat="42.83664" lon="0.1393">
        <ele>2195</ele>
        <time>2015-05-30T04:37:40Z</time>
      </trkpt>
      <trkpt lat="42.83661" lon="0.13917">
        <ele>2198</ele>
        <time>2015-05-30T04:37:56Z</time>
      </trkpt>
      <trkpt lat="42.83661" lon="0.13907">
        <ele>2200</ele>
        <time>2015-05-30T04:38:11Z</time>
      </trkpt>
      <trkpt lat="42.83658" lon="0.13902">
        <ele>2202</ele>
        <time>2015-05-30T04:38:24Z</time>
      </trkpt>
      <trkpt lat="42.83656" lon="0.13897">
        <ele>2202</ele>
        <time>2015-05-30T04:38:39Z</time>
      </trkpt>
      <trkpt lat="42.83655" lon="0.13897">
        <ele>2203</ele>
        <time>2015-05-30T04:38:52Z</time>
      </trkpt>
      <trkpt lat="42.83647" lon="0.13886">
        <ele>2204</ele>
        <time>2015-05-30T04:39:08Z</time>
      </trkpt>
      <trkpt lat="42.83643" lon="0.13874">
        <ele>2206</ele>
        <time>2015-05-30T04:39:20Z</time>
      </trkpt>
      <trkpt lat="42.83637" lon="0.13865">
        <ele>2207</ele>
        <time>2015-05-30T04:39:34Z</time>
      </trkpt>
      <trkpt lat="42.83633" lon="0.1386">
        <ele>2209</ele>
        <time>2015-05-30T04:39:43Z</time>
      </trkpt>
      <trkpt lat="42.83626" lon="0.13852">
        <ele>2212</ele>
        <time>2015-05-30T04:39:58Z</time>
      </trkpt>
      <trkpt lat="42.83617" lon="0.13853">
        <ele>2213</ele>
        <time>2015-05-30T04:40:11Z</time>
      </trkpt>
      <trkpt lat="42.83616" lon="0.13853">
        <ele>2213</ele>
        <time>2015-05-30T04:40:12Z</time>
      </trkpt>
      <trkpt lat="42.83603" lon="0.13849">
        <ele>2214</ele>
        <time>2015-05-30T04:40:28Z</time>
      </trkpt>
      <trkpt lat="42.83595" lon="0.13837">
        <ele>2215</ele>
        <time>2015-05-30T04:40:43Z</time>
      </trkpt>
      <trkpt lat="42.83586" lon="0.13834">
        <ele>2217</ele>
        <time>2015-05-30T04:41:01Z</time>
      </trkpt>
      <trkpt lat="42.83575" lon="0.13834">
        <ele>2220</ele>
        <time>2015-05-30T04:41:15Z</time>
      </trkpt>
      <trkpt lat="42.83568" lon="0.13825">
        <ele>2222</ele>
        <time>2015-05-30T04:41:31Z</time>
      </trkpt>
      <trkpt lat="42.83561" lon="0.13818">
        <ele>2223</ele>
        <time>2015-05-30T04:41:46Z</time>
      </trkpt>
      <trkpt lat="42.83555" lon="0.13811">
        <ele>2225</ele>
        <time>2015-05-30T04:42:02Z</time>
      </trkpt>
      <trkpt lat="42.83552" lon="0.13806">
        <ele>2227</ele>
        <time>2015-05-30T04:42:19Z</time>
      </trkpt>
      <trkpt lat="42.8355" lon="0.13801">
        <ele>2228</ele>
        <time>2015-05-30T04:42:32Z</time>
      </trkpt>
      <trkpt lat="42.8355" lon="0.13798">
        <ele>2230</ele>
        <time>2015-05-30T04:42:47Z</time>
      </trkpt>
      <trkpt lat="42.83547" lon="0.13797">
        <ele>2231</ele>
        <time>2015-05-30T04:43:02Z</time>
      </trkpt>
      <trkpt lat="42.83542" lon="0.13793">
        <ele>2235</ele>
        <time>2015-05-30T04:43:20Z</time>
      </trkpt>
      <trkpt lat="42.83543" lon="0.13787">
        <ele>2237</ele>
        <time>2015-05-30T04:43:35Z</time>
      </trkpt>
      <trkpt lat="42.83543" lon="0.1378">
        <ele>2237</ele>
        <time>2015-05-30T04:43:57Z</time>
      </trkpt>
      <trkpt lat="42.83545" lon="0.13773">
        <ele>2237</ele>
        <time>2015-05-30T04:44:12Z</time>
      </trkpt>
      <trkpt lat="42.83547" lon="0.13768">
        <ele>2239</ele>
        <time>2015-05-30T04:44:29Z</time>
      </trkpt>
      <trkpt lat="42.83547" lon="0.13767">
        <ele>2240</ele>
        <time>2015-05-30T04:44:31Z</time>
      </trkpt>
      <trkpt lat="42.83544" lon="0.13758">
        <ele>2242</ele>
        <time>2015-05-30T04:44:46Z</time>
      </trkpt>
      <trkpt lat="42.83542" lon="0.13755">
        <ele>2243</ele>
        <time>2015-05-30T04:45:01Z</time>
      </trkpt>
      <trkpt lat="42.83541" lon="0.13747">
        <ele>2245</ele>
        <time>2015-05-30T04:45:17Z</time>
      </trkpt>
      <trkpt lat="42.83542" lon="0.13743">
        <ele>2247</ele>
        <time>2015-05-30T04:45:33Z</time>
      </trkpt>
      <trkpt lat="42.8354" lon="0.13738">
        <ele>2249</ele>
        <time>2015-05-30T04:45:47Z</time>
      </trkpt>
      <trkpt lat="42.83538" lon="0.13735">
        <ele>2251</ele>
        <time>2015-05-30T04:46:05Z</time>
      </trkpt>
      <trkpt lat="42.83537" lon="0.13728">
        <ele>2252</ele>
        <time>2015-05-30T04:46:23Z</time>
      </trkpt>
      <trkpt lat="42.83541" lon="0.13723">
        <ele>2254</ele>
        <time>2015-05-30T04:46:40Z</time>
      </trkpt>
      <trkpt lat="42.83542" lon="0.13718">
        <ele>2255</ele>
        <time>2015-05-30T04:46:56Z</time>
      </trkpt>
      <trkpt lat="42.8354" lon="0.13715">
        <ele>2258</ele>
        <time>2015-05-30T04:47:12Z</time>
      </trkpt>
      <trkpt lat="42.83541" lon="0.13712">
        <ele>2259</ele>
        <time>2015-05-30T04:47:26Z</time>
      </trkpt>
      <trkpt lat="42.83543" lon="0.13712">
        <ele>2260</ele>
        <time>2015-05-30T04:47:40Z</time>
      </trkpt>
      <trkpt lat="42.83544" lon="0.13705">
        <ele>2260</ele>
        <time>2015-05-30T04:48:00Z</time>
      </trkpt>
      <trkpt lat="42.83546" lon="0.13698">
        <ele>2262</ele>
        <time>2015-05-30T04:48:15Z</time>
      </trkpt>
      <trkpt lat="42.83546" lon="0.13696">
        <ele>2264</ele>
        <time>2015-05-30T04:48:27Z</time>
      </trkpt>
      <trkpt lat="42.83548" lon="0.13691">
        <ele>2265</ele>
        <time>2015-05-30T04:48:41Z</time>
      </trkpt>
      <trkpt lat="42.83546" lon="0.13681">
        <ele>2266</ele>
        <time>2015-05-30T04:48:57Z</time>
      </trkpt>
      <trkpt lat="42.83547" lon="0.13668">
        <ele>2267</ele>
        <time>2015-05-30T04:49:09Z</time>
      </trkpt>
      <trkpt lat="42.83551" lon="0.13654">
        <ele>2269</ele>
        <time>2015-05-30T04:49:25Z</time>
      </trkpt>
      <trkpt lat="42.83556" lon="0.13641">
        <ele>2271</ele>
        <time>2015-05-30T04:49:41Z</time>
      </trkpt>
      <trkpt lat="42.83558" lon="0.13635">
        <ele>2273</ele>
        <time>2015-05-30T04:49:55Z</time>
      </trkpt>
      <trkpt lat="42.8356" lon="0.13634">
        <ele>2273</ele>
        <time>2015-05-30T04:50:16Z</time>
      </trkpt>
      <trkpt lat="42.83561" lon="0.13629">
        <ele>2275</ele>
        <time>2015-05-30T04:50:31Z</time>
      </trkpt>
      <trkpt lat="42.83568" lon="0.13619">
        <ele>2277</ele>
        <time>2015-05-30T04:50:46Z</time>
      </trkpt>
      <trkpt lat="42.83576" lon="0.13609">
        <ele>2280</ele>
        <time>2015-05-30T04:51:03Z</time>
      </trkpt>
      <trkpt lat="42.83579" lon="0.136">
        <ele>2282</ele>
        <time>2015-05-30T04:51:18Z</time>
      </trkpt>
      <trkpt lat="42.83582" lon="0.13593">
        <ele>2284</ele>
        <time>2015-05-30T04:51:33Z</time>
      </trkpt>
      <trkpt lat="42.83588" lon="0.13586">
        <ele>2287</ele>
        <time>2015-05-30T04:51:49Z</time>
      </trkpt>
      <trkpt lat="42.83592" lon="0.13579">
        <ele>2290</ele>
        <time>2015-05-30T04:52:09Z</time>
      </trkpt>
      <trkpt lat="42.83595" lon="0.13574">
        <ele>2293</ele>
        <time>2015-05-30T04:52:26Z</time>
      </trkpt>
      <trkpt lat="42.83592" lon="0.13564">
        <ele>2297</ele>
        <time>2015-05-30T04:52:49Z</time>
      </trkpt>
      <trkpt lat="42.83589" lon="0.13559">
        <ele>2300</ele>
        <time>2015-05-30T04:53:09Z</time>
      </trkpt>
      <trkpt lat="42.83595" lon="0.13553">
        <ele>2303</ele>
        <time>2015-05-30T04:53:29Z</time>
      </trkpt>
      <trkpt lat="42.83601" lon="0.13553">
        <ele>2306</ele>
        <time>2015-05-30T04:53:55Z</time>
      </trkpt>
      <trkpt lat="42.836" lon="0.13548">
        <ele>2308</ele>
        <time>2015-05-30T04:54:13Z</time>
      </trkpt>
      <trkpt lat="42.836" lon="0.13545">
        <ele>2310</ele>
        <time>2015-05-30T04:54:34Z</time>
      </trkpt>
      <trkpt lat="42.83602" lon="0.13536">
        <ele>2313</ele>
        <time>2015-05-30T04:54:49Z</time>
      </trkpt>
      <trkpt lat="42.83601" lon="0.13531">
        <ele>2314</ele>
        <time>2015-05-30T04:55:11Z</time>
      </trkpt>
      <trkpt lat="42.836" lon="0.13527">
        <ele>2317</ele>
        <time>2015-05-30T04:55:32Z</time>
      </trkpt>
      <trkpt lat="42.83607" lon="0.13521">
        <ele>2320</ele>
        <time>2015-05-30T04:55:51Z</time>
      </trkpt>
      <trkpt lat="42.83609" lon="0.13518">
        <ele>2321</ele>
        <time>2015-05-30T04:56:05Z</time>
      </trkpt>
      <trkpt lat="42.83609" lon="0.13515">
        <ele>2323</ele>
        <time>2015-05-30T04:56:19Z</time>
      </trkpt>
      <trkpt lat="42.83609" lon="0.13513">
        <ele>2324</ele>
        <time>2015-05-30T04:56:40Z</time>
      </trkpt>
      <trkpt lat="42.83611" lon="0.13512">
        <ele>2326</ele>
        <time>2015-05-30T04:56:55Z</time>
      </trkpt>
      <trkpt lat="42.83612" lon="0.13509">
        <ele>2328</ele>
        <time>2015-05-30T04:57:08Z</time>
      </trkpt>
      <trkpt lat="42.83612" lon="0.13502">
        <ele>2329</ele>
        <time>2015-05-30T04:57:25Z</time>
      </trkpt>
      <trkpt lat="42.83612" lon="0.13501">
        <ele>2330</ele>
        <time>2015-05-30T04:57:47Z</time>
      </trkpt>
      <trkpt lat="42.8361" lon="0.13497">
        <ele>2332</ele>
        <time>2015-05-30T04:58:04Z</time>
      </trkpt>
      <trkpt lat="42.83609" lon="0.13489">
        <ele>2335</ele>
        <time>2015-05-30T04:58:20Z</time>
      </trkpt>
      <trkpt lat="42.83612" lon="0.13483">
        <ele>2339</ele>
        <time>2015-05-30T04:58:37Z</time>
      </trkpt>
      <trkpt lat="42.83614" lon="0.13474">
        <ele>2342</ele>
        <time>2015-05-30T04:58:55Z</time>
      </trkpt>
      <trkpt lat="42.83612" lon="0.13469">
        <ele>2344</ele>
        <time>2015-05-30T04:59:12Z</time>
      </trkpt>
      <trkpt lat="42.83615" lon="0.1347">
        <ele>2344</ele>
        <time>2015-05-30T04:59:38Z</time>
      </trkpt>
      <trkpt lat="42.83615" lon="0.13469">
        <ele>2344</ele>
        <time>2015-05-30T05:00:02Z</time>
      </trkpt>
      <trkpt lat="42.83616" lon="0.1347">
        <ele>2344</ele>
        <time>2015-05-30T05:00:24Z</time>
      </trkpt>
      <trkpt lat="42.8362" lon="0.13467">
        <ele>2346</ele>
        <time>2015-05-30T05:00:43Z</time>
      </trkpt>
      <trkpt lat="42.83622" lon="0.13464">
        <ele>2349</ele>
        <time>2015-05-30T05:01:01Z</time>
      </trkpt>
      <trkpt lat="42.83623" lon="0.13458">
        <ele>2351</ele>
        <time>2015-05-30T05:01:16Z</time>
      </trkpt>
      <trkpt lat="42.83625" lon="0.13454">
        <ele>2353</ele>
        <time>2015-05-30T05:01:30Z</time>
      </trkpt>
      <trkpt lat="42.83627" lon="0.13454">
        <ele>2356</ele>
        <time>2015-05-30T05:01:45Z</time>
      </trkpt>
      <trkpt lat="42.83632" lon="0.1345">
        <ele>2358</ele>
        <time>2015-05-30T05:02:02Z</time>
      </trkpt>
      <trkpt lat="42.83633" lon="0.13443">
        <ele>2360</ele>
        <time>2015-05-30T05:02:17Z</time>
      </trkpt>
      <trkpt lat="42.83636" lon="0.1344">
        <ele>2364</ele>
        <time>2015-05-30T05:02:33Z</time>
      </trkpt>
      <trkpt lat="42.83637" lon="0.13439">
        <ele>2364</ele>
        <time>2015-05-30T05:02:51Z</time>
      </trkpt>
      <trkpt lat="42.8364" lon="0.13439">
        <ele>2365</ele>
        <time>2015-05-30T05:03:12Z</time>
      </trkpt>
      <trkpt lat="42.83644" lon="0.13442">
        <ele>2367</ele>
        <time>2015-05-30T05:03:29Z</time>
      </trkpt>
      <trkpt lat="42.83642" lon="0.13442">
        <ele>2367</ele>
        <time>2015-05-30T05:03:42Z</time>
      </trkpt>
      <trkpt lat="42.83648" lon="0.13443">
        <ele>2367</ele>
        <time>2015-05-30T05:04:02Z</time>
      </trkpt>
      <trkpt lat="42.83652" lon="0.13443">
        <ele>2369</ele>
        <time>2015-05-30T05:04:17Z</time>
      </trkpt>
      <trkpt lat="42.83659" lon="0.13441">
        <ele>2370</ele>
        <time>2015-05-30T05:04:31Z</time>
      </trkpt>
      <trkpt lat="42.83669" lon="0.1344">
        <ele>2372</ele>
        <time>2015-05-30T05:04:48Z</time>
      </trkpt>
      <trkpt lat="42.83671" lon="0.13441">
        <ele>2373</ele>
        <time>2015-05-30T05:05:04Z</time>
      </trkpt>
      <trkpt lat="42.83672" lon="0.13442">
        <ele>2373</ele>
        <time>2015-05-30T05:05:20Z</time>
      </trkpt>
      <trkpt lat="42.8368" lon="0.13441">
        <ele>2374</ele>
        <time>2015-05-30T05:05:36Z</time>
      </trkpt>
      <trkpt lat="42.8369" lon="0.13441">
        <ele>2375</ele>
        <time>2015-05-30T05:05:50Z</time>
      </trkpt>
      <trkpt lat="42.83695" lon="0.13435">
        <ele>2377</ele>
        <time>2015-05-30T05:06:06Z</time>
      </trkpt>
      <trkpt lat="42.837" lon="0.13431">
        <ele>2379</ele>
        <time>2015-05-30T05:06:21Z</time>
      </trkpt>
      <trkpt lat="42.83705" lon="0.13426">
        <ele>2381</ele>
        <time>2015-05-30T05:06:38Z</time>
      </trkpt>
      <trkpt lat="42.83712" lon="0.13422">
        <ele>2384</ele>
        <time>2015-05-30T05:06:52Z</time>
      </trkpt>
      <trkpt lat="42.83721" lon="0.13418">
        <ele>2387</ele>
        <time>2015-05-30T05:07:09Z</time>
      </trkpt>
      <trkpt lat="42.83729" lon="0.13417">
        <ele>2389</ele>
        <time>2015-05-30T05:07:26Z</time>
      </trkpt>
      <trkpt lat="42.83738" lon="0.13418">
        <ele>2392</ele>
        <time>2015-05-30T05:07:44Z</time>
      </trkpt>
      <trkpt lat="42.83752" lon="0.13422">
        <ele>2393</ele>
        <time>2015-05-30T05:08:05Z</time>
      </trkpt>
      <trkpt lat="42.83761" lon="0.13423">
        <ele>2394</ele>
        <time>2015-05-30T05:08:20Z</time>
      </trkpt>
      <trkpt lat="42.83772" lon="0.13423">
        <ele>2396</ele>
        <time>2015-05-30T05:08:37Z</time>
      </trkpt>
      <trkpt lat="42.83781" lon="0.1342">
        <ele>2398</ele>
        <time>2015-05-30T05:08:53Z</time>
      </trkpt>
      <trkpt lat="42.83786" lon="0.13416">
        <ele>2401</ele>
        <time>2015-05-30T05:09:07Z</time>
      </trkpt>
      <trkpt lat="42.83787" lon="0.1341">
        <ele>2404</ele>
        <time>2015-05-30T05:09:24Z</time>
      </trkpt>
      <trkpt lat="42.83788" lon="0.13408">
        <ele>2405</ele>
        <time>2015-05-30T05:09:46Z</time>
      </trkpt>
      <trkpt lat="42.83793" lon="0.13406">
        <ele>2407</ele>
        <time>2015-05-30T05:10:01Z</time>
      </trkpt>
      <trkpt lat="42.838" lon="0.13407">
        <ele>2409</ele>
        <time>2015-05-30T05:10:16Z</time>
      </trkpt>
      <trkpt lat="42.83808" lon="0.13404">
        <ele>2411</ele>
        <time>2015-05-30T05:10:33Z</time>
      </trkpt>
      <trkpt lat="42.8382" lon="0.13406">
        <ele>2413</ele>
        <time>2015-05-30T05:10:51Z</time>
      </trkpt>
      <trkpt lat="42.83829" lon="0.13404">
        <ele>2414</ele>
        <time>2015-05-30T05:11:10Z</time>
      </trkpt>
      <trkpt lat="42.83835" lon="0.13403">
        <ele>2417</ele>
        <time>2015-05-30T05:11:27Z</time>
      </trkpt>
      <trkpt lat="42.83842" lon="0.13404">
        <ele>2418</ele>
        <time>2015-05-30T05:11:42Z</time>
      </trkpt>
      <trkpt lat="42.83851" lon="0.13403">
        <ele>2419</ele>
        <time>2015-05-30T05:12:00Z</time>
      </trkpt>
      <trkpt lat="42.83858" lon="0.13402">
        <ele>2420</ele>
        <time>2015-05-30T05:12:14Z</time>
      </trkpt>
      <trkpt lat="42.83867" lon="0.13405">
        <ele>2418</ele>
        <time>2015-05-30T05:12:28Z</time>
      </trkpt>
      <trkpt lat="42.83875" lon="0.13399">
        <ele>2419</ele>
        <time>2015-05-30T05:12:43Z</time>
      </trkpt>
      <trkpt lat="42.8388" lon="0.13395">
        <ele>2422</ele>
        <time>2015-05-30T05:12:57Z</time>
      </trkpt>
      <trkpt lat="42.83886" lon="0.1339">
        <ele>2425</ele>
        <time>2015-05-30T05:13:12Z</time>
      </trkpt>
      <trkpt lat="42.83895" lon="0.13388">
        <ele>2427</ele>
        <time>2015-05-30T05:13:29Z</time>
      </trkpt>
      <trkpt lat="42.83905" lon="0.13384">
        <ele>2429</ele>
        <time>2015-05-30T05:13:48Z</time>
      </trkpt>
      <trkpt lat="42.83912" lon="0.13379">
        <ele>2431</ele>
        <time>2015-05-30T05:14:03Z</time>
      </trkpt>
      <trkpt lat="42.83917" lon="0.1337">
        <ele>2433</ele>
        <time>2015-05-30T05:14:17Z</time>
      </trkpt>
      <trkpt lat="42.83918" lon="0.13364">
        <ele>2433</ele>
        <time>2015-05-30T05:14:36Z</time>
      </trkpt>
      <trkpt lat="42.83916" lon="0.13366">
        <ele>2433</ele>
        <time>2015-05-30T05:14:57Z</time>
      </trkpt>
      <trkpt lat="42.83917" lon="0.13367">
        <ele>2433</ele>
        <time>2015-05-30T05:15:32Z</time>
      </trkpt>
      <trkpt lat="42.8392" lon="0.13359">
        <ele>2433</ele>
        <time>2015-05-30T05:15:53Z</time>
      </trkpt>
      <trkpt lat="42.83926" lon="0.1335">
        <ele>2434</ele>
        <time>2015-05-30T05:16:07Z</time>
      </trkpt>
      <trkpt lat="42.83925" lon="0.13343">
        <ele>2435</ele>
        <time>2015-05-30T05:16:20Z</time>
      </trkpt>
      <trkpt lat="42.83925" lon="0.13336">
        <ele>2434</ele>
        <time>2015-05-30T05:16:36Z</time>
      </trkpt>
      <trkpt lat="42.83927" lon="0.13332">
        <ele>2435</ele>
        <time>2015-05-30T05:16:53Z</time>
      </trkpt>
      <trkpt lat="42.83927" lon="0.1333">
        <ele>2437</ele>
        <time>2015-05-30T05:17:00Z</time>
      </trkpt>
      <trkpt lat="42.8393" lon="0.13327">
        <ele>2436</ele>
        <time>2015-05-30T05:17:13Z</time>
      </trkpt>
      <trkpt lat="42.83928" lon="0.13318">
        <ele>2436</ele>
        <time>2015-05-30T05:17:30Z</time>
      </trkpt>
      <trkpt lat="42.8393" lon="0.13314">
        <ele>2435</ele>
        <time>2015-05-30T05:17:48Z</time>
      </trkpt>
      <trkpt lat="42.83929" lon="0.13305">
        <ele>2434</ele>
        <time>2015-05-30T05:18:04Z</time>
      </trkpt>
      <trkpt lat="42.83928" lon="0.13304">
        <ele>2435</ele>
        <time>2015-05-30T05:18:19Z</time>
      </trkpt>
      <trkpt lat="42.83929" lon="0.13299">
        <ele>2436</ele>
        <time>2015-05-30T05:18:31Z</time>
      </trkpt>
      <trkpt lat="42.83927" lon="0.13296">
        <ele>2438</ele>
        <time>2015-05-30T05:18:46Z</time>
      </trkpt>
      <trkpt lat="42.83929" lon="0.13291">
        <ele>2437</ele>
        <time>2015-05-30T05:18:59Z</time>
      </trkpt>
      <trkpt lat="42.8393" lon="0.13283">
        <ele>2439</ele>
        <time>2015-05-30T05:19:17Z</time>
      </trkpt>
      <trkpt lat="42.8393" lon="0.13279">
        <ele>2439</ele>
        <time>2015-05-30T05:19:33Z</time>
      </trkpt>
      <trkpt lat="42.8393" lon="0.13275">
        <ele>2440</ele>
        <time>2015-05-30T05:19:46Z</time>
      </trkpt>
      <trkpt lat="42.83931" lon="0.13269">
        <ele>2441</ele>
        <time>2015-05-30T05:20:01Z</time>
      </trkpt>
      <trkpt lat="42.83933" lon="0.13263">
        <ele>2442</ele>
        <time>2015-05-30T05:20:16Z</time>
      </trkpt>
      <trkpt lat="42.83931" lon="0.13258">
        <ele>2442</ele>
        <time>2015-05-30T05:20:29Z</time>
      </trkpt>
      <trkpt lat="42.83932" lon="0.13252">
        <ele>2442</ele>
        <time>2015-05-30T05:20:45Z</time>
      </trkpt>
      <trkpt lat="42.83932" lon="0.13247">
        <ele>2442</ele>
        <time>2015-05-30T05:20:59Z</time>
      </trkpt>
      <trkpt lat="42.83934" lon="0.13242">
        <ele>2442</ele>
        <time>2015-05-30T05:21:12Z</time>
      </trkpt>
      <trkpt lat="42.83935" lon="0.13237">
        <ele>2443</ele>
        <time>2015-05-30T05:21:26Z</time>
      </trkpt>
      <trkpt lat="42.83935" lon="0.13231">
        <ele>2443</ele>
        <time>2015-05-30T05:21:46Z</time>
      </trkpt>
      <trkpt lat="42.83932" lon="0.13222">
        <ele>2445</ele>
        <time>2015-05-30T05:22:00Z</time>
      </trkpt>
      <trkpt lat="42.83933" lon="0.13219">
        <ele>2447</ele>
        <time>2015-05-30T05:22:19Z</time>
      </trkpt>
      <trkpt lat="42.83933" lon="0.13212">
        <ele>2445</ele>
        <time>2015-05-30T05:22:34Z</time>
      </trkpt>
      <trkpt lat="42.8393" lon="0.13207">
        <ele>2443</ele>
        <time>2015-05-30T05:22:49Z</time>
      </trkpt>
      <trkpt lat="42.83932" lon="0.13206">
        <ele>2442</ele>
        <time>2015-05-30T05:23:07Z</time>
      </trkpt>
      <trkpt lat="42.83931" lon="0.13201">
        <ele>2441</ele>
        <time>2015-05-30T05:23:24Z</time>
      </trkpt>
      <trkpt lat="42.83934" lon="0.13196">
        <ele>2441</ele>
        <time>2015-05-30T05:23:38Z</time>
      </trkpt>
      <trkpt lat="42.83931" lon="0.1319">
        <ele>2440</ele>
        <time>2015-05-30T05:23:52Z</time>
      </trkpt>
      <trkpt lat="42.83933" lon="0.13191">
        <ele>2441</ele>
        <time>2015-05-30T05:24:10Z</time>
      </trkpt>
      <trkpt lat="42.83934" lon="0.1319">
        <ele>2441</ele>
        <time>2015-05-30T05:24:28Z</time>
      </trkpt>
      <trkpt lat="42.83932" lon="0.1319">
        <ele>2442</ele>
        <time>2015-05-30T05:24:57Z</time>
      </trkpt>
      <trkpt lat="42.83934" lon="0.13192">
        <ele>2442</ele>
        <time>2015-05-30T05:25:20Z</time>
      </trkpt>
      <trkpt lat="42.83937" lon="0.1319">
        <ele>2441</ele>
        <time>2015-05-30T05:25:41Z</time>
      </trkpt>
      <trkpt lat="42.83933" lon="0.13188">
        <ele>2441</ele>
        <time>2015-05-30T05:26:00Z</time>
      </trkpt>
      <trkpt lat="42.83937" lon="0.13191">
        <ele>2442</ele>
        <time>2015-05-30T05:26:23Z</time>
      </trkpt>
      <trkpt lat="42.83935" lon="0.13191">
        <ele>2442</ele>
        <time>2015-05-30T05:26:51Z</time>
      </trkpt>
      <trkpt lat="42.83936" lon="0.13191">
        <ele>2442</ele>
        <time>2015-05-30T05:27:18Z</time>
      </trkpt>
      <trkpt lat="42.83935" lon="0.1319">
        <ele>2442</ele>
        <time>2015-05-30T05:27:33Z</time>
      </trkpt>
      <trkpt lat="42.83935" lon="0.13189">
        <ele>2443</ele>
        <time>2015-05-30T05:28:01Z</time>
      </trkpt>
      <trkpt lat="42.83934" lon="0.13193">
        <ele>2442</ele>
        <time>2015-05-30T05:28:22Z</time>
      </trkpt>
      <trkpt lat="42.83934" lon="0.13188">
        <ele>2443</ele>
        <time>2015-05-30T05:28:45Z</time>
      </trkpt>
      <trkpt lat="42.83935" lon="0.13189">
        <ele>2443</ele>
        <time>2015-05-30T05:29:07Z</time>
      </trkpt>
      <trkpt lat="42.83934" lon="0.13191">
        <ele>2441</ele>
        <time>2015-05-30T05:29:35Z</time>
      </trkpt>
      <trkpt lat="42.83936" lon="0.1319">
        <ele>2443</ele>
        <time>2015-05-30T05:30:03Z</time>
      </trkpt>
      <trkpt lat="42.83935" lon="0.13188">
        <ele>2443</ele>
        <time>2015-05-30T05:30:33Z</time>
      </trkpt>
      <trkpt lat="42.83935" lon="0.1319">
        <ele>2443</ele>
        <time>2015-05-30T05:31:01Z</time>
      </trkpt>
      <trkpt lat="42.83934" lon="0.13191">
        <ele>2444</ele>
        <time>2015-05-30T05:31:35Z</time>
      </trkpt>
      <trkpt lat="42.83932" lon="0.13189">
        <ele>2444</ele>
        <time>2015-05-30T05:31:57Z</time>
      </trkpt>
      <trkpt lat="42.83932" lon="0.13193">
        <ele>2444</ele>
        <time>2015-05-30T05:32:18Z</time>
      </trkpt>
      <trkpt lat="42.83934" lon="0.13194">
        <ele>2444</ele>
        <time>2015-05-30T05:32:37Z</time>
      </trkpt>
      <trkpt lat="42.83929" lon="0.13191">
        <ele>2444</ele>
        <time>2015-05-30T05:33:04Z</time>
      </trkpt>
      <trkpt lat="42.83935" lon="0.13195">
        <ele>2445</ele>
        <time>2015-05-30T05:33:34Z</time>
      </trkpt>
      <trkpt lat="42.83931" lon="0.13188">
        <ele>2445</ele>
        <time>2015-05-30T05:34:08Z</time>
      </trkpt>
      <trkpt lat="42.83929" lon="0.13191">
        <ele>2445</ele>
        <time>2015-05-30T05:34:26Z</time>
      </trkpt>
      <trkpt lat="42.83928" lon="0.1319">
        <ele>2444</ele>
        <time>2015-05-30T05:34:43Z</time>
      </trkpt>
      <trkpt lat="42.83928" lon="0.13185">
        <ele>2446</ele>
        <time>2015-05-30T05:35:06Z</time>
      </trkpt>
      <trkpt lat="42.8393" lon="0.13187">
        <ele>2446</ele>
        <time>2015-05-30T05:35:30Z</time>
      </trkpt>
      <trkpt lat="42.8393" lon="0.13188">
        <ele>2446</ele>
        <time>2015-05-30T05:35:48Z</time>
      </trkpt>
      <trkpt lat="42.83929" lon="0.13187">
        <ele>2446</ele>
        <time>2015-05-30T05:36:16Z</time>
      </trkpt>
      <trkpt lat="42.83928" lon="0.13186">
        <ele>2446</ele>
        <time>2015-05-30T05:36:37Z</time>
      </trkpt>
      <trkpt lat="42.8393" lon="0.13183">
        <ele>2447</ele>
        <time>2015-05-30T05:36:56Z</time>
      </trkpt>
      <trkpt lat="42.83932" lon="0.13183">
        <ele>2446</ele>
        <time>2015-05-30T05:36:58Z</time>
      </trkpt>
      <trkpt lat="42.83933" lon="0.13185">
        <ele>2446</ele>
        <time>2015-05-30T05:37:18Z</time>
      </trkpt>
      <trkpt lat="42.83925" lon="0.13189">
        <ele>2447</ele>
        <time>2015-05-30T05:37:39Z</time>
      </trkpt>
      <trkpt lat="42.83926" lon="0.13184">
        <ele>2447</ele>
        <time>2015-05-30T05:37:45Z</time>
      </trkpt>
      <trkpt lat="42.83923" lon="0.13167">
        <ele>2448</ele>
        <time>2015-05-30T05:38:00Z</time>
      </trkpt>
      <trkpt lat="42.83921" lon="0.13154">
        <ele>2450</ele>
        <time>2015-05-30T05:38:13Z</time>
      </trkpt>
      <trkpt lat="42.83918" lon="0.13139">
        <ele>2452</ele>
        <time>2015-05-30T05:38:29Z</time>
      </trkpt>
      <trkpt lat="42.83917" lon="0.13128">
        <ele>2455</ele>
        <time>2015-05-30T05:38:43Z</time>
      </trkpt>
      <trkpt lat="42.83916" lon="0.1312">
        <ele>2456</ele>
        <time>2015-05-30T05:38:51Z</time>
      </trkpt>
      <trkpt lat="42.83917" lon="0.13106">
        <ele>2459</ele>
        <time>2015-05-30T05:39:04Z</time>
      </trkpt>
      <trkpt lat="42.83921" lon="0.13093">
        <ele>2460</ele>
        <time>2015-05-30T05:39:19Z</time>
      </trkpt>
      <trkpt lat="42.83923" lon="0.13079">
        <ele>2463</ele>
        <time>2015-05-30T05:39:33Z</time>
      </trkpt>
      <trkpt lat="42.83925" lon="0.13073">
        <ele>2465</ele>
        <time>2015-05-30T05:39:47Z</time>
      </trkpt>
      <trkpt lat="42.83923" lon="0.13061">
        <ele>2468</ele>
        <time>2015-05-30T05:40:04Z</time>
      </trkpt>
      <trkpt lat="42.83915" lon="0.1305">
        <ele>2470</ele>
        <time>2015-05-30T05:40:20Z</time>
      </trkpt>
      <trkpt lat="42.83912" lon="0.13042">
        <ele>2473</ele>
        <time>2015-05-30T05:40:34Z</time>
      </trkpt>
      <trkpt lat="42.83906" lon="0.13035">
        <ele>2476</ele>
        <time>2015-05-30T05:40:48Z</time>
      </trkpt>
      <trkpt lat="42.83902" lon="0.13032">
        <ele>2477</ele>
        <time>2015-05-30T05:41:03Z</time>
      </trkpt>
      <trkpt lat="42.83907" lon="0.13021">
        <ele>2479</ele>
        <time>2015-05-30T05:41:16Z</time>
      </trkpt>
      <trkpt lat="42.8391" lon="0.13012">
        <ele>2481</ele>
        <time>2015-05-30T05:41:26Z</time>
      </trkpt>
      <trkpt lat="42.83915" lon="0.12997">
        <ele>2482</ele>
        <time>2015-05-30T05:41:42Z</time>
      </trkpt>
      <trkpt lat="42.83919" lon="0.12987">
        <ele>2484</ele>
        <time>2015-05-30T05:41:54Z</time>
      </trkpt>
      <trkpt lat="42.83922" lon="0.1298">
        <ele>2486</ele>
        <time>2015-05-30T05:42:07Z</time>
      </trkpt>
      <trkpt lat="42.83928" lon="0.12976">
        <ele>2488</ele>
        <time>2015-05-30T05:42:20Z</time>
      </trkpt>
      <trkpt lat="42.83921" lon="0.12969">
        <ele>2489</ele>
        <time>2015-05-30T05:42:37Z</time>
      </trkpt>
      <trkpt lat="42.8391" lon="0.12971">
        <ele>2491</ele>
        <time>2015-05-30T05:42:52Z</time>
      </trkpt>
      <trkpt lat="42.83905" lon="0.12978">
        <ele>2493</ele>
        <time>2015-05-30T05:43:06Z</time>
      </trkpt>
      <trkpt lat="42.83908" lon="0.12966">
        <ele>2494</ele>
        <time>2015-05-30T05:43:19Z</time>
      </trkpt>
      <trkpt lat="42.83912" lon="0.12959">
        <ele>2497</ele>
        <time>2015-05-30T05:43:33Z</time>
      </trkpt>
      <trkpt lat="42.83918" lon="0.12954">
        <ele>2499</ele>
        <time>2015-05-30T05:43:46Z</time>
      </trkpt>
      <trkpt lat="42.83925" lon="0.12949">
        <ele>2500</ele>
        <time>2015-05-30T05:43:59Z</time>
      </trkpt>
      <trkpt lat="42.83928" lon="0.12948">
        <ele>2501</ele>
        <time>2015-05-30T05:44:05Z</time>
      </trkpt>
      <trkpt lat="42.83937" lon="0.12939">
        <ele>2503</ele>
        <time>2015-05-30T05:44:18Z</time>
      </trkpt>
      <trkpt lat="42.83938" lon="0.12936">
        <ele>2504</ele>
        <time>2015-05-30T05:44:21Z</time>
      </trkpt>
      <trkpt lat="42.83942" lon="0.12925">
        <ele>2506</ele>
        <time>2015-05-30T05:44:34Z</time>
      </trkpt>
      <trkpt lat="42.83942" lon="0.12916">
        <ele>2509</ele>
        <time>2015-05-30T05:44:50Z</time>
      </trkpt>
      <trkpt lat="42.83942" lon="0.12904">
        <ele>2510</ele>
        <time>2015-05-30T05:45:08Z</time>
      </trkpt>
      <trkpt lat="42.83943" lon="0.129">
        <ele>2511</ele>
        <time>2015-05-30T05:45:11Z</time>
      </trkpt>
      <trkpt lat="42.83943" lon="0.12899">
        <ele>2511</ele>
        <time>2015-05-30T05:45:13Z</time>
      </trkpt>
      <trkpt lat="42.83942" lon="0.12887">
        <ele>2514</ele>
        <time>2015-05-30T05:45:30Z</time>
      </trkpt>
      <trkpt lat="42.83941" lon="0.12874">
        <ele>2516</ele>
        <time>2015-05-30T05:45:48Z</time>
      </trkpt>
      <trkpt lat="42.83942" lon="0.12856">
        <ele>2519</ele>
        <time>2015-05-30T05:46:03Z</time>
      </trkpt>
      <trkpt lat="42.83943" lon="0.12844">
        <ele>2521</ele>
        <time>2015-05-30T05:46:18Z</time>
      </trkpt>
      <trkpt lat="42.83942" lon="0.12832">
        <ele>2524</ele>
        <time>2015-05-30T05:46:35Z</time>
      </trkpt>
      <trkpt lat="42.83942" lon="0.1282">
        <ele>2526</ele>
        <time>2015-05-30T05:46:51Z</time>
      </trkpt>
      <trkpt lat="42.83942" lon="0.12817">
        <ele>2527</ele>
        <time>2015-05-30T05:46:53Z</time>
      </trkpt>
      <trkpt lat="42.83942" lon="0.1281">
        <ele>2528</ele>
        <time>2015-05-30T05:46:59Z</time>
      </trkpt>
      <trkpt lat="42.83942" lon="0.12807">
        <ele>2528</ele>
        <time>2015-05-30T05:47:01Z</time>
      </trkpt>
      <trkpt lat="42.83945" lon="0.12789">
        <ele>2530</ele>
        <time>2015-05-30T05:47:16Z</time>
      </trkpt>
      <trkpt lat="42.83945" lon="0.12785">
        <ele>2533</ele>
        <time>2015-05-30T05:47:30Z</time>
      </trkpt>
      <trkpt lat="42.83946" lon="0.12772">
        <ele>2536</ele>
        <time>2015-05-30T05:47:46Z</time>
      </trkpt>
      <trkpt lat="42.83948" lon="0.12759">
        <ele>2539</ele>
        <time>2015-05-30T05:48:04Z</time>
      </trkpt>
      <trkpt lat="42.83946" lon="0.12758">
        <ele>2540</ele>
        <time>2015-05-30T05:48:19Z</time>
      </trkpt>
      <trkpt lat="42.83947" lon="0.1275">
        <ele>2541</ele>
        <time>2015-05-30T05:48:40Z</time>
      </trkpt>
      <trkpt lat="42.83949" lon="0.12732">
        <ele>2544</ele>
        <time>2015-05-30T05:48:57Z</time>
      </trkpt>
      <trkpt lat="42.8395" lon="0.12717">
        <ele>2546</ele>
        <time>2015-05-30T05:49:12Z</time>
      </trkpt>
      <trkpt lat="42.8395" lon="0.12701">
        <ele>2548</ele>
        <time>2015-05-30T05:49:26Z</time>
      </trkpt>
      <trkpt lat="42.83954" lon="0.12687">
        <ele>2550</ele>
        <time>2015-05-30T05:49:41Z</time>
      </trkpt>
      <trkpt lat="42.83958" lon="0.12676">
        <ele>2552</ele>
        <time>2015-05-30T05:49:55Z</time>
      </trkpt>
      <trkpt lat="42.83961" lon="0.12663">
        <ele>2554</ele>
        <time>2015-05-30T05:50:09Z</time>
      </trkpt>
      <trkpt lat="42.83963" lon="0.12653">
        <ele>2556</ele>
        <time>2015-05-30T05:50:24Z</time>
      </trkpt>
      <trkpt lat="42.83964" lon="0.12648">
        <ele>2559</ele>
        <time>2015-05-30T05:50:31Z</time>
      </trkpt>
      <trkpt lat="42.83966" lon="0.12634">
        <ele>2562</ele>
        <time>2015-05-30T05:50:48Z</time>
      </trkpt>
      <trkpt lat="42.83967" lon="0.12623">
        <ele>2563</ele>
        <time>2015-05-30T05:51:01Z</time>
      </trkpt>
      <trkpt lat="42.83969" lon="0.12608">
        <ele>2566</ele>
        <time>2015-05-30T05:51:15Z</time>
      </trkpt>
      <trkpt lat="42.83969" lon="0.12606">
        <ele>2567</ele>
        <time>2015-05-30T05:51:18Z</time>
      </trkpt>
      <trkpt lat="42.83972" lon="0.12593">
        <ele>2569</ele>
        <time>2015-05-30T05:51:30Z</time>
      </trkpt>
      <trkpt lat="42.83973" lon="0.12584">
        <ele>2570</ele>
        <time>2015-05-30T05:51:41Z</time>
      </trkpt>
      <trkpt lat="42.83973" lon="0.12581">
        <ele>2571</ele>
        <time>2015-05-30T05:51:55Z</time>
      </trkpt>
      <trkpt lat="42.83972" lon="0.12576">
        <ele>2573</ele>
        <time>2015-05-30T05:52:17Z</time>
      </trkpt>
      <trkpt lat="42.83973" lon="0.12568">
        <ele>2575</ele>
        <time>2015-05-30T05:52:30Z</time>
      </trkpt>
      <trkpt lat="42.83967" lon="0.12574">
        <ele>2576</ele>
        <time>2015-05-30T05:52:45Z</time>
      </trkpt>
      <trkpt lat="42.8396" lon="0.12578">
        <ele>2579</ele>
        <time>2015-05-30T05:53:01Z</time>
      </trkpt>
      <trkpt lat="42.83957" lon="0.12576">
        <ele>2581</ele>
        <time>2015-05-30T05:53:16Z</time>
      </trkpt>
      <trkpt lat="42.83961" lon="0.1256">
        <ele>2583</ele>
        <time>2015-05-30T05:53:33Z</time>
      </trkpt>
      <trkpt lat="42.83964" lon="0.12547">
        <ele>2585</ele>
        <time>2015-05-30T05:53:48Z</time>
      </trkpt>
      <trkpt lat="42.83967" lon="0.12537">
        <ele>2587</ele>
        <time>2015-05-30T05:54:00Z</time>
      </trkpt>
      <trkpt lat="42.83968" lon="0.12532">
        <ele>2588</ele>
        <time>2015-05-30T05:54:08Z</time>
      </trkpt>
      <trkpt lat="42.83971" lon="0.12522">
        <ele>2590</ele>
        <time>2015-05-30T05:54:21Z</time>
      </trkpt>
      <trkpt lat="42.83975" lon="0.12516">
        <ele>2592</ele>
        <time>2015-05-30T05:54:32Z</time>
      </trkpt>
      <trkpt lat="42.83976" lon="0.12511">
        <ele>2594</ele>
        <time>2015-05-30T05:54:52Z</time>
      </trkpt>
      <trkpt lat="42.8397" lon="0.12515">
        <ele>2594</ele>
        <time>2015-05-30T05:55:21Z</time>
      </trkpt>
      <trkpt lat="42.83959" lon="0.1252">
        <ele>2596</ele>
        <time>2015-05-30T05:55:37Z</time>
      </trkpt>
      <trkpt lat="42.83958" lon="0.12514">
        <ele>2598</ele>
        <time>2015-05-30T05:55:49Z</time>
      </trkpt>
      <trkpt lat="42.8396" lon="0.12504">
        <ele>2600</ele>
        <time>2015-05-30T05:56:04Z</time>
      </trkpt>
      <trkpt lat="42.83964" lon="0.12494">
        <ele>2603</ele>
        <time>2015-05-30T05:56:19Z</time>
      </trkpt>
      <trkpt lat="42.83968" lon="0.12483">
        <ele>2606</ele>
        <time>2015-05-30T05:56:34Z</time>
      </trkpt>
      <trkpt lat="42.83965" lon="0.12482">
        <ele>2607</ele>
        <time>2015-05-30T05:56:49Z</time>
      </trkpt>
      <trkpt lat="42.83955" lon="0.12483">
        <ele>2609</ele>
        <time>2015-05-30T05:57:04Z</time>
      </trkpt>
      <trkpt lat="42.83945" lon="0.1248">
        <ele>2612</ele>
        <time>2015-05-30T05:57:18Z</time>
      </trkpt>
      <trkpt lat="42.83944" lon="0.12472">
        <ele>2614</ele>
        <time>2015-05-30T05:57:33Z</time>
      </trkpt>
      <trkpt lat="42.83948" lon="0.12468">
        <ele>2615</ele>
        <time>2015-05-30T05:57:40Z</time>
      </trkpt>
      <trkpt lat="42.83955" lon="0.12458">
        <ele>2617</ele>
        <time>2015-05-30T05:57:53Z</time>
      </trkpt>
      <trkpt lat="42.83955" lon="0.12456">
        <ele>2618</ele>
        <time>2015-05-30T05:57:56Z</time>
      </trkpt>
      <trkpt lat="42.83956" lon="0.12454">
        <ele>2619</ele>
        <time>2015-05-30T05:58:01Z</time>
      </trkpt>
      <trkpt lat="42.83961" lon="0.12442">
        <ele>2622</ele>
        <time>2015-05-30T05:58:16Z</time>
      </trkpt>
      <trkpt lat="42.83965" lon="0.12433">
        <ele>2624</ele>
        <time>2015-05-30T05:58:29Z</time>
      </trkpt>
      <trkpt lat="42.83968" lon="0.12425">
        <ele>2626</ele>
        <time>2015-05-30T05:58:40Z</time>
      </trkpt>
      <trkpt lat="42.83972" lon="0.12417">
        <ele>2627</ele>
        <time>2015-05-30T05:58:53Z</time>
      </trkpt>
      <trkpt lat="42.8397" lon="0.1241">
        <ele>2629</ele>
        <time>2015-05-30T05:59:13Z</time>
      </trkpt>
      <trkpt lat="42.83971" lon="0.12402">
        <ele>2630</ele>
        <time>2015-05-30T05:59:37Z</time>
      </trkpt>
      <trkpt lat="42.83972" lon="0.12395">
        <ele>2632</ele>
        <time>2015-05-30T05:59:57Z</time>
      </trkpt>
      <trkpt lat="42.83971" lon="0.12383">
        <ele>2635</ele>
        <time>2015-05-30T06:00:14Z</time>
      </trkpt>
      <trkpt lat="42.83973" lon="0.12372">
        <ele>2637</ele>
        <time>2015-05-30T06:00:27Z</time>
      </trkpt>
      <trkpt lat="42.83976" lon="0.12361">
        <ele>2640</ele>
        <time>2015-05-30T06:00:40Z</time>
      </trkpt>
      <trkpt lat="42.83976" lon="0.12356">
        <ele>2641</ele>
        <time>2015-05-30T06:00:52Z</time>
      </trkpt>
      <trkpt lat="42.83977" lon="0.12353">
        <ele>2641</ele>
        <time>2015-05-30T06:01:15Z</time>
      </trkpt>
      <trkpt lat="42.83977" lon="0.1234">
        <ele>2644</ele>
        <time>2015-05-30T06:01:30Z</time>
      </trkpt>
      <trkpt lat="42.83978" lon="0.12332">
        <ele>2647</ele>
        <time>2015-05-30T06:01:44Z</time>
      </trkpt>
      <trkpt lat="42.83979" lon="0.12322">
        <ele>2650</ele>
        <time>2015-05-30T06:02:01Z</time>
      </trkpt>
      <trkpt lat="42.8398" lon="0.12312">
        <ele>2651</ele>
        <time>2015-05-30T06:02:14Z</time>
      </trkpt>
      <trkpt lat="42.83981" lon="0.12302">
        <ele>2654</ele>
        <time>2015-05-30T06:02:26Z</time>
      </trkpt>
      <trkpt lat="42.83982" lon="0.12291">
        <ele>2655</ele>
        <time>2015-05-30T06:02:41Z</time>
      </trkpt>
      <trkpt lat="42.83982" lon="0.12281">
        <ele>2657</ele>
        <time>2015-05-30T06:02:54Z</time>
      </trkpt>
      <trkpt lat="42.83982" lon="0.12272">
        <ele>2661</ele>
        <time>2015-05-30T06:03:08Z</time>
      </trkpt>
      <trkpt lat="42.83983" lon="0.12259">
        <ele>2662</ele>
        <time>2015-05-30T06:03:29Z</time>
      </trkpt>
      <trkpt lat="42.83985" lon="0.12247">
        <ele>2665</ele>
        <time>2015-05-30T06:03:45Z</time>
      </trkpt>
      <trkpt lat="42.83988" lon="0.12238">
        <ele>2669</ele>
        <time>2015-05-30T06:04:01Z</time>
      </trkpt>
      <trkpt lat="42.8399" lon="0.12229">
        <ele>2671</ele>
        <time>2015-05-30T06:04:15Z</time>
      </trkpt>
      <trkpt lat="42.83991" lon="0.12221">
        <ele>2673</ele>
        <time>2015-05-30T06:04:28Z</time>
      </trkpt>
      <trkpt lat="42.83997" lon="0.12213">
        <ele>2675</ele>
        <time>2015-05-30T06:04:45Z</time>
      </trkpt>
      <trkpt lat="42.84002" lon="0.12199">
        <ele>2677</ele>
        <time>2015-05-30T06:05:01Z</time>
      </trkpt>
      <trkpt lat="42.84003" lon="0.1219">
        <ele>2680</ele>
        <time>2015-05-30T06:05:10Z</time>
      </trkpt>
      <trkpt lat="42.83998" lon="0.12183">
        <ele>2682</ele>
        <time>2015-05-30T06:05:23Z</time>
      </trkpt>
      <trkpt lat="42.83988" lon="0.12183">
        <ele>2684</ele>
        <time>2015-05-30T06:05:39Z</time>
      </trkpt>
      <trkpt lat="42.83979" lon="0.12187">
        <ele>2687</ele>
        <time>2015-05-30T06:05:54Z</time>
      </trkpt>
      <trkpt lat="42.83969" lon="0.12192">
        <ele>2689</ele>
        <time>2015-05-30T06:06:10Z</time>
      </trkpt>
      <trkpt lat="42.83962" lon="0.12194">
        <ele>2692</ele>
        <time>2015-05-30T06:06:22Z</time>
      </trkpt>
      <trkpt lat="42.83962" lon="0.12191">
        <ele>2692</ele>
        <time>2015-05-30T06:06:38Z</time>
      </trkpt>
      <trkpt lat="42.83963" lon="0.12185">
        <ele>2692</ele>
        <time>2015-05-30T06:06:50Z</time>
      </trkpt>
      <trkpt lat="42.83964" lon="0.12177">
        <ele>2695</ele>
        <time>2015-05-30T06:07:06Z</time>
      </trkpt>
      <trkpt lat="42.83964" lon="0.12176">
        <ele>2696</ele>
        <time>2015-05-30T06:07:07Z</time>
      </trkpt>
      <trkpt lat="42.83966" lon="0.12162">
        <ele>2698</ele>
        <time>2015-05-30T06:07:22Z</time>
      </trkpt>
      <trkpt lat="42.83961" lon="0.12161">
        <ele>2700</ele>
        <time>2015-05-30T06:07:35Z</time>
      </trkpt>
      <trkpt lat="42.83951" lon="0.12165">
        <ele>2704</ele>
        <time>2015-05-30T06:07:52Z</time>
      </trkpt>
      <trkpt lat="42.8394" lon="0.12169">
        <ele>2706</ele>
        <time>2015-05-30T06:08:10Z</time>
      </trkpt>
      <trkpt lat="42.83931" lon="0.12168">
        <ele>2709</ele>
        <time>2015-05-30T06:08:25Z</time>
      </trkpt>
      <trkpt lat="42.83931" lon="0.12154">
        <ele>2711</ele>
        <time>2015-05-30T06:08:39Z</time>
      </trkpt>
      <trkpt lat="42.83933" lon="0.12145">
        <ele>2713</ele>
        <time>2015-05-30T06:08:53Z</time>
      </trkpt>
      <trkpt lat="42.83938" lon="0.12133">
        <ele>2716</ele>
        <time>2015-05-30T06:09:07Z</time>
      </trkpt>
      <trkpt lat="42.83943" lon="0.12124">
        <ele>2718</ele>
        <time>2015-05-30T06:09:22Z</time>
      </trkpt>
      <trkpt lat="42.83946" lon="0.12116">
        <ele>2720</ele>
        <time>2015-05-30T06:09:33Z</time>
      </trkpt>
      <trkpt lat="42.83948" lon="0.12103">
        <ele>2722</ele>
        <time>2015-05-30T06:09:48Z</time>
      </trkpt>
      <trkpt lat="42.83947" lon="0.12098">
        <ele>2724</ele>
        <time>2015-05-30T06:10:03Z</time>
      </trkpt>
      <trkpt lat="42.83945" lon="0.12089">
        <ele>2725</ele>
        <time>2015-05-30T06:10:25Z</time>
      </trkpt>
      <trkpt lat="42.83944" lon="0.12076">
        <ele>2727</ele>
        <time>2015-05-30T06:10:41Z</time>
      </trkpt>
      <trkpt lat="42.83938" lon="0.12077">
        <ele>2730</ele>
        <time>2015-05-30T06:10:55Z</time>
      </trkpt>
      <trkpt lat="42.83927" lon="0.12071">
        <ele>2733</ele>
        <time>2015-05-30T06:11:12Z</time>
      </trkpt>
      <trkpt lat="42.83921" lon="0.12058">
        <ele>2736</ele>
        <time>2015-05-30T06:11:27Z</time>
      </trkpt>
      <trkpt lat="42.83921" lon="0.12049">
        <ele>2738</ele>
        <time>2015-05-30T06:11:41Z</time>
      </trkpt>
      <trkpt lat="42.83919" lon="0.1204">
        <ele>2740</ele>
        <time>2015-05-30T06:11:53Z</time>
      </trkpt>
      <trkpt lat="42.83919" lon="0.12038">
        <ele>2741</ele>
        <time>2015-05-30T06:11:56Z</time>
      </trkpt>
      <trkpt lat="42.8392" lon="0.12029">
        <ele>2743</ele>
        <time>2015-05-30T06:12:09Z</time>
      </trkpt>
      <trkpt lat="42.83919" lon="0.1202">
        <ele>2745</ele>
        <time>2015-05-30T06:12:20Z</time>
      </trkpt>
      <trkpt lat="42.83917" lon="0.12014">
        <ele>2747</ele>
        <time>2015-05-30T06:12:26Z</time>
      </trkpt>
      <trkpt lat="42.83914" lon="0.12007">
        <ele>2748</ele>
        <time>2015-05-30T06:12:41Z</time>
      </trkpt>
      <trkpt lat="42.83909" lon="0.12">
        <ele>2749</ele>
        <time>2015-05-30T06:13:03Z</time>
      </trkpt>
      <trkpt lat="42.83904" lon="0.11986">
        <ele>2751</ele>
        <time>2015-05-30T06:13:18Z</time>
      </trkpt>
      <trkpt lat="42.83904" lon="0.11985">
        <ele>2752</ele>
        <time>2015-05-30T06:13:20Z</time>
      </trkpt>
      <trkpt lat="42.83902" lon="0.11974">
        <ele>2752</ele>
        <time>2015-05-30T06:13:33Z</time>
      </trkpt>
      <trkpt lat="42.83897" lon="0.11957">
        <ele>2754</ele>
        <time>2015-05-30T06:13:48Z</time>
      </trkpt>
      <trkpt lat="42.83897" lon="0.11944">
        <ele>2757</ele>
        <time>2015-05-30T06:14:04Z</time>
      </trkpt>
      <trkpt lat="42.83899" lon="0.11934">
        <ele>2759</ele>
        <time>2015-05-30T06:14:18Z</time>
      </trkpt>
      <trkpt lat="42.839" lon="0.11931">
        <ele>2759</ele>
        <time>2015-05-30T06:14:21Z</time>
      </trkpt>
      <trkpt lat="42.83901" lon="0.1192">
        <ele>2761</ele>
        <time>2015-05-30T06:14:35Z</time>
      </trkpt>
      <trkpt lat="42.83902" lon="0.11912">
        <ele>2763</ele>
        <time>2015-05-30T06:14:48Z</time>
      </trkpt>
      <trkpt lat="42.83906" lon="0.11903">
        <ele>2764</ele>
        <time>2015-05-30T06:15:01Z</time>
      </trkpt>
      <trkpt lat="42.83907" lon="0.1189">
        <ele>2765</ele>
        <time>2015-05-30T06:15:15Z</time>
      </trkpt>
      <trkpt lat="42.83909" lon="0.11877">
        <ele>2769</ele>
        <time>2015-05-30T06:15:33Z</time>
      </trkpt>
      <trkpt lat="42.8391" lon="0.11865">
        <ele>2770</ele>
        <time>2015-05-30T06:15:48Z</time>
      </trkpt>
      <trkpt lat="42.83913" lon="0.11853">
        <ele>2772</ele>
        <time>2015-05-30T06:16:02Z</time>
      </trkpt>
      <trkpt lat="42.83913" lon="0.11835">
        <ele>2774</ele>
        <time>2015-05-30T06:16:21Z</time>
      </trkpt>
      <trkpt lat="42.83913" lon="0.11823">
        <ele>2774</ele>
        <time>2015-05-30T06:16:33Z</time>
      </trkpt>
      <trkpt lat="42.83911" lon="0.1181">
        <ele>2776</ele>
        <time>2015-05-30T06:16:46Z</time>
      </trkpt>
      <trkpt lat="42.83914" lon="0.11801">
        <ele>2778</ele>
        <time>2015-05-30T06:16:59Z</time>
      </trkpt>
      <trkpt lat="42.83916" lon="0.11788">
        <ele>2780</ele>
        <time>2015-05-30T06:17:14Z</time>
      </trkpt>
      <trkpt lat="42.83919" lon="0.11781">
        <ele>2782</ele>
        <time>2015-05-30T06:17:27Z</time>
      </trkpt>
      <trkpt lat="42.83919" lon="0.11769">
        <ele>2784</ele>
        <time>2015-05-30T06:17:39Z</time>
      </trkpt>
      <trkpt lat="42.83919" lon="0.11758">
        <ele>2786</ele>
        <time>2015-05-30T06:17:51Z</time>
      </trkpt>
      <trkpt lat="42.83919" lon="0.11749">
        <ele>2787</ele>
        <time>2015-05-30T06:18:04Z</time>
      </trkpt>
      <trkpt lat="42.83921" lon="0.11738">
        <ele>2790</ele>
        <time>2015-05-30T06:18:18Z</time>
      </trkpt>
      <trkpt lat="42.83924" lon="0.11728">
        <ele>2792</ele>
        <time>2015-05-30T06:18:31Z</time>
      </trkpt>
      <trkpt lat="42.83927" lon="0.1172">
        <ele>2792</ele>
        <time>2015-05-30T06:18:44Z</time>
      </trkpt>
      <trkpt lat="42.83926" lon="0.11706">
        <ele>2796</ele>
        <time>2015-05-30T06:18:59Z</time>
      </trkpt>
      <trkpt lat="42.83921" lon="0.11709">
        <ele>2795</ele>
        <time>2015-05-30T06:19:20Z</time>
      </trkpt>
      <trkpt lat="42.83919" lon="0.11697">
        <ele>2795</ele>
        <time>2015-05-30T06:19:52Z</time>
      </trkpt>
      <trkpt lat="42.83919" lon="0.1169">
        <ele>2797</ele>
        <time>2015-05-30T06:20:10Z</time>
      </trkpt>
      <trkpt lat="42.83917" lon="0.11681">
        <ele>2799</ele>
        <time>2015-05-30T06:20:24Z</time>
      </trkpt>
      <trkpt lat="42.83917" lon="0.11677">
        <ele>2800</ele>
        <time>2015-05-30T06:20:32Z</time>
      </trkpt>
      <trkpt lat="42.83914" lon="0.11667">
        <ele>2803</ele>
        <time>2015-05-30T06:20:49Z</time>
      </trkpt>
      <trkpt lat="42.83909" lon="0.11653">
        <ele>2804</ele>
        <time>2015-05-30T06:21:04Z</time>
      </trkpt>
      <trkpt lat="42.83905" lon="0.11643">
        <ele>2807</ele>
        <time>2015-05-30T06:21:22Z</time>
      </trkpt>
      <trkpt lat="42.83901" lon="0.11631">
        <ele>2809</ele>
        <time>2015-05-30T06:21:36Z</time>
      </trkpt>
      <trkpt lat="42.839" lon="0.11629">
        <ele>2810</ele>
        <time>2015-05-30T06:21:38Z</time>
      </trkpt>
      <trkpt lat="42.83897" lon="0.1162">
        <ele>2811</ele>
        <time>2015-05-30T06:21:51Z</time>
      </trkpt>
      <trkpt lat="42.83894" lon="0.11612">
        <ele>2814</ele>
        <time>2015-05-30T06:22:03Z</time>
      </trkpt>
      <trkpt lat="42.83892" lon="0.11602">
        <ele>2815</ele>
        <time>2015-05-30T06:22:15Z</time>
      </trkpt>
      <trkpt lat="42.83895" lon="0.11596">
        <ele>2817</ele>
        <time>2015-05-30T06:22:27Z</time>
      </trkpt>
      <trkpt lat="42.8389" lon="0.11585">
        <ele>2820</ele>
        <time>2015-05-30T06:22:43Z</time>
      </trkpt>
      <trkpt lat="42.83886" lon="0.11577">
        <ele>2822</ele>
        <time>2015-05-30T06:22:54Z</time>
      </trkpt>
      <trkpt lat="42.8388" lon="0.11563">
        <ele>2824</ele>
        <time>2015-05-30T06:23:09Z</time>
      </trkpt>
      <trkpt lat="42.83876" lon="0.11551">
        <ele>2827</ele>
        <time>2015-05-30T06:23:23Z</time>
      </trkpt>
      <trkpt lat="42.83876" lon="0.11549">
        <ele>2827</ele>
        <time>2015-05-30T06:23:27Z</time>
      </trkpt>
      <trkpt lat="42.83875" lon="0.11546">
        <ele>2828</ele>
        <time>2015-05-30T06:23:30Z</time>
      </trkpt>
      <trkpt lat="42.83874" lon="0.11537">
        <ele>2829</ele>
        <time>2015-05-30T06:23:41Z</time>
      </trkpt>
      <trkpt lat="42.83873" lon="0.11535">
        <ele>2830</ele>
        <time>2015-05-30T06:23:43Z</time>
      </trkpt>
      <trkpt lat="42.83874" lon="0.11528">
        <ele>2832</ele>
        <time>2015-05-30T06:23:54Z</time>
      </trkpt>
      <trkpt lat="42.83876" lon="0.11519">
        <ele>2834</ele>
        <time>2015-05-30T06:24:08Z</time>
      </trkpt>
      <trkpt lat="42.83877" lon="0.1151">
        <ele>2836</ele>
        <time>2015-05-30T06:24:20Z</time>
      </trkpt>
      <trkpt lat="42.8388" lon="0.11504">
        <ele>2837</ele>
        <time>2015-05-30T06:24:34Z</time>
      </trkpt>
      <trkpt lat="42.83871" lon="0.11505">
        <ele>2841</ele>
        <time>2015-05-30T06:24:51Z</time>
      </trkpt>
      <trkpt lat="42.83862" lon="0.11504">
        <ele>2844</ele>
        <time>2015-05-30T06:25:09Z</time>
      </trkpt>
      <trkpt lat="42.83852" lon="0.11501">
        <ele>2847</ele>
        <time>2015-05-30T06:25:25Z</time>
      </trkpt>
      <trkpt lat="42.83844" lon="0.115">
        <ele>2850</ele>
        <time>2015-05-30T06:25:38Z</time>
      </trkpt>
      <trkpt lat="42.83838" lon="0.11496">
        <ele>2851</ele>
        <time>2015-05-30T06:25:58Z</time>
      </trkpt>
      <trkpt lat="42.83834" lon="0.11485">
        <ele>2853</ele>
        <time>2015-05-30T06:26:14Z</time>
      </trkpt>
      <trkpt lat="42.83836" lon="0.11475">
        <ele>2856</ele>
        <time>2015-05-30T06:26:26Z</time>
      </trkpt>
      <trkpt lat="42.83835" lon="0.11468">
        <ele>2858</ele>
        <time>2015-05-30T06:26:38Z</time>
      </trkpt>
      <trkpt lat="42.83836" lon="0.11466">
        <ele>2858</ele>
        <time>2015-05-30T06:26:41Z</time>
      </trkpt>
      <trkpt lat="42.83838" lon="0.11458">
        <ele>2860</ele>
        <time>2015-05-30T06:26:54Z</time>
      </trkpt>
      <trkpt lat="42.83842" lon="0.11453">
        <ele>2861</ele>
        <time>2015-05-30T06:27:02Z</time>
      </trkpt>
      <trkpt lat="42.83845" lon="0.11441">
        <ele>2863</ele>
        <time>2015-05-30T06:27:15Z</time>
      </trkpt>
      <trkpt lat="42.83845" lon="0.11436">
        <ele>2864</ele>
        <time>2015-05-30T06:27:24Z</time>
      </trkpt>
      <trkpt lat="42.83846" lon="0.11432">
        <ele>2865</ele>
        <time>2015-05-30T06:27:32Z</time>
      </trkpt>
      <trkpt lat="42.83848" lon="0.11427">
        <ele>2867</ele>
        <time>2015-05-30T06:27:43Z</time>
      </trkpt>
      <trkpt lat="42.83851" lon="0.11418">
        <ele>2869</ele>
        <time>2015-05-30T06:27:56Z</time>
      </trkpt>
      <trkpt lat="42.83853" lon="0.11412">
        <ele>2871</ele>
        <time>2015-05-30T06:28:07Z</time>
      </trkpt>
      <trkpt lat="42.83857" lon="0.11405">
        <ele>2872</ele>
        <time>2015-05-30T06:28:19Z</time>
      </trkpt>
      <trkpt lat="42.83858" lon="0.11402">
        <ele>2874</ele>
        <time>2015-05-30T06:28:32Z</time>
      </trkpt>
      <trkpt lat="42.83857" lon="0.11399">
        <ele>2874</ele>
        <time>2015-05-30T06:29:01Z</time>
      </trkpt>
      <trkpt lat="42.83852" lon="0.11397">
        <ele>2876</ele>
        <time>2015-05-30T06:29:20Z</time>
      </trkpt>
      <trkpt lat="42.83843" lon="0.11395">
        <ele>2877</ele>
        <time>2015-05-30T06:29:37Z</time>
      </trkpt>
      <trkpt lat="42.83839" lon="0.11394">
        <ele>2879</ele>
        <time>2015-05-30T06:29:50Z</time>
      </trkpt>
      <trkpt lat="42.83834" lon="0.11392">
        <ele>2879</ele>
        <time>2015-05-30T06:30:03Z</time>
      </trkpt>
      <trkpt lat="42.83829" lon="0.11392">
        <ele>2882</ele>
        <time>2015-05-30T06:30:16Z</time>
      </trkpt>
      <trkpt lat="42.83824" lon="0.11391">
        <ele>2884</ele>
        <time>2015-05-30T06:30:25Z</time>
      </trkpt>
      <trkpt lat="42.83816" lon="0.11389">
        <ele>2886</ele>
        <time>2015-05-30T06:30:38Z</time>
      </trkpt>
      <trkpt lat="42.83809" lon="0.11389">
        <ele>2888</ele>
        <time>2015-05-30T06:30:52Z</time>
      </trkpt>
      <trkpt lat="42.83804" lon="0.11394">
        <ele>2891</ele>
        <time>2015-05-30T06:31:05Z</time>
      </trkpt>
      <trkpt lat="42.83797" lon="0.11396">
        <ele>2894</ele>
        <time>2015-05-30T06:31:20Z</time>
      </trkpt>
      <trkpt lat="42.83801" lon="0.11386">
        <ele>2896</ele>
        <time>2015-05-30T06:31:35Z</time>
      </trkpt>
      <trkpt lat="42.838" lon="0.11374">
        <ele>2898</ele>
        <time>2015-05-30T06:31:48Z</time>
      </trkpt>
      <trkpt lat="42.83801" lon="0.11367">
        <ele>2899</ele>
        <time>2015-05-30T06:32:00Z</time>
      </trkpt>
      <trkpt lat="42.83803" lon="0.1136">
        <ele>2902</ele>
        <time>2015-05-30T06:32:12Z</time>
      </trkpt>
      <trkpt lat="42.83803" lon="0.1136">
        <ele>2902</ele>
        <time>2015-05-30T06:32:13Z</time>
      </trkpt>
      <trkpt lat="42.83805" lon="0.11352">
        <ele>2902</ele>
        <time>2015-05-30T06:32:26Z</time>
      </trkpt>
      <trkpt lat="42.83798" lon="0.11358">
        <ele>2904</ele>
        <time>2015-05-30T06:32:44Z</time>
      </trkpt>
      <trkpt lat="42.83795" lon="0.11362">
        <ele>2905</ele>
        <time>2015-05-30T06:32:54Z</time>
      </trkpt>
      <trkpt lat="42.8379" lon="0.11364">
        <ele>2907</ele>
        <time>2015-05-30T06:33:05Z</time>
      </trkpt>
      <trkpt lat="42.83788" lon="0.1136">
        <ele>2909</ele>
        <time>2015-05-30T06:33:15Z</time>
      </trkpt>
      <trkpt lat="42.83788" lon="0.1135">
        <ele>2910</ele>
        <time>2015-05-30T06:33:27Z</time>
      </trkpt>
      <trkpt lat="42.83789" lon="0.11347">
        <ele>2911</ele>
        <time>2015-05-30T06:33:43Z</time>
      </trkpt>
      <trkpt lat="42.83789" lon="0.11338">
        <ele>2913</ele>
        <time>2015-05-30T06:33:55Z</time>
      </trkpt>
      <trkpt lat="42.83788" lon="0.11335">
        <ele>2914</ele>
        <time>2015-05-30T06:34:07Z</time>
      </trkpt>
      <trkpt lat="42.83791" lon="0.11342">
        <ele>2914</ele>
        <time>2015-05-30T06:34:13Z</time>
      </trkpt>
      <trkpt lat="42.83789" lon="0.11349">
        <ele>2915</ele>
        <time>2015-05-30T06:34:18Z</time>
      </trkpt>
      <trkpt lat="42.83783" lon="0.11355">
        <ele>2917</ele>
        <time>2015-05-30T06:34:30Z</time>
      </trkpt>
      <trkpt lat="42.83776" lon="0.1136">
        <ele>2919</ele>
        <time>2015-05-30T06:34:43Z</time>
      </trkpt>
      <trkpt lat="42.83772" lon="0.11365">
        <ele>2920</ele>
        <time>2015-05-30T06:34:53Z</time>
      </trkpt>
      <trkpt lat="42.8377" lon="0.11371">
        <ele>2921</ele>
        <time>2015-05-30T06:34:59Z</time>
      </trkpt>
      <trkpt lat="42.83764" lon="0.11375">
        <ele>2923</ele>
        <time>2015-05-30T06:35:13Z</time>
      </trkpt>
      <trkpt lat="42.83755" lon="0.11382">
        <ele>2925</ele>
        <time>2015-05-30T06:35:30Z</time>
      </trkpt>
      <trkpt lat="42.83749" lon="0.11386">
        <ele>2927</ele>
        <time>2015-05-30T06:35:44Z</time>
      </trkpt>
      <trkpt lat="42.83745" lon="0.11391">
        <ele>2929</ele>
        <time>2015-05-30T06:35:55Z</time>
      </trkpt>
      <trkpt lat="42.83739" lon="0.11399">
        <ele>2932</ele>
        <time>2015-05-30T06:36:11Z</time>
      </trkpt>
      <trkpt lat="42.83734" lon="0.11407">
        <ele>2934</ele>
        <time>2015-05-30T06:36:24Z</time>
      </trkpt>
      <trkpt lat="42.83728" lon="0.1142">
        <ele>2936</ele>
        <time>2015-05-30T06:36:39Z</time>
      </trkpt>
      <trkpt lat="42.83723" lon="0.11425">
        <ele>2937</ele>
        <time>2015-05-30T06:36:49Z</time>
      </trkpt>
      <trkpt lat="42.83716" lon="0.11432">
        <ele>2938</ele>
        <time>2015-05-30T06:37:02Z</time>
      </trkpt>
      <trkpt lat="42.83712" lon="0.1144">
        <ele>2941</ele>
        <time>2015-05-30T06:37:17Z</time>
      </trkpt>
      <trkpt lat="42.83707" lon="0.1145">
        <ele>2943</ele>
        <time>2015-05-30T06:37:31Z</time>
      </trkpt>
      <trkpt lat="42.83701" lon="0.11463">
        <ele>2946</ele>
        <time>2015-05-30T06:37:47Z</time>
      </trkpt>
      <trkpt lat="42.83696" lon="0.11474">
        <ele>2948</ele>
        <time>2015-05-30T06:38:01Z</time>
      </trkpt>
      <trkpt lat="42.83692" lon="0.11485">
        <ele>2949</ele>
        <time>2015-05-30T06:38:19Z</time>
      </trkpt>
      <trkpt lat="42.83691" lon="0.11475">
        <ele>2950</ele>
        <time>2015-05-30T06:38:34Z</time>
      </trkpt>
      <trkpt lat="42.8369" lon="0.11468">
        <ele>2951</ele>
        <time>2015-05-30T06:38:47Z</time>
      </trkpt>
      <trkpt lat="42.83686" lon="0.11458">
        <ele>2952</ele>
        <time>2015-05-30T06:38:58Z</time>
      </trkpt>
      <trkpt lat="42.83686" lon="0.1145">
        <ele>2954</ele>
        <time>2015-05-30T06:39:12Z</time>
      </trkpt>
      <trkpt lat="42.83683" lon="0.11437">
        <ele>2956</ele>
        <time>2015-05-30T06:39:27Z</time>
      </trkpt>
      <trkpt lat="42.83679" lon="0.11424">
        <ele>2958</ele>
        <time>2015-05-30T06:39:39Z</time>
      </trkpt>
      <trkpt lat="42.83681" lon="0.11414">
        <ele>2960</ele>
        <time>2015-05-30T06:39:51Z</time>
      </trkpt>
      <trkpt lat="42.83682" lon="0.11412">
        <ele>2960</ele>
        <time>2015-05-30T06:39:56Z</time>
      </trkpt>
      <trkpt lat="42.83684" lon="0.11404">
        <ele>2962</ele>
        <time>2015-05-30T06:40:08Z</time>
      </trkpt>
      <trkpt lat="42.83685" lon="0.11394">
        <ele>2964</ele>
        <time>2015-05-30T06:40:21Z</time>
      </trkpt>
      <trkpt lat="42.8369" lon="0.11388">
        <ele>2966</ele>
        <time>2015-05-30T06:40:34Z</time>
      </trkpt>
      <trkpt lat="42.83692" lon="0.11382">
        <ele>2968</ele>
        <time>2015-05-30T06:40:45Z</time>
      </trkpt>
      <trkpt lat="42.83691" lon="0.11371">
        <ele>2970</ele>
        <time>2015-05-30T06:40:58Z</time>
      </trkpt>
      <trkpt lat="42.83693" lon="0.11365">
        <ele>2972</ele>
        <time>2015-05-30T06:41:09Z</time>
      </trkpt>
      <trkpt lat="42.83695" lon="0.11361">
        <ele>2973</ele>
        <time>2015-05-30T06:41:14Z</time>
      </trkpt>
      <trkpt lat="42.83695" lon="0.11356">
        <ele>2973</ele>
        <time>2015-05-30T06:41:27Z</time>
      </trkpt>
      <trkpt lat="42.83694" lon="0.11363">
        <ele>2973</ele>
        <time>2015-05-30T06:41:46Z</time>
      </trkpt>
      <trkpt lat="42.83686" lon="0.11367">
        <ele>2976</ele>
        <time>2015-05-30T06:42:00Z</time>
      </trkpt>
      <trkpt lat="42.83679" lon="0.11373">
        <ele>2978</ele>
        <time>2015-05-30T06:42:12Z</time>
      </trkpt>
      <trkpt lat="42.83675" lon="0.11376">
        <ele>2980</ele>
        <time>2015-05-30T06:42:22Z</time>
      </trkpt>
      <trkpt lat="42.83672" lon="0.11382">
        <ele>2981</ele>
        <time>2015-05-30T06:42:38Z</time>
      </trkpt>
      <trkpt lat="42.83667" lon="0.11384">
        <ele>2981</ele>
        <time>2015-05-30T06:43:01Z</time>
      </trkpt>
      <trkpt lat="42.83659" lon="0.11391">
        <ele>2984</ele>
        <time>2015-05-30T06:43:19Z</time>
      </trkpt>
      <trkpt lat="42.83654" lon="0.11398">
        <ele>2985</ele>
        <time>2015-05-30T06:43:32Z</time>
      </trkpt>
      <trkpt lat="42.83649" lon="0.11403">
        <ele>2986</ele>
        <time>2015-05-30T06:43:44Z</time>
      </trkpt>
      <trkpt lat="42.83651" lon="0.11392">
        <ele>2988</ele>
        <time>2015-05-30T06:44:02Z</time>
      </trkpt>
      <trkpt lat="42.83652" lon="0.11379">
        <ele>2990</ele>
        <time>2015-05-30T06:44:18Z</time>
      </trkpt>
      <trkpt lat="42.8365" lon="0.11368">
        <ele>2992</ele>
        <time>2015-05-30T06:44:31Z</time>
      </trkpt>
      <trkpt lat="42.83651" lon="0.11361">
        <ele>2994</ele>
        <time>2015-05-30T06:44:43Z</time>
      </trkpt>
      <trkpt lat="42.83652" lon="0.11357">
        <ele>2995</ele>
        <time>2015-05-30T06:44:50Z</time>
      </trkpt>
      <trkpt lat="42.83654" lon="0.11351">
        <ele>2996</ele>
        <time>2015-05-30T06:44:59Z</time>
      </trkpt>
      <trkpt lat="42.83655" lon="0.11351">
        <ele>2998</ele>
        <time>2015-05-30T06:45:10Z</time>
      </trkpt>
      <trkpt lat="42.83649" lon="0.11354">
        <ele>2998</ele>
        <time>2015-05-30T06:45:32Z</time>
      </trkpt>
      <trkpt lat="42.83643" lon="0.11355">
        <ele>2998</ele>
        <time>2015-05-30T06:45:51Z</time>
      </trkpt>
      <trkpt lat="42.8364" lon="0.11361">
        <ele>3000</ele>
        <time>2015-05-30T06:46:04Z</time>
      </trkpt>
      <trkpt lat="42.83635" lon="0.11367">
        <ele>3003</ele>
        <time>2015-05-30T06:46:20Z</time>
      </trkpt>
      <trkpt lat="42.8363" lon="0.11376">
        <ele>3006</ele>
        <time>2015-05-30T06:46:34Z</time>
      </trkpt>
      <trkpt lat="42.83623" lon="0.1138">
        <ele>3009</ele>
        <time>2015-05-30T06:46:50Z</time>
      </trkpt>
      <trkpt lat="42.83618" lon="0.11386">
        <ele>3011</ele>
        <time>2015-05-30T06:47:04Z</time>
      </trkpt>
      <trkpt lat="42.83617" lon="0.11388">
        <ele>3011</ele>
        <time>2015-05-30T06:47:18Z</time>
      </trkpt>
      <trkpt lat="42.83615" lon="0.11395">
        <ele>3012</ele>
        <time>2015-05-30T06:47:33Z</time>
      </trkpt>
      <trkpt lat="42.8361" lon="0.11402">
        <ele>3014</ele>
        <time>2015-05-30T06:47:49Z</time>
      </trkpt>
      <trkpt lat="42.83608" lon="0.11398">
        <ele>3015</ele>
        <time>2015-05-30T06:48:16Z</time>
      </trkpt>
      <trkpt lat="42.83607" lon="0.11408">
        <ele>3017</ele>
        <time>2015-05-30T06:48:39Z</time>
      </trkpt>
      <trkpt lat="42.83608" lon="0.1142">
        <ele>3018</ele>
        <time>2015-05-30T06:48:53Z</time>
      </trkpt>
      <trkpt lat="42.83602" lon="0.1143">
        <ele>3021</ele>
        <time>2015-05-30T06:49:12Z</time>
      </trkpt>
      <trkpt lat="42.83597" lon="0.11439">
        <ele>3023</ele>
        <time>2015-05-30T06:49:29Z</time>
      </trkpt>
      <trkpt lat="42.83593" lon="0.11445">
        <ele>3026</ele>
        <time>2015-05-30T06:49:48Z</time>
      </trkpt>
      <trkpt lat="42.8359" lon="0.11451">
        <ele>3028</ele>
        <time>2015-05-30T06:50:05Z</time>
      </trkpt>
      <trkpt lat="42.83585" lon="0.11461">
        <ele>3031</ele>
        <time>2015-05-30T06:50:22Z</time>
      </trkpt>
      <trkpt lat="42.83582" lon="0.11467">
        <ele>3033</ele>
        <time>2015-05-30T06:50:36Z</time>
      </trkpt>
      <trkpt lat="42.83581" lon="0.1147">
        <ele>3034</ele>
        <time>2015-05-30T06:50:57Z</time>
      </trkpt>
      <trkpt lat="42.83579" lon="0.11479">
        <ele>3036</ele>
        <time>2015-05-30T06:51:13Z</time>
      </trkpt>
      <trkpt lat="42.83579" lon="0.1148">
        <ele>3036</ele>
        <time>2015-05-30T06:51:32Z</time>
      </trkpt>
      <trkpt lat="42.83574" lon="0.11485">
        <ele>3037</ele>
        <time>2015-05-30T06:51:52Z</time>
      </trkpt>
      <trkpt lat="42.83574" lon="0.11495">
        <ele>3039</ele>
        <time>2015-05-30T06:52:07Z</time>
      </trkpt>
      <trkpt lat="42.83573" lon="0.11498">
        <ele>3039</ele>
        <time>2015-05-30T06:52:28Z</time>
      </trkpt>
      <trkpt lat="42.83571" lon="0.11509">
        <ele>3042</ele>
        <time>2015-05-30T06:52:45Z</time>
      </trkpt>
      <trkpt lat="42.83569" lon="0.11521">
        <ele>3045</ele>
        <time>2015-05-30T06:53:03Z</time>
      </trkpt>
      <trkpt lat="42.83564" lon="0.11533">
        <ele>3047</ele>
        <time>2015-05-30T06:53:22Z</time>
      </trkpt>
      <trkpt lat="42.83561" lon="0.11542">
        <ele>3049</ele>
        <time>2015-05-30T06:53:37Z</time>
      </trkpt>
      <trkpt lat="42.83561" lon="0.11545">
        <ele>3050</ele>
        <time>2015-05-30T06:54:02Z</time>
      </trkpt>
      <trkpt lat="42.83561" lon="0.11545">
        <ele>3050</ele>
        <time>2015-05-30T06:54:24Z</time>
      </trkpt>
      <trkpt lat="42.8356" lon="0.11542">
        <ele>3050</ele>
        <time>2015-05-30T06:54:46Z</time>
      </trkpt>
      <trkpt lat="42.83561" lon="0.11541">
        <ele>3049</ele>
        <time>2015-05-30T06:55:06Z</time>
      </trkpt>
      <trkpt lat="42.83561" lon="0.11541">
        <ele>3049</ele>
        <time>2015-05-30T06:55:23Z</time>
      </trkpt>
      <trkpt lat="42.83559" lon="0.11542">
        <ele>3050</ele>
        <time>2015-05-30T06:55:49Z</time>
      </trkpt>
      <trkpt lat="42.83559" lon="0.11542">
        <ele>3050</ele>
        <time>2015-05-30T06:56:13Z</time>
      </trkpt>
      <trkpt lat="42.83559" lon="0.11541">
        <ele>3051</ele>
        <time>2015-05-30T06:56:33Z</time>
      </trkpt>
      <trkpt lat="42.83558" lon="0.11539">
        <ele>3050</ele>
        <time>2015-05-30T06:56:58Z</time>
      </trkpt>
      <trkpt lat="42.8356" lon="0.11541">
        <ele>3050</ele>
        <time>2015-05-30T06:57:22Z</time>
      </trkpt>
      <trkpt lat="42.83561" lon="0.1154">
        <ele>3050</ele>
        <time>2015-05-30T06:57:44Z</time>
      </trkpt>
      <trkpt lat="42.83561" lon="0.11541">
        <ele>3051</ele>
        <time>2015-05-30T06:58:04Z</time>
      </trkpt>
      <trkpt lat="42.83562" lon="0.11542">
        <ele>3050</ele>
        <time>2015-05-30T06:58:31Z</time>
      </trkpt>
      <trkpt lat="42.83561" lon="0.11542">
        <ele>3050</ele>
        <time>2015-05-30T06:58:56Z</time>
      </trkpt>
      <trkpt lat="42.83561" lon="0.11541">
        <ele>3051</ele>
        <time>2015-05-30T06:59:18Z</time>
      </trkpt>
      <trkpt lat="42.83561" lon="0.11542">
        <ele>3051</ele>
        <time>2015-05-30T06:59:38Z</time>
      </trkpt>
      <trkpt lat="42.8356" lon="0.11541">
        <ele>3052</ele>
        <time>2015-05-30T07:00:04Z</time>
      </trkpt>
      <trkpt lat="42.83559" lon="0.11541">
        <ele>3051</ele>
        <time>2015-05-30T07:00:27Z</time>
      </trkpt>
      <trkpt lat="42.8356" lon="0.1154">
        <ele>3051</ele>
        <time>2015-05-30T07:00:55Z</time>
      </trkpt>
      <trkpt lat="42.83559" lon="0.1154">
        <ele>3051</ele>
        <time>2015-05-30T07:01:17Z</time>
      </trkpt>
      <trkpt lat="42.8356" lon="0.11542">
        <ele>3052</ele>
        <time>2015-05-30T07:01:43Z</time>
      </trkpt>
      <trkpt lat="42.8356" lon="0.11543">
        <ele>3052</ele>
        <time>2015-05-30T07:02:04Z</time>
      </trkpt>
      <trkpt lat="42.83561" lon="0.11542">
        <ele>3051</ele>
        <time>2015-05-30T07:02:26Z</time>
      </trkpt>
      <trkpt lat="42.83561" lon="0.11541">
        <ele>3052</ele>
        <time>2015-05-30T07:02:47Z</time>
      </trkpt>
      <trkpt lat="42.83561" lon="0.11541">
        <ele>3052</ele>
        <time>2015-05-30T07:03:15Z</time>
      </trkpt>
      <trkpt lat="42.83561" lon="0.11542">
        <ele>3052</ele>
        <time>2015-05-30T07:03:33Z</time>
      </trkpt>
      <trkpt lat="42.83563" lon="0.11541">
        <ele>3052</ele>
        <time>2015-05-30T07:03:58Z</time>
      </trkpt>
      <trkpt lat="42.83561" lon="0.1154">
        <ele>3052</ele>
        <time>2015-05-30T07:04:17Z</time>
      </trkpt>
      <trkpt lat="42.83561" lon="0.11541">
        <ele>3052</ele>
        <time>2015-05-30T07:04:37Z</time>
      </trkpt>
      <trkpt lat="42.83561" lon="0.11542">
        <ele>3048</ele>
        <time>2015-05-30T07:04:59Z</time>
      </trkpt>
      <trkpt lat="42.83561" lon="0.11542">
        <ele>3057</ele>
        <time>2015-05-30T07:05:00Z</time>
      </trkpt>
      <trkpt lat="42.83561" lon="0.11542">
        <ele>3053</ele>
        <time>2015-05-30T07:05:01Z</time>
      </trkpt>
      <trkpt lat="42.83561" lon="0.11542">
        <ele>3052</ele>
        <time>2015-05-30T07:05:20Z</time>
      </trkpt>
      <trkpt lat="42.83561" lon="0.11542">
        <ele>3048</ele>
        <time>2015-05-30T07:05:30Z</time>
      </trkpt>
      <trkpt lat="42.83562" lon="0.11542">
        <ele>3056</ele>
        <time>2015-05-30T07:05:31Z</time>
      </trkpt>
      <trkpt lat="42.83562" lon="0.11542">
        <ele>3053</ele>
        <time>2015-05-30T07:05:32Z</time>
      </trkpt>
      <trkpt lat="42.83562" lon="0.11542">
        <ele>3053</ele>
        <time>2015-05-30T07:05:42Z</time>
      </trkpt>
      <trkpt lat="42.83561" lon="0.11542">
        <ele>3052</ele>
        <time>2015-05-30T07:06:12Z</time>
      </trkpt>
      <trkpt lat="42.83561" lon="0.11543">
        <ele>3053</ele>
        <time>2015-05-30T07:06:30Z</time>
      </trkpt>
      <trkpt lat="42.83562" lon="0.11544">
        <ele>3053</ele>
        <time>2015-05-30T07:06:51Z</time>
      </trkpt>
      <trkpt lat="42.83562" lon="0.11545">
        <ele>3054</ele>
        <time>2015-05-30T07:07:10Z</time>
      </trkpt>
      <trkpt lat="42.8356" lon="0.11545">
        <ele>3054</ele>
        <time>2015-05-30T07:07:26Z</time>
      </trkpt>
      <trkpt lat="42.83561" lon="0.11546">
        <ele>3055</ele>
        <time>2015-05-30T07:07:48Z</time>
      </trkpt>
      <trkpt lat="42.8356" lon="0.11545">
        <ele>3056</ele>
        <time>2015-05-30T07:08:15Z</time>
      </trkpt>
      <trkpt lat="42.83559" lon="0.11545">
        <ele>3056</ele>
        <time>2015-05-30T07:08:38Z</time>
      </trkpt>
      <trkpt lat="42.83558" lon="0.11545">
        <ele>3056</ele>
        <time>2015-05-30T07:09:06Z</time>
      </trkpt>
      <trkpt lat="42.83556" lon="0.11544">
        <ele>3056</ele>
        <time>2015-05-30T07:09:29Z</time>
      </trkpt>
      <trkpt lat="42.83556" lon="0.11545">
        <ele>3057</ele>
        <time>2015-05-30T07:09:53Z</time>
      </trkpt>
      <trkpt lat="42.83556" lon="0.11545">
        <ele>3058</ele>
        <time>2015-05-30T07:10:14Z</time>
      </trkpt>
      <trkpt lat="42.83557" lon="0.11544">
        <ele>3058</ele>
        <time>2015-05-30T07:10:41Z</time>
      </trkpt>
      <trkpt lat="42.83556" lon="0.11545">
        <ele>3058</ele>
        <time>2015-05-30T07:11:01Z</time>
      </trkpt>
      <trkpt lat="42.83555" lon="0.11545">
        <ele>3059</ele>
        <time>2015-05-30T07:11:23Z</time>
      </trkpt>
      <trkpt lat="42.83555" lon="0.11545">
        <ele>3059</ele>
        <time>2015-05-30T07:11:47Z</time>
      </trkpt>
      <trkpt lat="42.83553" lon="0.11544">
        <ele>3059</ele>
        <time>2015-05-30T07:12:06Z</time>
      </trkpt>
      <trkpt lat="42.83551" lon="0.11546">
        <ele>3060</ele>
        <time>2015-05-30T07:12:22Z</time>
      </trkpt>
      <trkpt lat="42.8355" lon="0.11546">
        <ele>3061</ele>
        <time>2015-05-30T07:12:37Z</time>
      </trkpt>
      <trkpt lat="42.8355" lon="0.11544">
        <ele>3062</ele>
        <time>2015-05-30T07:12:52Z</time>
      </trkpt>
      <trkpt lat="42.83548" lon="0.11544">
        <ele>3063</ele>
        <time>2015-05-30T07:13:10Z</time>
      </trkpt>
      <trkpt lat="42.83547" lon="0.11545">
        <ele>3065</ele>
        <time>2015-05-30T07:13:26Z</time>
      </trkpt>
      <trkpt lat="42.83545" lon="0.11545">
        <ele>3066</ele>
        <time>2015-05-30T07:13:43Z</time>
      </trkpt>
      <trkpt lat="42.83544" lon="0.11543">
        <ele>3068</ele>
        <time>2015-05-30T07:13:59Z</time>
      </trkpt>
      <trkpt lat="42.83543" lon="0.11543">
        <ele>3068</ele>
        <time>2015-05-30T07:14:18Z</time>
      </trkpt>
      <trkpt lat="42.83541" lon="0.11541">
        <ele>3069</ele>
        <time>2015-05-30T07:14:31Z</time>
      </trkpt>
      <trkpt lat="42.8354" lon="0.11538">
        <ele>3072</ele>
        <time>2015-05-30T07:14:47Z</time>
      </trkpt>
      <trkpt lat="42.83536" lon="0.11535">
        <ele>3072</ele>
        <time>2015-05-30T07:15:01Z</time>
      </trkpt>
      <trkpt lat="42.83535" lon="0.11534">
        <ele>3073</ele>
        <time>2015-05-30T07:15:13Z</time>
      </trkpt>
      <trkpt lat="42.83534" lon="0.11534">
        <ele>3075</ele>
        <time>2015-05-30T07:15:29Z</time>
      </trkpt>
      <trkpt lat="42.83532" lon="0.11531">
        <ele>3076</ele>
        <time>2015-05-30T07:15:43Z</time>
      </trkpt>
      <trkpt lat="42.83529" lon="0.11529">
        <ele>3077</ele>
        <time>2015-05-30T07:15:57Z</time>
      </trkpt>
      <trkpt lat="42.83529" lon="0.11528">
        <ele>3077</ele>
        <time>2015-05-30T07:16:15Z</time>
      </trkpt>
      <trkpt lat="42.8353" lon="0.11525">
        <ele>3079</ele>
        <time>2015-05-30T07:16:29Z</time>
      </trkpt>
      <trkpt lat="42.83532" lon="0.11526">
        <ele>3080</ele>
        <time>2015-05-30T07:16:44Z</time>
      </trkpt>
      <trkpt lat="42.83534" lon="0.11526">
        <ele>3081</ele>
        <time>2015-05-30T07:17:00Z</time>
      </trkpt>
      <trkpt lat="42.83536" lon="0.11525">
        <ele>3082</ele>
        <time>2015-05-30T07:17:16Z</time>
      </trkpt>
      <trkpt lat="42.83537" lon="0.11523">
        <ele>3083</ele>
        <time>2015-05-30T07:17:31Z</time>
      </trkpt>
      <trkpt lat="42.83539" lon="0.11523">
        <ele>3085</ele>
        <time>2015-05-30T07:17:50Z</time>
      </trkpt>
      <trkpt lat="42.83538" lon="0.11519">
        <ele>3086</ele>
        <time>2015-05-30T07:18:05Z</time>
      </trkpt>
      <trkpt lat="42.83538" lon="0.11518">
        <ele>3088</ele>
        <time>2015-05-30T07:18:17Z</time>
      </trkpt>
      <trkpt lat="42.83538" lon="0.11515">
        <ele>3089</ele>
        <time>2015-05-30T07:18:30Z</time>
      </trkpt>
      <trkpt lat="42.83539" lon="0.11513">
        <ele>3089</ele>
        <time>2015-05-30T07:18:48Z</time>
      </trkpt>
      <trkpt lat="42.83539" lon="0.11511">
        <ele>3088</ele>
        <time>2015-05-30T07:19:07Z</time>
      </trkpt>
      <trkpt lat="42.8354" lon="0.11507">
        <ele>3088</ele>
        <time>2015-05-30T07:19:27Z</time>
      </trkpt>
      <trkpt lat="42.83538" lon="0.11507">
        <ele>3088</ele>
        <time>2015-05-30T07:19:56Z</time>
      </trkpt>
      <trkpt lat="42.83538" lon="0.11507">
        <ele>3088</ele>
        <time>2015-05-30T07:20:23Z</time>
      </trkpt>
      <trkpt lat="42.83538" lon="0.11508">
        <ele>3087</ele>
        <time>2015-05-30T07:20:36Z</time>
      </trkpt>
      <trkpt lat="42.83539" lon="0.11507">
        <ele>3088</ele>
        <time>2015-05-30T07:20:59Z</time>
      </trkpt>
      <trkpt lat="42.8354" lon="0.11508">
        <ele>3087</ele>
        <time>2015-05-30T07:21:27Z</time>
      </trkpt>
      <trkpt lat="42.83539" lon="0.1151">
        <ele>3088</ele>
        <time>2015-05-30T07:21:49Z</time>
      </trkpt>
      <trkpt lat="42.83538" lon="0.11515">
        <ele>3088</ele>
        <time>2015-05-30T07:22:04Z</time>
      </trkpt>
      <trkpt lat="42.83538" lon="0.11516">
        <ele>3088</ele>
        <time>2015-05-30T07:22:27Z</time>
      </trkpt>
      <trkpt lat="42.83538" lon="0.11513">
        <ele>3088</ele>
        <time>2015-05-30T07:22:52Z</time>
      </trkpt>
      <trkpt lat="42.83539" lon="0.11513">
        <ele>3089</ele>
        <time>2015-05-30T07:23:17Z</time>
      </trkpt>
      <trkpt lat="42.83538" lon="0.11513">
        <ele>3089</ele>
        <time>2015-05-30T07:23:42Z</time>
      </trkpt>
      <trkpt lat="42.83541" lon="0.11508">
        <ele>3089</ele>
        <time>2015-05-30T07:23:59Z</time>
      </trkpt>
      <trkpt lat="42.8354" lon="0.11508">
        <ele>3089</ele>
        <time>2015-05-30T07:24:24Z</time>
      </trkpt>
      <trkpt lat="42.8354" lon="0.11507">
        <ele>3088</ele>
        <time>2015-05-30T07:24:48Z</time>
      </trkpt>
      <trkpt lat="42.83541" lon="0.11509">
        <ele>3088</ele>
        <time>2015-05-30T07:25:07Z</time>
      </trkpt>
      <trkpt lat="42.8354" lon="0.11508">
        <ele>3085</ele>
        <time>2015-05-30T07:25:22Z</time>
      </trkpt>
      <trkpt lat="42.8354" lon="0.11508">
        <ele>3089</ele>
        <time>2015-05-30T07:25:23Z</time>
      </trkpt>
      <trkpt lat="42.8354" lon="0.11508">
        <ele>3083</ele>
        <time>2015-05-30T07:25:24Z</time>
      </trkpt>
      <trkpt lat="42.83539" lon="0.11509">
        <ele>3092</ele>
        <time>2015-05-30T07:25:25Z</time>
      </trkpt>
      <trkpt lat="42.83539" lon="0.11509">
        <ele>3089</ele>
        <time>2015-05-30T07:25:26Z</time>
      </trkpt>
      <trkpt lat="42.83539" lon="0.11509">
        <ele>3088</ele>
        <time>2015-05-30T07:25:28Z</time>
      </trkpt>
      <trkpt lat="42.83539" lon="0.11508">
        <ele>3085</ele>
        <time>2015-05-30T07:25:35Z</time>
      </trkpt>
      <trkpt lat="42.83539" lon="0.11508">
        <ele>3089</ele>
        <time>2015-05-30T07:25:37Z</time>
      </trkpt>
      <trkpt lat="42.83539" lon="0.11508">
        <ele>3089</ele>
        <time>2015-05-30T07:25:44Z</time>
      </trkpt>
      <trkpt lat="42.83539" lon="0.11508">
        <ele>3088</ele>
        <time>2015-05-30T07:25:46Z</time>
      </trkpt>
      <trkpt lat="42.8354" lon="0.11508">
        <ele>3088</ele>
        <time>2015-05-30T07:26:09Z</time>
      </trkpt>
      <trkpt lat="42.83539" lon="0.11509">
        <ele>3089</ele>
        <time>2015-05-30T07:26:37Z</time>
      </trkpt>
      <trkpt lat="42.8354" lon="0.11509">
        <ele>3088</ele>
        <time>2015-05-30T07:27:07Z</time>
      </trkpt>
      <trkpt lat="42.83539" lon="0.11509">
        <ele>3087</ele>
        <time>2015-05-30T07:27:30Z</time>
      </trkpt>
      <trkpt lat="42.83541" lon="0.11509">
        <ele>3088</ele>
        <time>2015-05-30T07:27:56Z</time>
      </trkpt>
      <trkpt lat="42.83541" lon="0.11509">
        <ele>3088</ele>
        <time>2015-05-30T07:28:27Z</time>
      </trkpt>
      <trkpt lat="42.83542" lon="0.11509">
        <ele>3088</ele>
        <time>2015-05-30T07:29:04Z</time>
      </trkpt>
      <trkpt lat="42.83542" lon="0.11509">
        <ele>3088</ele>
        <time>2015-05-30T07:29:38Z</time>
      </trkpt>
      <trkpt lat="42.83541" lon="0.11509">
        <ele>3087</ele>
        <time>2015-05-30T07:30:08Z</time>
      </trkpt>
      <trkpt lat="42.8354" lon="0.1151">
        <ele>3088</ele>
        <time>2015-05-30T07:30:43Z</time>
      </trkpt>
      <trkpt lat="42.83541" lon="0.11509">
        <ele>3088</ele>
        <time>2015-05-30T07:31:16Z</time>
      </trkpt>
      <trkpt lat="42.83541" lon="0.11509">
        <ele>3088</ele>
        <time>2015-05-30T07:31:48Z</time>
      </trkpt>
      <trkpt lat="42.83541" lon="0.11509">
        <ele>3088</ele>
        <time>2015-05-30T07:32:23Z</time>
      </trkpt>
      <trkpt lat="42.83539" lon="0.11508">
        <ele>3088</ele>
        <time>2015-05-30T07:32:50Z</time>
      </trkpt>
      <trkpt lat="42.83539" lon="0.11508">
        <ele>3089</ele>
        <time>2015-05-30T07:33:17Z</time>
      </trkpt>
      <trkpt lat="42.83539" lon="0.11509">
        <ele>3089</ele>
        <time>2015-05-30T07:33:52Z</time>
      </trkpt>
      <trkpt lat="42.83539" lon="0.11509">
        <ele>3088</ele>
        <time>2015-05-30T07:34:27Z</time>
      </trkpt>
      <trkpt lat="42.8354" lon="0.11509">
        <ele>3088</ele>
        <time>2015-05-30T07:34:53Z</time>
      </trkpt>
      <trkpt lat="42.83539" lon="0.11509">
        <ele>3089</ele>
        <time>2015-05-30T07:35:16Z</time>
      </trkpt>
      <trkpt lat="42.83539" lon="0.11509">
        <ele>3089</ele>
        <time>2015-05-30T07:35:58Z</time>
      </trkpt>
      <trkpt lat="42.83539" lon="0.11509">
        <ele>3088</ele>
        <time>2015-05-30T07:36:27Z</time>
      </trkpt>
      <trkpt lat="42.83538" lon="0.11509">
        <ele>3088</ele>
        <time>2015-05-30T07:36:56Z</time>
      </trkpt>
      <trkpt lat="42.83539" lon="0.11509">
        <ele>3089</ele>
        <time>2015-05-30T07:37:28Z</time>
      </trkpt>
      <trkpt lat="42.8354" lon="0.1151">
        <ele>3088</ele>
        <time>2015-05-30T07:37:56Z</time>
      </trkpt>
      <trkpt lat="42.83539" lon="0.11509">
        <ele>3089</ele>
        <time>2015-05-30T07:38:32Z</time>
      </trkpt>
      <trkpt lat="42.83539" lon="0.11509">
        <ele>3089</ele>
        <time>2015-05-30T07:38:56Z</time>
      </trkpt>
      <trkpt lat="42.8354" lon="0.11509">
        <ele>3089</ele>
        <time>2015-05-30T07:39:28Z</time>
      </trkpt>
      <trkpt lat="42.83542" lon="0.11509">
        <ele>3089</ele>
        <time>2015-05-30T07:39:59Z</time>
      </trkpt>
      <trkpt lat="42.83542" lon="0.1151">
        <ele>3089</ele>
        <time>2015-05-30T07:40:26Z</time>
      </trkpt>
      <trkpt lat="42.83543" lon="0.1151">
        <ele>3089</ele>
        <time>2015-05-30T07:40:57Z</time>
      </trkpt>
      <trkpt lat="42.83542" lon="0.11509">
        <ele>3088</ele>
        <time>2015-05-30T07:41:31Z</time>
      </trkpt>
      <trkpt lat="42.83542" lon="0.1151">
        <ele>3089</ele>
        <time>2015-05-30T07:42:03Z</time>
      </trkpt>
      <trkpt lat="42.83542" lon="0.11509">
        <ele>3089</ele>
        <time>2015-05-30T07:42:35Z</time>
      </trkpt>
      <trkpt lat="42.83542" lon="0.1151">
        <ele>3089</ele>
        <time>2015-05-30T07:43:09Z</time>
      </trkpt>
      <trkpt lat="42.83542" lon="0.11509">
        <ele>3089</ele>
        <time>2015-05-30T07:43:37Z</time>
      </trkpt>
      <trkpt lat="42.83543" lon="0.11509">
        <ele>3089</ele>
        <time>2015-05-30T07:44:07Z</time>
      </trkpt>
      <trkpt lat="42.83541" lon="0.1151">
        <ele>3089</ele>
        <time>2015-05-30T07:44:37Z</time>
      </trkpt>
      <trkpt lat="42.83542" lon="0.11509">
        <ele>3090</ele>
        <time>2015-05-30T07:44:57Z</time>
      </trkpt>
      <trkpt lat="42.83541" lon="0.11509">
        <ele>3090</ele>
        <time>2015-05-30T07:45:17Z</time>
      </trkpt>
      <trkpt lat="42.8354" lon="0.11509">
        <ele>3085</ele>
        <time>2015-05-30T07:45:29Z</time>
      </trkpt>
      <trkpt lat="42.8354" lon="0.11508">
        <ele>3094</ele>
        <time>2015-05-30T07:45:30Z</time>
      </trkpt>
      <trkpt lat="42.8354" lon="0.11508">
        <ele>3091</ele>
        <time>2015-05-30T07:45:31Z</time>
      </trkpt>
      <trkpt lat="42.83538" lon="0.11511">
        <ele>3090</ele>
        <time>2015-05-30T07:45:58Z</time>
      </trkpt>
      <trkpt lat="42.83537" lon="0.11509">
        <ele>3090</ele>
        <time>2015-05-30T07:46:20Z</time>
      </trkpt>
      <trkpt lat="42.83538" lon="0.11511">
        <ele>3090</ele>
        <time>2015-05-30T07:46:33Z</time>
      </trkpt>
      <trkpt lat="42.83538" lon="0.11513">
        <ele>3091</ele>
        <time>2015-05-30T07:46:39Z</time>
      </trkpt>
      <trkpt lat="42.83537" lon="0.11516">
        <ele>3091</ele>
        <time>2015-05-30T07:46:52Z</time>
      </trkpt>
      <trkpt lat="42.83538" lon="0.11519">
        <ele>3090</ele>
        <time>2015-05-30T07:47:08Z</time>
      </trkpt>
      <trkpt lat="42.8354" lon="0.11519">
        <ele>3090</ele>
        <time>2015-05-30T07:47:26Z</time>
      </trkpt>
      <trkpt lat="42.8354" lon="0.11523">
        <ele>3089</ele>
        <time>2015-05-30T07:47:47Z</time>
      </trkpt>
      <trkpt lat="42.83538" lon="0.11525">
        <ele>3088</ele>
        <time>2015-05-30T07:48:03Z</time>
      </trkpt>
      <trkpt lat="42.83536" lon="0.11525">
        <ele>3086</ele>
        <time>2015-05-30T07:48:18Z</time>
      </trkpt>
      <trkpt lat="42.83536" lon="0.11523">
        <ele>3086</ele>
        <time>2015-05-30T07:48:38Z</time>
      </trkpt>
      <trkpt lat="42.83534" lon="0.11524">
        <ele>3086</ele>
        <time>2015-05-30T07:48:58Z</time>
      </trkpt>
      <trkpt lat="42.83534" lon="0.11526">
        <ele>3085</ele>
        <time>2015-05-30T07:49:18Z</time>
      </trkpt>
      <trkpt lat="42.83534" lon="0.11527">
        <ele>3083</ele>
        <time>2015-05-30T07:49:33Z</time>
      </trkpt>
      <trkpt lat="42.83533" lon="0.11528">
        <ele>3085</ele>
        <time>2015-05-30T07:49:35Z</time>
      </trkpt>
      <trkpt lat="42.83533" lon="0.11528">
        <ele>3084</ele>
        <time>2015-05-30T07:49:54Z</time>
      </trkpt>
      <trkpt lat="42.83532" lon="0.11531">
        <ele>3083</ele>
        <time>2015-05-30T07:50:11Z</time>
      </trkpt>
      <trkpt lat="42.83532" lon="0.11532">
        <ele>3081</ele>
        <time>2015-05-30T07:50:27Z</time>
      </trkpt>
      <trkpt lat="42.83533" lon="0.11535">
        <ele>3078</ele>
        <time>2015-05-30T07:50:50Z</time>
      </trkpt>
      <trkpt lat="42.83532" lon="0.11536">
        <ele>3078</ele>
        <time>2015-05-30T07:50:55Z</time>
      </trkpt>
      <trkpt lat="42.83532" lon="0.11536">
        <ele>3080</ele>
        <time>2015-05-30T07:50:58Z</time>
      </trkpt>
      <trkpt lat="42.83534" lon="0.11537">
        <ele>3078</ele>
        <time>2015-05-30T07:51:13Z</time>
      </trkpt>
      <trkpt lat="42.83536" lon="0.11539">
        <ele>3077</ele>
        <time>2015-05-30T07:51:26Z</time>
      </trkpt>
      <trkpt lat="42.83539" lon="0.1154">
        <ele>3075</ele>
        <time>2015-05-30T07:51:42Z</time>
      </trkpt>
      <trkpt lat="42.8354" lon="0.11539">
        <ele>3074</ele>
        <time>2015-05-30T07:51:58Z</time>
      </trkpt>
      <trkpt lat="42.8354" lon="0.1154">
        <ele>3074</ele>
        <time>2015-05-30T07:52:15Z</time>
      </trkpt>
      <trkpt lat="42.83539" lon="0.11539">
        <ele>3074</ele>
        <time>2015-05-30T07:52:53Z</time>
      </trkpt>
      <trkpt lat="42.83538" lon="0.11541">
        <ele>3073</ele>
        <time>2015-05-30T07:53:28Z</time>
      </trkpt>
      <trkpt lat="42.83538" lon="0.11542">
        <ele>3074</ele>
        <time>2015-05-30T07:53:44Z</time>
      </trkpt>
      <trkpt lat="42.83539" lon="0.11542">
        <ele>3074</ele>
        <time>2015-05-30T07:54:04Z</time>
      </trkpt>
      <trkpt lat="42.83539" lon="0.11543">
        <ele>3073</ele>
        <time>2015-05-30T07:54:21Z</time>
      </trkpt>
      <trkpt lat="42.83541" lon="0.11545">
        <ele>3072</ele>
        <time>2015-05-30T07:54:36Z</time>
      </trkpt>
      <trkpt lat="42.83543" lon="0.11542">
        <ele>3071</ele>
        <time>2015-05-30T07:54:57Z</time>
      </trkpt>
      <trkpt lat="42.83545" lon="0.11542">
        <ele>3071</ele>
        <time>2015-05-30T07:55:14Z</time>
      </trkpt>
      <trkpt lat="42.83546" lon="0.11542">
        <ele>3069</ele>
        <time>2015-05-30T07:55:27Z</time>
      </trkpt>
      <trkpt lat="42.83546" lon="0.11546">
        <ele>3068</ele>
        <time>2015-05-30T07:55:44Z</time>
      </trkpt>
      <trkpt lat="42.83548" lon="0.11546">
        <ele>3068</ele>
        <time>2015-05-30T07:55:58Z</time>
      </trkpt>
      <trkpt lat="42.83548" lon="0.11547">
        <ele>3067</ele>
        <time>2015-05-30T07:56:20Z</time>
      </trkpt>
      <trkpt lat="42.83549" lon="0.11545">
        <ele>3066</ele>
        <time>2015-05-30T07:56:41Z</time>
      </trkpt>
      <trkpt lat="42.83548" lon="0.11546">
        <ele>3065</ele>
        <time>2015-05-30T07:57:03Z</time>
      </trkpt>
      <trkpt lat="42.8355" lon="0.11544">
        <ele>3064</ele>
        <time>2015-05-30T07:57:24Z</time>
      </trkpt>
      <trkpt lat="42.83549" lon="0.11544">
        <ele>3063</ele>
        <time>2015-05-30T07:57:48Z</time>
      </trkpt>
      <trkpt lat="42.83549" lon="0.11545">
        <ele>3063</ele>
        <time>2015-05-30T07:58:07Z</time>
      </trkpt>
      <trkpt lat="42.83553" lon="0.11546">
        <ele>3063</ele>
        <time>2015-05-30T07:58:30Z</time>
      </trkpt>
      <trkpt lat="42.83554" lon="0.11545">
        <ele>3062</ele>
        <time>2015-05-30T07:58:49Z</time>
      </trkpt>
      <trkpt lat="42.83554" lon="0.11544">
        <ele>3062</ele>
        <time>2015-05-30T07:59:11Z</time>
      </trkpt>
      <trkpt lat="42.83554" lon="0.11542">
        <ele>3061</ele>
        <time>2015-05-30T07:59:34Z</time>
      </trkpt>
      <trkpt lat="42.83557" lon="0.11543">
        <ele>3061</ele>
        <time>2015-05-30T07:59:57Z</time>
      </trkpt>
      <trkpt lat="42.83556" lon="0.11544">
        <ele>3060</ele>
        <time>2015-05-30T08:00:22Z</time>
      </trkpt>
      <trkpt lat="42.83559" lon="0.11543">
        <ele>3060</ele>
        <time>2015-05-30T08:00:45Z</time>
      </trkpt>
      <trkpt lat="42.83559" lon="0.11542">
        <ele>3059</ele>
        <time>2015-05-30T08:01:12Z</time>
      </trkpt>
      <trkpt lat="42.8356" lon="0.11543">
        <ele>3059</ele>
        <time>2015-05-30T08:01:33Z</time>
      </trkpt>
      <trkpt lat="42.83561" lon="0.11541">
        <ele>3059</ele>
        <time>2015-05-30T08:01:56Z</time>
      </trkpt>
      <trkpt lat="42.83564" lon="0.11542">
        <ele>3059</ele>
        <time>2015-05-30T08:02:16Z</time>
      </trkpt>
      <trkpt lat="42.83564" lon="0.11541">
        <ele>3058</ele>
        <time>2015-05-30T08:02:39Z</time>
      </trkpt>
      <trkpt lat="42.83561" lon="0.11539">
        <ele>3057</ele>
        <time>2015-05-30T08:02:58Z</time>
      </trkpt>
      <trkpt lat="42.83561" lon="0.11539">
        <ele>3057</ele>
        <time>2015-05-30T08:03:18Z</time>
      </trkpt>
      <trkpt lat="42.83561" lon="0.11539">
        <ele>3057</ele>
        <time>2015-05-30T08:03:43Z</time>
      </trkpt>
      <trkpt lat="42.83562" lon="0.11538">
        <ele>3057</ele>
        <time>2015-05-30T08:04:06Z</time>
      </trkpt>
      <trkpt lat="42.83562" lon="0.11538">
        <ele>3057</ele>
        <time>2015-05-30T08:04:27Z</time>
      </trkpt>
      <trkpt lat="42.83564" lon="0.11539">
        <ele>3058</ele>
        <time>2015-05-30T08:04:44Z</time>
      </trkpt>
      <trkpt lat="42.83564" lon="0.11538">
        <ele>3057</ele>
        <time>2015-05-30T08:05:04Z</time>
      </trkpt>
      <trkpt lat="42.83562" lon="0.11537">
        <ele>3057</ele>
        <time>2015-05-30T08:05:33Z</time>
      </trkpt>
      <trkpt lat="42.8356" lon="0.11539">
        <ele>3057</ele>
        <time>2015-05-30T08:06:00Z</time>
      </trkpt>
      <trkpt lat="42.83563" lon="0.11538">
        <ele>3057</ele>
        <time>2015-05-30T08:06:29Z</time>
      </trkpt>
      <trkpt lat="42.83564" lon="0.11539">
        <ele>3057</ele>
        <time>2015-05-30T08:06:55Z</time>
      </trkpt>
      <trkpt lat="42.83561" lon="0.11538">
        <ele>3058</ele>
        <time>2015-05-30T08:07:15Z</time>
      </trkpt>
      <trkpt lat="42.83564" lon="0.11539">
        <ele>3057</ele>
        <time>2015-05-30T08:07:41Z</time>
      </trkpt>
      <trkpt lat="42.83564" lon="0.11536">
        <ele>3058</ele>
        <time>2015-05-30T08:08:05Z</time>
      </trkpt>
      <trkpt lat="42.83563" lon="0.1154">
        <ele>3058</ele>
        <time>2015-05-30T08:08:26Z</time>
      </trkpt>
      <trkpt lat="42.83561" lon="0.11542">
        <ele>3058</ele>
        <time>2015-05-30T08:08:51Z</time>
      </trkpt>
      <trkpt lat="42.83561" lon="0.1154">
        <ele>3058</ele>
        <time>2015-05-30T08:09:14Z</time>
      </trkpt>
      <trkpt lat="42.83561" lon="0.1154">
        <ele>3058</ele>
        <time>2015-05-30T08:09:38Z</time>
      </trkpt>
      <trkpt lat="42.8356" lon="0.11538">
        <ele>3058</ele>
        <time>2015-05-30T08:10:00Z</time>
      </trkpt>
      <trkpt lat="42.83559" lon="0.11536">
        <ele>3058</ele>
        <time>2015-05-30T08:10:25Z</time>
      </trkpt>
      <trkpt lat="42.8356" lon="0.11538">
        <ele>3058</ele>
        <time>2015-05-30T08:10:44Z</time>
      </trkpt>
      <trkpt lat="42.83559" lon="0.11536">
        <ele>3058</ele>
        <time>2015-05-30T08:11:06Z</time>
      </trkpt>
      <trkpt lat="42.83559" lon="0.11538">
        <ele>3058</ele>
        <time>2015-05-30T08:11:27Z</time>
      </trkpt>
      <trkpt lat="42.83558" lon="0.11538">
        <ele>3058</ele>
        <time>2015-05-30T08:11:55Z</time>
      </trkpt>
      <trkpt lat="42.8356" lon="0.11539">
        <ele>3058</ele>
        <time>2015-05-30T08:12:22Z</time>
      </trkpt>
      <trkpt lat="42.83557" lon="0.11539">
        <ele>3058</ele>
        <time>2015-05-30T08:12:47Z</time>
      </trkpt>
      <trkpt lat="42.83558" lon="0.11537">
        <ele>3058</ele>
        <time>2015-05-30T08:13:10Z</time>
      </trkpt>
      <trkpt lat="42.8356" lon="0.11542">
        <ele>3058</ele>
        <time>2015-05-30T08:13:34Z</time>
      </trkpt>
      <trkpt lat="42.83562" lon="0.1154">
        <ele>3054</ele>
        <time>2015-05-30T08:13:42Z</time>
      </trkpt>
      <trkpt lat="42.83562" lon="0.11541">
        <ele>3051</ele>
        <time>2015-05-30T08:13:43Z</time>
      </trkpt>
      <trkpt lat="42.83562" lon="0.11541">
        <ele>3055</ele>
        <time>2015-05-30T08:13:44Z</time>
      </trkpt>
      <trkpt lat="42.83563" lon="0.11541">
        <ele>3059</ele>
        <time>2015-05-30T08:13:45Z</time>
      </trkpt>
      <trkpt lat="42.83563" lon="0.1154">
        <ele>3058</ele>
        <time>2015-05-30T08:13:46Z</time>
      </trkpt>
      <trkpt lat="42.83563" lon="0.1154">
        <ele>3061</ele>
        <time>2015-05-30T08:13:48Z</time>
      </trkpt>
      <trkpt lat="42.83561" lon="0.1154">
        <ele>3058</ele>
        <time>2015-05-30T08:13:51Z</time>
      </trkpt>
      <trkpt lat="42.83559" lon="0.11541">
        <ele>3058</ele>
        <time>2015-05-30T08:13:52Z</time>
      </trkpt>
      <trkpt lat="42.83558" lon="0.11538">
        <ele>3057</ele>
        <time>2015-05-30T08:14:18Z</time>
      </trkpt>
      <trkpt lat="42.83563" lon="0.11536">
        <ele>3057</ele>
        <time>2015-05-30T08:14:38Z</time>
      </trkpt>
      <trkpt lat="42.83565" lon="0.11528">
        <ele>3055</ele>
        <time>2015-05-30T08:14:42Z</time>
      </trkpt>
      <trkpt lat="42.83567" lon="0.11512">
        <ele>3052</ele>
        <time>2015-05-30T08:14:56Z</time>
      </trkpt>
      <trkpt lat="42.83573" lon="0.11498">
        <ele>3049</ele>
        <time>2015-05-30T08:15:04Z</time>
      </trkpt>
      <trkpt lat="42.83574" lon="0.11495">
        <ele>3048</ele>
        <time>2015-05-30T08:15:05Z</time>
      </trkpt>
      <trkpt lat="42.83577" lon="0.11487">
        <ele>3047</ele>
        <time>2015-05-30T08:15:08Z</time>
      </trkpt>
      <trkpt lat="42.83582" lon="0.11475">
        <ele>3043</ele>
        <time>2015-05-30T08:15:14Z</time>
      </trkpt>
      <trkpt lat="42.83585" lon="0.11467">
        <ele>3041</ele>
        <time>2015-05-30T08:15:17Z</time>
      </trkpt>
      <trkpt lat="42.8359" lon="0.1145">
        <ele>3038</ele>
        <time>2015-05-30T08:15:22Z</time>
      </trkpt>
      <trkpt lat="42.83594" lon="0.11441">
        <ele>3035</ele>
        <time>2015-05-30T08:15:25Z</time>
      </trkpt>
      <trkpt lat="42.836" lon="0.11428">
        <ele>3031</ele>
        <time>2015-05-30T08:15:29Z</time>
      </trkpt>
      <trkpt lat="42.83603" lon="0.11419">
        <ele>3028</ele>
        <time>2015-05-30T08:15:32Z</time>
      </trkpt>
      <trkpt lat="42.83604" lon="0.11418">
        <ele>3028</ele>
        <time>2015-05-30T08:15:33Z</time>
      </trkpt>
      <trkpt lat="42.83603" lon="0.11418">
        <ele>3028</ele>
        <time>2015-05-30T08:15:42Z</time>
      </trkpt>
      <trkpt lat="42.8361" lon="0.11403">
        <ele>3024</ele>
        <time>2015-05-30T08:15:48Z</time>
      </trkpt>
      <trkpt lat="42.83612" lon="0.114">
        <ele>3023</ele>
        <time>2015-05-30T08:15:52Z</time>
      </trkpt>
      <trkpt lat="42.83613" lon="0.11401">
        <ele>3023</ele>
        <time>2015-05-30T08:16:03Z</time>
      </trkpt>
      <trkpt lat="42.83618" lon="0.11396">
        <ele>3022</ele>
        <time>2015-05-30T08:16:07Z</time>
      </trkpt>
      <trkpt lat="42.83623" lon="0.11391">
        <ele>3018</ele>
        <time>2015-05-30T08:16:10Z</time>
      </trkpt>
      <trkpt lat="42.8363" lon="0.11379">
        <ele>3013</ele>
        <time>2015-05-30T08:16:15Z</time>
      </trkpt>
      <trkpt lat="42.83639" lon="0.11373">
        <ele>3010</ele>
        <time>2015-05-30T08:16:21Z</time>
      </trkpt>
      <trkpt lat="42.83645" lon="0.11366">
        <ele>3007</ele>
        <time>2015-05-30T08:16:25Z</time>
      </trkpt>
      <trkpt lat="42.83653" lon="0.11379">
        <ele>3002</ele>
        <time>2015-05-30T08:16:29Z</time>
      </trkpt>
      <trkpt lat="42.83659" lon="0.1138">
        <ele>2998</ele>
        <time>2015-05-30T08:16:32Z</time>
      </trkpt>
      <trkpt lat="42.83671" lon="0.11366">
        <ele>2993</ele>
        <time>2015-05-30T08:16:36Z</time>
      </trkpt>
      <trkpt lat="42.83681" lon="0.11369">
        <ele>2989</ele>
        <time>2015-05-30T08:16:39Z</time>
      </trkpt>
      <trkpt lat="42.8368" lon="0.11375">
        <ele>2987</ele>
        <time>2015-05-30T08:16:42Z</time>
      </trkpt>
      <trkpt lat="42.83675" lon="0.11375">
        <ele>2988</ele>
        <time>2015-05-30T08:16:57Z</time>
      </trkpt>
      <trkpt lat="42.83687" lon="0.11371">
        <ele>2983</ele>
        <time>2015-05-30T08:17:01Z</time>
      </trkpt>
      <trkpt lat="42.83699" lon="0.11362">
        <ele>2979</ele>
        <time>2015-05-30T08:17:04Z</time>
      </trkpt>
      <trkpt lat="42.83704" lon="0.1136">
        <ele>2977</ele>
        <time>2015-05-30T08:17:06Z</time>
      </trkpt>
      <trkpt lat="42.83705" lon="0.11367">
        <ele>2977</ele>
        <time>2015-05-30T08:17:16Z</time>
      </trkpt>
      <trkpt lat="42.83702" lon="0.11381">
        <ele>2975</ele>
        <time>2015-05-30T08:17:20Z</time>
      </trkpt>
      <trkpt lat="42.83696" lon="0.11402">
        <ele>2972</ele>
        <time>2015-05-30T08:17:24Z</time>
      </trkpt>
      <trkpt lat="42.83694" lon="0.11421">
        <ele>2969</ele>
        <time>2015-05-30T08:17:28Z</time>
      </trkpt>
      <trkpt lat="42.83694" lon="0.11433">
        <ele>2966</ele>
        <time>2015-05-30T08:17:31Z</time>
      </trkpt>
      <trkpt lat="42.837" lon="0.11454">
        <ele>2961</ele>
        <time>2015-05-30T08:17:35Z</time>
      </trkpt>
      <trkpt lat="42.837" lon="0.11459">
        <ele>2960</ele>
        <time>2015-05-30T08:17:36Z</time>
      </trkpt>
      <trkpt lat="42.83701" lon="0.11477">
        <ele>2957</ele>
        <time>2015-05-30T08:17:40Z</time>
      </trkpt>
      <trkpt lat="42.83711" lon="0.11481">
        <ele>2952</ele>
        <time>2015-05-30T08:17:44Z</time>
      </trkpt>
      <trkpt lat="42.83714" lon="0.11476">
        <ele>2949</ele>
        <time>2015-05-30T08:17:45Z</time>
      </trkpt>
      <trkpt lat="42.83729" lon="0.11446">
        <ele>2945</ele>
        <time>2015-05-30T08:17:50Z</time>
      </trkpt>
      <trkpt lat="42.83733" lon="0.11435">
        <ele>2944</ele>
        <time>2015-05-30T08:17:52Z</time>
      </trkpt>
      <trkpt lat="42.83741" lon="0.11419">
        <ele>2941</ele>
        <time>2015-05-30T08:17:56Z</time>
      </trkpt>
      <trkpt lat="42.83748" lon="0.11405">
        <ele>2939</ele>
        <time>2015-05-30T08:17:59Z</time>
      </trkpt>
      <trkpt lat="42.83752" lon="0.11397">
        <ele>2937</ele>
        <time>2015-05-30T08:18:01Z</time>
      </trkpt>
      <trkpt lat="42.83755" lon="0.11382">
        <ele>2936</ele>
        <time>2015-05-30T08:18:09Z</time>
      </trkpt>
      <trkpt lat="42.83756" lon="0.11381">
        <ele>2936</ele>
        <time>2015-05-30T08:18:14Z</time>
      </trkpt>
      <trkpt lat="42.83763" lon="0.11373">
        <ele>2935</ele>
        <time>2015-05-30T08:18:18Z</time>
      </trkpt>
      <trkpt lat="42.83777" lon="0.11359">
        <ele>2930</ele>
        <time>2015-05-30T08:18:22Z</time>
      </trkpt>
      <trkpt lat="42.83781" lon="0.11355">
        <ele>2928</ele>
        <time>2015-05-30T08:18:23Z</time>
      </trkpt>
      <trkpt lat="42.83787" lon="0.11348">
        <ele>2927</ele>
        <time>2015-05-30T08:18:25Z</time>
      </trkpt>
      <trkpt lat="42.83799" lon="0.11338">
        <ele>2924</ele>
        <time>2015-05-30T08:18:28Z</time>
      </trkpt>
      <trkpt lat="42.83814" lon="0.11329">
        <ele>2921</ele>
        <time>2015-05-30T08:18:31Z</time>
      </trkpt>
      <trkpt lat="42.83823" lon="0.11325">
        <ele>2919</ele>
        <time>2015-05-30T08:18:33Z</time>
      </trkpt>
      <trkpt lat="42.83839" lon="0.1132">
        <ele>2916</ele>
        <time>2015-05-30T08:18:36Z</time>
      </trkpt>
      <trkpt lat="42.83859" lon="0.11322">
        <ele>2913</ele>
        <time>2015-05-30T08:18:40Z</time>
      </trkpt>
      <trkpt lat="42.83863" lon="0.11324">
        <ele>2913</ele>
        <time>2015-05-30T08:18:41Z</time>
      </trkpt>
      <trkpt lat="42.83876" lon="0.11334">
        <ele>2909</ele>
        <time>2015-05-30T08:18:44Z</time>
      </trkpt>
      <trkpt lat="42.83879" lon="0.11338">
        <ele>2905</ele>
        <time>2015-05-30T08:18:45Z</time>
      </trkpt>
      <trkpt lat="42.83886" lon="0.11354">
        <ele>2898</ele>
        <time>2015-05-30T08:18:47Z</time>
      </trkpt>
      <trkpt lat="42.83886" lon="0.11367">
        <ele>2895</ele>
        <time>2015-05-30T08:18:49Z</time>
      </trkpt>
      <trkpt lat="42.83895" lon="0.11389">
        <ele>2889</ele>
        <time>2015-05-30T08:18:52Z</time>
      </trkpt>
      <trkpt lat="42.83899" lon="0.1139">
        <ele>2889</ele>
        <time>2015-05-30T08:18:53Z</time>
      </trkpt>
      <trkpt lat="42.83908" lon="0.11388">
        <ele>2887</ele>
        <time>2015-05-30T08:18:55Z</time>
      </trkpt>
      <trkpt lat="42.83921" lon="0.11404">
        <ele>2883</ele>
        <time>2015-05-30T08:18:59Z</time>
      </trkpt>
      <trkpt lat="42.83922" lon="0.11412">
        <ele>2881</ele>
        <time>2015-05-30T08:19:00Z</time>
      </trkpt>
      <trkpt lat="42.83941" lon="0.11446">
        <ele>2871</ele>
        <time>2015-05-30T08:19:04Z</time>
      </trkpt>
      <trkpt lat="42.83955" lon="0.1146">
        <ele>2867</ele>
        <time>2015-05-30T08:19:06Z</time>
      </trkpt>
      <trkpt lat="42.83968" lon="0.11473">
        <ele>2875</ele>
        <time>2015-05-30T08:19:10Z</time>
      </trkpt>
      <trkpt lat="42.8397" lon="0.11475">
        <ele>2875</ele>
        <time>2015-05-30T08:19:11Z</time>
      </trkpt>
      <trkpt lat="42.83973" lon="0.11483">
        <ele>2873</ele>
        <time>2015-05-30T08:19:21Z</time>
      </trkpt>
      <trkpt lat="42.83975" lon="0.11486">
        <ele>2873</ele>
        <time>2015-05-30T08:19:22Z</time>
      </trkpt>
      <trkpt lat="42.83987" lon="0.11503">
        <ele>2870</ele>
        <time>2015-05-30T08:19:27Z</time>
      </trkpt>
      <trkpt lat="42.83999" lon="0.1152">
        <ele>2867</ele>
        <time>2015-05-30T08:19:34Z</time>
      </trkpt>
      <trkpt lat="42.83997" lon="0.11526">
        <ele>2866</ele>
        <time>2015-05-30T08:19:36Z</time>
      </trkpt>
      <trkpt lat="42.83979" lon="0.11518">
        <ele>2865</ele>
        <time>2015-05-30T08:19:47Z</time>
      </trkpt>
      <trkpt lat="42.83963" lon="0.11503">
        <ele>2862</ele>
        <time>2015-05-30T08:19:57Z</time>
      </trkpt>
      <trkpt lat="42.83964" lon="0.11512">
        <ele>2858</ele>
        <time>2015-05-30T08:20:00Z</time>
      </trkpt>
      <trkpt lat="42.83963" lon="0.11515">
        <ele>2854</ele>
        <time>2015-05-30T08:20:02Z</time>
      </trkpt>
      <trkpt lat="42.83962" lon="0.11515">
        <ele>2852</ele>
        <time>2015-05-30T08:20:03Z</time>
      </trkpt>
      <trkpt lat="42.8396" lon="0.11515">
        <ele>2849</ele>
        <time>2015-05-30T08:20:05Z</time>
      </trkpt>
      <trkpt lat="42.83954" lon="0.11529">
        <ele>2844</ele>
        <time>2015-05-30T08:20:08Z</time>
      </trkpt>
      <trkpt lat="42.83952" lon="0.11534">
        <ele>2840</ele>
        <time>2015-05-30T08:20:09Z</time>
      </trkpt>
      <trkpt lat="42.83949" lon="0.1155">
        <ele>2834</ele>
        <time>2015-05-30T08:20:12Z</time>
      </trkpt>
      <trkpt lat="42.8395" lon="0.11557">
        <ele>2830</ele>
        <time>2015-05-30T08:20:13Z</time>
      </trkpt>
      <trkpt lat="42.83949" lon="0.11562">
        <ele>2829</ele>
        <time>2015-05-30T08:20:14Z</time>
      </trkpt>
      <trkpt lat="42.83947" lon="0.11567">
        <ele>2828</ele>
        <time>2015-05-30T08:20:15Z</time>
      </trkpt>
      <trkpt lat="42.83944" lon="0.11571">
        <ele>2827</ele>
        <time>2015-05-30T08:20:16Z</time>
      </trkpt>
      <trkpt lat="42.83939" lon="0.11575">
        <ele>2827</ele>
        <time>2015-05-30T08:20:17Z</time>
      </trkpt>
      <trkpt lat="42.83929" lon="0.11581">
        <ele>2827</ele>
        <time>2015-05-30T08:20:19Z</time>
      </trkpt>
      <trkpt lat="42.83926" lon="0.11586">
        <ele>2826</ele>
        <time>2015-05-30T08:20:20Z</time>
      </trkpt>
      <trkpt lat="42.83924" lon="0.1159">
        <ele>2826</ele>
        <time>2015-05-30T08:20:21Z</time>
      </trkpt>
      <trkpt lat="42.83924" lon="0.11597">
        <ele>2825</ele>
        <time>2015-05-30T08:20:22Z</time>
      </trkpt>
      <trkpt lat="42.83925" lon="0.11604">
        <ele>2824</ele>
        <time>2015-05-30T08:20:23Z</time>
      </trkpt>
      <trkpt lat="42.83923" lon="0.11614">
        <ele>2823</ele>
        <time>2015-05-30T08:20:24Z</time>
      </trkpt>
      <trkpt lat="42.83921" lon="0.11627">
        <ele>2823</ele>
        <time>2015-05-30T08:20:26Z</time>
      </trkpt>
      <trkpt lat="42.83921" lon="0.1166">
        <ele>2819</ele>
        <time>2015-05-30T08:20:31Z</time>
      </trkpt>
      <trkpt lat="42.83923" lon="0.11683">
        <ele>2816</ele>
        <time>2015-05-30T08:20:35Z</time>
      </trkpt>
      <trkpt lat="42.83924" lon="0.11687">
        <ele>2815</ele>
        <time>2015-05-30T08:20:36Z</time>
      </trkpt>
      <trkpt lat="42.83927" lon="0.11689">
        <ele>2809</ele>
        <time>2015-05-30T08:20:38Z</time>
      </trkpt>
      <trkpt lat="42.83924" lon="0.1168">
        <ele>2808</ele>
        <time>2015-05-30T08:20:40Z</time>
      </trkpt>
      <trkpt lat="42.83928" lon="0.11675">
        <ele>2805</ele>
        <time>2015-05-30T08:20:41Z</time>
      </trkpt>
      <trkpt lat="42.83938" lon="0.11668">
        <ele>2800</ele>
        <time>2015-05-30T08:20:44Z</time>
      </trkpt>
      <trkpt lat="42.83947" lon="0.11662">
        <ele>2796</ele>
        <time>2015-05-30T08:20:46Z</time>
      </trkpt>
      <trkpt lat="42.83959" lon="0.11655">
        <ele>2794</ele>
        <time>2015-05-30T08:20:49Z</time>
      </trkpt>
      <trkpt lat="42.83971" lon="0.11663">
        <ele>2791</ele>
        <time>2015-05-30T08:20:50Z</time>
      </trkpt>
      <trkpt lat="42.8398" lon="0.11665">
        <ele>2789</ele>
        <time>2015-05-30T08:20:54Z</time>
      </trkpt>
      <trkpt lat="42.83984" lon="0.11669">
        <ele>2787</ele>
        <time>2015-05-30T08:20:56Z</time>
      </trkpt>
      <trkpt lat="42.83986" lon="0.11673">
        <ele>2785</ele>
        <time>2015-05-30T08:20:57Z</time>
      </trkpt>
      <trkpt lat="42.83987" lon="0.1168">
        <ele>2783</ele>
        <time>2015-05-30T08:20:58Z</time>
      </trkpt>
      <trkpt lat="42.83988" lon="0.11687">
        <ele>2782</ele>
        <time>2015-05-30T08:20:59Z</time>
      </trkpt>
      <trkpt lat="42.83978" lon="0.11717">
        <ele>2781</ele>
        <time>2015-05-30T08:21:06Z</time>
      </trkpt>
      <trkpt lat="42.83977" lon="0.11722">
        <ele>2781</ele>
        <time>2015-05-30T08:21:08Z</time>
      </trkpt>
      <trkpt lat="42.8398" lon="0.11739">
        <ele>2778</ele>
        <time>2015-05-30T08:21:13Z</time>
      </trkpt>
      <trkpt lat="42.83975" lon="0.11784">
        <ele>2774</ele>
        <time>2015-05-30T08:21:22Z</time>
      </trkpt>
      <trkpt lat="42.83972" lon="0.11797">
        <ele>2771</ele>
        <time>2015-05-30T08:21:24Z</time>
      </trkpt>
      <trkpt lat="42.83968" lon="0.11824">
        <ele>2767</ele>
        <time>2015-05-30T08:21:27Z</time>
      </trkpt>
      <trkpt lat="42.83967" lon="0.11834">
        <ele>2766</ele>
        <time>2015-05-30T08:21:28Z</time>
      </trkpt>
      <trkpt lat="42.83966" lon="0.11841">
        <ele>2766</ele>
        <time>2015-05-30T08:21:29Z</time>
      </trkpt>
      <trkpt lat="42.83969" lon="0.11866">
        <ele>2761</ele>
        <time>2015-05-30T08:21:31Z</time>
      </trkpt>
      <trkpt lat="42.83969" lon="0.11874">
        <ele>2760</ele>
        <time>2015-05-30T08:21:32Z</time>
      </trkpt>
      <trkpt lat="42.83968" lon="0.11884">
        <ele>2760</ele>
        <time>2015-05-30T08:21:33Z</time>
      </trkpt>
      <trkpt lat="42.8396" lon="0.1192">
        <ele>2756</ele>
        <time>2015-05-30T08:21:38Z</time>
      </trkpt>
      <trkpt lat="42.83949" lon="0.1196">
        <ele>2753</ele>
        <time>2015-05-30T08:21:43Z</time>
      </trkpt>
      <trkpt lat="42.83949" lon="0.11978">
        <ele>2751</ele>
        <time>2015-05-30T08:21:45Z</time>
      </trkpt>
      <trkpt lat="42.83953" lon="0.1199">
        <ele>2744</ele>
        <time>2015-05-30T08:21:47Z</time>
      </trkpt>
      <trkpt lat="42.83962" lon="0.12013">
        <ele>2741</ele>
        <time>2015-05-30T08:21:49Z</time>
      </trkpt>
      <trkpt lat="42.83965" lon="0.12041">
        <ele>2739</ele>
        <time>2015-05-30T08:21:53Z</time>
      </trkpt>
      <trkpt lat="42.83961" lon="0.1209">
        <ele>2735</ele>
        <time>2015-05-30T08:22:00Z</time>
      </trkpt>
      <trkpt lat="42.83958" lon="0.12106">
        <ele>2737</ele>
        <time>2015-05-30T08:22:03Z</time>
      </trkpt>
      <trkpt lat="42.83922" lon="0.12151">
        <ele>2735</ele>
        <time>2015-05-30T08:22:14Z</time>
      </trkpt>
      <trkpt lat="42.83912" lon="0.12163">
        <ele>2733</ele>
        <time>2015-05-30T08:22:17Z</time>
      </trkpt>
      <trkpt lat="42.83905" lon="0.12169">
        <ele>2732</ele>
        <time>2015-05-30T08:22:19Z</time>
      </trkpt>
      <trkpt lat="42.83894" lon="0.12187">
        <ele>2730</ele>
        <time>2015-05-30T08:22:23Z</time>
      </trkpt>
      <trkpt lat="42.83891" lon="0.12202">
        <ele>2729</ele>
        <time>2015-05-30T08:22:25Z</time>
      </trkpt>
      <trkpt lat="42.83892" lon="0.12211">
        <ele>2725</ele>
        <time>2015-05-30T08:22:26Z</time>
      </trkpt>
      <trkpt lat="42.83892" lon="0.12222">
        <ele>2723</ele>
        <time>2015-05-30T08:22:27Z</time>
      </trkpt>
      <trkpt lat="42.83894" lon="0.1224">
        <ele>2720</ele>
        <time>2015-05-30T08:22:29Z</time>
      </trkpt>
      <trkpt lat="42.83891" lon="0.12258">
        <ele>2718</ele>
        <time>2015-05-30T08:22:31Z</time>
      </trkpt>
      <trkpt lat="42.8389" lon="0.12263">
        <ele>2718</ele>
        <time>2015-05-30T08:22:32Z</time>
      </trkpt>
      <trkpt lat="42.8389" lon="0.12275">
        <ele>2714</ele>
        <time>2015-05-30T08:22:33Z</time>
      </trkpt>
      <trkpt lat="42.83885" lon="0.12295">
        <ele>2709</ele>
        <time>2015-05-30T08:22:35Z</time>
      </trkpt>
      <trkpt lat="42.83877" lon="0.12307">
        <ele>2708</ele>
        <time>2015-05-30T08:22:37Z</time>
      </trkpt>
      <trkpt lat="42.83871" lon="0.12325">
        <ele>2703</ele>
        <time>2015-05-30T08:22:40Z</time>
      </trkpt>
      <trkpt lat="42.83868" lon="0.12331">
        <ele>2703</ele>
        <time>2015-05-30T08:22:41Z</time>
      </trkpt>
      <trkpt lat="42.83863" lon="0.12357">
        <ele>2698</ele>
        <time>2015-05-30T08:22:44Z</time>
      </trkpt>
      <trkpt lat="42.83861" lon="0.12362">
        <ele>2697</ele>
        <time>2015-05-30T08:22:45Z</time>
      </trkpt>
      <trkpt lat="42.83836" lon="0.12405">
        <ele>2695</ele>
        <time>2015-05-30T08:22:54Z</time>
      </trkpt>
      <trkpt lat="42.83825" lon="0.12421">
        <ele>2692</ele>
        <time>2015-05-30T08:22:57Z</time>
      </trkpt>
      <trkpt lat="42.83816" lon="0.12437">
        <ele>2688</ele>
        <time>2015-05-30T08:22:59Z</time>
      </trkpt>
      <trkpt lat="42.838" lon="0.12472">
        <ele>2685</ele>
        <time>2015-05-30T08:23:04Z</time>
      </trkpt>
      <trkpt lat="42.83775" lon="0.12516">
        <ele>2684</ele>
        <time>2015-05-30T08:23:16Z</time>
      </trkpt>
      <trkpt lat="42.83747" lon="0.12547">
        <ele>2681</ele>
        <time>2015-05-30T08:23:28Z</time>
      </trkpt>
      <trkpt lat="42.83725" lon="0.12567">
        <ele>2677</ele>
        <time>2015-05-30T08:23:35Z</time>
      </trkpt>
      <trkpt lat="42.83717" lon="0.12575">
        <ele>2676</ele>
        <time>2015-05-30T08:23:38Z</time>
      </trkpt>
      <trkpt lat="42.83687" lon="0.12603">
        <ele>2674</ele>
        <time>2015-05-30T08:23:50Z</time>
      </trkpt>
      <trkpt lat="42.83676" lon="0.12625">
        <ele>2670</ele>
        <time>2015-05-30T08:23:58Z</time>
      </trkpt>
      <trkpt lat="42.83672" lon="0.12631">
        <ele>2669</ele>
        <time>2015-05-30T08:24:00Z</time>
      </trkpt>
      <trkpt lat="42.8366" lon="0.12657">
        <ele>2665</ele>
        <time>2015-05-30T08:24:10Z</time>
      </trkpt>
      <trkpt lat="42.83658" lon="0.12662">
        <ele>2664</ele>
        <time>2015-05-30T08:24:12Z</time>
      </trkpt>
      <trkpt lat="42.8366" lon="0.12678">
        <ele>2665</ele>
        <time>2015-05-30T08:24:19Z</time>
      </trkpt>
      <trkpt lat="42.83668" lon="0.12689">
        <ele>2665</ele>
        <time>2015-05-30T08:24:33Z</time>
      </trkpt>
      <trkpt lat="42.83676" lon="0.12696">
        <ele>2667</ele>
        <time>2015-05-30T08:24:44Z</time>
      </trkpt>
      <trkpt lat="42.83674" lon="0.12704">
        <ele>2667</ele>
        <time>2015-05-30T08:24:57Z</time>
      </trkpt>
      <trkpt lat="42.83673" lon="0.1271">
        <ele>2668</ele>
        <time>2015-05-30T08:25:12Z</time>
      </trkpt>
      <trkpt lat="42.83677" lon="0.12707">
        <ele>2667</ele>
        <time>2015-05-30T08:25:29Z</time>
      </trkpt>
      <trkpt lat="42.83683" lon="0.12703">
        <ele>2668</ele>
        <time>2015-05-30T08:25:47Z</time>
      </trkpt>
      <trkpt lat="42.83687" lon="0.12703">
        <ele>2667</ele>
        <time>2015-05-30T08:26:09Z</time>
      </trkpt>
      <trkpt lat="42.83693" lon="0.12706">
        <ele>2667</ele>
        <time>2015-05-30T08:26:27Z</time>
      </trkpt>
      <trkpt lat="42.83692" lon="0.12707">
        <ele>2667</ele>
        <time>2015-05-30T08:26:40Z</time>
      </trkpt>
      <trkpt lat="42.83687" lon="0.12703">
        <ele>2666</ele>
        <time>2015-05-30T08:26:58Z</time>
      </trkpt>
      <trkpt lat="42.83688" lon="0.12703">
        <ele>2667</ele>
        <time>2015-05-30T08:27:04Z</time>
      </trkpt>
      <trkpt lat="42.83687" lon="0.12707">
        <ele>2668</ele>
        <time>2015-05-30T08:27:22Z</time>
      </trkpt>
      <trkpt lat="42.83686" lon="0.12707">
        <ele>2666</ele>
        <time>2015-05-30T08:27:26Z</time>
      </trkpt>
      <trkpt lat="42.83687" lon="0.12707">
        <ele>2668</ele>
        <time>2015-05-30T08:27:28Z</time>
      </trkpt>
      <trkpt lat="42.83687" lon="0.12706">
        <ele>2667</ele>
        <time>2015-05-30T08:27:50Z</time>
      </trkpt>
      <trkpt lat="42.83696" lon="0.12704">
        <ele>2668</ele>
        <time>2015-05-30T08:28:01Z</time>
      </trkpt>
      <trkpt lat="42.83692" lon="0.12705">
        <ele>2667</ele>
        <time>2015-05-30T08:28:18Z</time>
      </trkpt>
      <trkpt lat="42.8369" lon="0.12705">
        <ele>2667</ele>
        <time>2015-05-30T08:28:32Z</time>
      </trkpt>
      <trkpt lat="42.83694" lon="0.12705">
        <ele>2667</ele>
        <time>2015-05-30T08:28:55Z</time>
      </trkpt>
      <trkpt lat="42.83695" lon="0.12707">
        <ele>2667</ele>
        <time>2015-05-30T08:29:17Z</time>
      </trkpt>
      <trkpt lat="42.83698" lon="0.12704">
        <ele>2667</ele>
        <time>2015-05-30T08:29:30Z</time>
      </trkpt>
      <trkpt lat="42.83696" lon="0.12705">
        <ele>2667</ele>
        <time>2015-05-30T08:29:50Z</time>
      </trkpt>
      <trkpt lat="42.83693" lon="0.12706">
        <ele>2667</ele>
        <time>2015-05-30T08:30:08Z</time>
      </trkpt>
      <trkpt lat="42.83694" lon="0.12706">
        <ele>2667</ele>
        <time>2015-05-30T08:30:32Z</time>
      </trkpt>
      <trkpt lat="42.83692" lon="0.12707">
        <ele>2667</ele>
        <time>2015-05-30T08:30:49Z</time>
      </trkpt>
      <trkpt lat="42.83693" lon="0.12711">
        <ele>2668</ele>
        <time>2015-05-30T08:31:06Z</time>
      </trkpt>
      <trkpt lat="42.83689" lon="0.12715">
        <ele>2668</ele>
        <time>2015-05-30T08:31:21Z</time>
      </trkpt>
      <trkpt lat="42.83681" lon="0.12716">
        <ele>2670</ele>
        <time>2015-05-30T08:31:40Z</time>
      </trkpt>
      <trkpt lat="42.83676" lon="0.12716">
        <ele>2670</ele>
        <time>2015-05-30T08:32:00Z</time>
      </trkpt>
      <trkpt lat="42.83673" lon="0.12717">
        <ele>2672</ele>
        <time>2015-05-30T08:32:18Z</time>
      </trkpt>
      <trkpt lat="42.83673" lon="0.12717">
        <ele>2674</ele>
        <time>2015-05-30T08:32:33Z</time>
      </trkpt>
      <trkpt lat="42.83665" lon="0.12717">
        <ele>2675</ele>
        <time>2015-05-30T08:32:48Z</time>
      </trkpt>
      <trkpt lat="42.83664" lon="0.12716">
        <ele>2676</ele>
        <time>2015-05-30T08:33:06Z</time>
      </trkpt>
      <trkpt lat="42.8366" lon="0.12715">
        <ele>2678</ele>
        <time>2015-05-30T08:33:27Z</time>
      </trkpt>
      <trkpt lat="42.83653" lon="0.12714">
        <ele>2679</ele>
        <time>2015-05-30T08:33:46Z</time>
      </trkpt>
      <trkpt lat="42.83651" lon="0.12717">
        <ele>2680</ele>
        <time>2015-05-30T08:34:09Z</time>
      </trkpt>
      <trkpt lat="42.83645" lon="0.12718">
        <ele>2682</ele>
        <time>2015-05-30T08:34:34Z</time>
      </trkpt>
      <trkpt lat="42.83624" lon="0.12714">
        <ele>2683</ele>
        <time>2015-05-30T08:34:58Z</time>
      </trkpt>
      <trkpt lat="42.83622" lon="0.12715">
        <ele>2685</ele>
        <time>2015-05-30T08:35:27Z</time>
      </trkpt>
      <trkpt lat="42.83619" lon="0.12712">
        <ele>2686</ele>
        <time>2015-05-30T08:35:53Z</time>
      </trkpt>
      <trkpt lat="42.83616" lon="0.12715">
        <ele>2687</ele>
        <time>2015-05-30T08:36:12Z</time>
      </trkpt>
      <trkpt lat="42.83614" lon="0.12714">
        <ele>2688</ele>
        <time>2015-05-30T08:36:34Z</time>
      </trkpt>
      <trkpt lat="42.83614" lon="0.12714">
        <ele>2689</ele>
        <time>2015-05-30T08:37:02Z</time>
      </trkpt>
      <trkpt lat="42.83615" lon="0.12715">
        <ele>2689</ele>
        <time>2015-05-30T08:37:24Z</time>
      </trkpt>
      <trkpt lat="42.83613" lon="0.12718">
        <ele>2689</ele>
        <time>2015-05-30T08:37:39Z</time>
      </trkpt>
      <trkpt lat="42.8361" lon="0.12722">
        <ele>2690</ele>
        <time>2015-05-30T08:37:53Z</time>
      </trkpt>
      <trkpt lat="42.83604" lon="0.12718">
        <ele>2691</ele>
        <time>2015-05-30T08:38:04Z</time>
      </trkpt>
      <trkpt lat="42.83594" lon="0.12713">
        <ele>2694</ele>
        <time>2015-05-30T08:38:20Z</time>
      </trkpt>
      <trkpt lat="42.83591" lon="0.12704">
        <ele>2696</ele>
        <time>2015-05-30T08:38:33Z</time>
      </trkpt>
      <trkpt lat="42.83589" lon="0.12705">
        <ele>2695</ele>
        <time>2015-05-30T08:38:50Z</time>
      </trkpt>
      <trkpt lat="42.83592" lon="0.12699">
        <ele>2696</ele>
        <time>2015-05-30T08:39:11Z</time>
      </trkpt>
      <trkpt lat="42.83588" lon="0.127">
        <ele>2697</ele>
        <time>2015-05-30T08:39:28Z</time>
      </trkpt>
      <trkpt lat="42.83591" lon="0.12693">
        <ele>2697</ele>
        <time>2015-05-30T08:39:44Z</time>
      </trkpt>
      <trkpt lat="42.83592" lon="0.12694">
        <ele>2697</ele>
        <time>2015-05-30T08:40:05Z</time>
      </trkpt>
      <trkpt lat="42.83591" lon="0.12696">
        <ele>2697</ele>
        <time>2015-05-30T08:40:25Z</time>
      </trkpt>
      <trkpt lat="42.83591" lon="0.12695">
        <ele>2697</ele>
        <time>2015-05-30T08:40:40Z</time>
      </trkpt>
      <trkpt lat="42.83592" lon="0.12697">
        <ele>2697</ele>
        <time>2015-05-30T08:40:54Z</time>
      </trkpt>
      <trkpt lat="42.83591" lon="0.12693">
        <ele>2696</ele>
        <time>2015-05-30T08:41:19Z</time>
      </trkpt>
      <trkpt lat="42.83593" lon="0.12695">
        <ele>2696</ele>
        <time>2015-05-30T08:41:44Z</time>
      </trkpt>
      <trkpt lat="42.83594" lon="0.12692">
        <ele>2696</ele>
        <time>2015-05-30T08:42:13Z</time>
      </trkpt>
      <trkpt lat="42.83593" lon="0.12694">
        <ele>2696</ele>
        <time>2015-05-30T08:42:26Z</time>
      </trkpt>
      <trkpt lat="42.83594" lon="0.12693">
        <ele>2696</ele>
        <time>2015-05-30T08:42:50Z</time>
      </trkpt>
      <trkpt lat="42.83593" lon="0.12693">
        <ele>2697</ele>
        <time>2015-05-30T08:43:10Z</time>
      </trkpt>
      <trkpt lat="42.83592" lon="0.12692">
        <ele>2696</ele>
        <time>2015-05-30T08:43:26Z</time>
      </trkpt>
      <trkpt lat="42.83594" lon="0.12692">
        <ele>2696</ele>
        <time>2015-05-30T08:43:45Z</time>
      </trkpt>
      <trkpt lat="42.83593" lon="0.12692">
        <ele>2696</ele>
        <time>2015-05-30T08:44:05Z</time>
      </trkpt>
      <trkpt lat="42.83591" lon="0.12692">
        <ele>2696</ele>
        <time>2015-05-30T08:44:29Z</time>
      </trkpt>
      <trkpt lat="42.83593" lon="0.12694">
        <ele>2695</ele>
        <time>2015-05-30T08:44:47Z</time>
      </trkpt>
      <trkpt lat="42.83593" lon="0.12691">
        <ele>2695</ele>
        <time>2015-05-30T08:45:10Z</time>
      </trkpt>
      <trkpt lat="42.83594" lon="0.12691">
        <ele>2695</ele>
        <time>2015-05-30T08:45:29Z</time>
      </trkpt>
      <trkpt lat="42.83594" lon="0.12692">
        <ele>2695</ele>
        <time>2015-05-30T08:45:54Z</time>
      </trkpt>
      <trkpt lat="42.83594" lon="0.12691">
        <ele>2695</ele>
        <time>2015-05-30T08:46:10Z</time>
      </trkpt>
      <trkpt lat="42.83595" lon="0.12692">
        <ele>2695</ele>
        <time>2015-05-30T08:46:35Z</time>
      </trkpt>
      <trkpt lat="42.83594" lon="0.12692">
        <ele>2694</ele>
        <time>2015-05-30T08:46:51Z</time>
      </trkpt>
      <trkpt lat="42.83593" lon="0.12691">
        <ele>2694</ele>
        <time>2015-05-30T08:47:14Z</time>
      </trkpt>
      <trkpt lat="42.83592" lon="0.12691">
        <ele>2693</ele>
        <time>2015-05-30T08:47:45Z</time>
      </trkpt>
      <trkpt lat="42.83593" lon="0.12692">
        <ele>2694</ele>
        <time>2015-05-30T08:48:03Z</time>
      </trkpt>
      <trkpt lat="42.83593" lon="0.12689">
        <ele>2693</ele>
        <time>2015-05-30T08:48:18Z</time>
      </trkpt>
      <trkpt lat="42.83592" lon="0.12693">
        <ele>2693</ele>
        <time>2015-05-30T08:48:35Z</time>
      </trkpt>
      <trkpt lat="42.83592" lon="0.12691">
        <ele>2694</ele>
        <time>2015-05-30T08:48:59Z</time>
      </trkpt>
      <trkpt lat="42.83591" lon="0.12691">
        <ele>2694</ele>
        <time>2015-05-30T08:49:18Z</time>
      </trkpt>
      <trkpt lat="42.83592" lon="0.12691">
        <ele>2693</ele>
        <time>2015-05-30T08:49:34Z</time>
      </trkpt>
      <trkpt lat="42.83592" lon="0.12691">
        <ele>2694</ele>
        <time>2015-05-30T08:49:50Z</time>
      </trkpt>
      <trkpt lat="42.83594" lon="0.12692">
        <ele>2693</ele>
        <time>2015-05-30T08:50:05Z</time>
      </trkpt>
      <trkpt lat="42.83592" lon="0.1269">
        <ele>2694</ele>
        <time>2015-05-30T08:50:18Z</time>
      </trkpt>
      <trkpt lat="42.83591" lon="0.1269">
        <ele>2693</ele>
        <time>2015-05-30T08:50:37Z</time>
      </trkpt>
      <trkpt lat="42.8359" lon="0.1269">
        <ele>2693</ele>
        <time>2015-05-30T08:50:55Z</time>
      </trkpt>
      <trkpt lat="42.83592" lon="0.1269">
        <ele>2693</ele>
        <time>2015-05-30T08:51:11Z</time>
      </trkpt>
      <trkpt lat="42.83587" lon="0.1268">
        <ele>2694</ele>
        <time>2015-05-30T08:51:30Z</time>
      </trkpt>
      <trkpt lat="42.83584" lon="0.12673">
        <ele>2695</ele>
        <time>2015-05-30T08:51:43Z</time>
      </trkpt>
      <trkpt lat="42.83584" lon="0.1266">
        <ele>2698</ele>
        <time>2015-05-30T08:51:59Z</time>
      </trkpt>
      <trkpt lat="42.8358" lon="0.12647">
        <ele>2701</ele>
        <time>2015-05-30T08:52:16Z</time>
      </trkpt>
      <trkpt lat="42.83571" lon="0.12638">
        <ele>2703</ele>
        <time>2015-05-30T08:52:32Z</time>
      </trkpt>
      <trkpt lat="42.83561" lon="0.12634">
        <ele>2706</ele>
        <time>2015-05-30T08:52:50Z</time>
      </trkpt>
      <trkpt lat="42.8355" lon="0.12629">
        <ele>2708</ele>
        <time>2015-05-30T08:53:06Z</time>
      </trkpt>
      <trkpt lat="42.83543" lon="0.12624">
        <ele>2712</ele>
        <time>2015-05-30T08:53:21Z</time>
      </trkpt>
      <trkpt lat="42.83533" lon="0.12616">
        <ele>2714</ele>
        <time>2015-05-30T08:53:39Z</time>
      </trkpt>
      <trkpt lat="42.83525" lon="0.12608">
        <ele>2717</ele>
        <time>2015-05-30T08:53:54Z</time>
      </trkpt>
      <trkpt lat="42.83518" lon="0.12599">
        <ele>2720</ele>
        <time>2015-05-30T08:54:10Z</time>
      </trkpt>
      <trkpt lat="42.8351" lon="0.12587">
        <ele>2723</ele>
        <time>2015-05-30T08:54:28Z</time>
      </trkpt>
      <trkpt lat="42.83505" lon="0.12581">
        <ele>2725</ele>
        <time>2015-05-30T08:54:44Z</time>
      </trkpt>
      <trkpt lat="42.83501" lon="0.12575">
        <ele>2725</ele>
        <time>2015-05-30T08:55:03Z</time>
      </trkpt>
      <trkpt lat="42.83495" lon="0.12568">
        <ele>2728</ele>
        <time>2015-05-30T08:55:17Z</time>
      </trkpt>
      <trkpt lat="42.83501" lon="0.12564">
        <ele>2730</ele>
        <time>2015-05-30T08:55:31Z</time>
      </trkpt>
      <trkpt lat="42.83511" lon="0.1256">
        <ele>2732</ele>
        <time>2015-05-30T08:55:45Z</time>
      </trkpt>
      <trkpt lat="42.8352" lon="0.12557">
        <ele>2734</ele>
        <time>2015-05-30T08:56:01Z</time>
      </trkpt>
      <trkpt lat="42.83522" lon="0.12556">
        <ele>2735</ele>
        <time>2015-05-30T08:56:03Z</time>
      </trkpt>
      <trkpt lat="42.8352" lon="0.12545">
        <ele>2738</ele>
        <time>2015-05-30T08:56:18Z</time>
      </trkpt>
      <trkpt lat="42.83513" lon="0.12533">
        <ele>2741</ele>
        <time>2015-05-30T08:56:35Z</time>
      </trkpt>
      <trkpt lat="42.83508" lon="0.12521">
        <ele>2744</ele>
        <time>2015-05-30T08:56:50Z</time>
      </trkpt>
      <trkpt lat="42.8351" lon="0.12509">
        <ele>2747</ele>
        <time>2015-05-30T08:57:06Z</time>
      </trkpt>
      <trkpt lat="42.83516" lon="0.12498">
        <ele>2749</ele>
        <time>2015-05-30T08:57:21Z</time>
      </trkpt>
      <trkpt lat="42.83525" lon="0.12488">
        <ele>2751</ele>
        <time>2015-05-30T08:57:37Z</time>
      </trkpt>
      <trkpt lat="42.83534" lon="0.12478">
        <ele>2754</ele>
        <time>2015-05-30T08:57:51Z</time>
      </trkpt>
      <trkpt lat="42.83542" lon="0.12467">
        <ele>2756</ele>
        <time>2015-05-30T08:58:06Z</time>
      </trkpt>
      <trkpt lat="42.83552" lon="0.12456">
        <ele>2758</ele>
        <time>2015-05-30T08:58:23Z</time>
      </trkpt>
      <trkpt lat="42.83562" lon="0.12448">
        <ele>2762</ele>
        <time>2015-05-30T08:58:37Z</time>
      </trkpt>
      <trkpt lat="42.83569" lon="0.12444">
        <ele>2763</ele>
        <time>2015-05-30T08:58:51Z</time>
      </trkpt>
      <trkpt lat="42.83576" lon="0.12443">
        <ele>2765</ele>
        <time>2015-05-30T08:59:04Z</time>
      </trkpt>
      <trkpt lat="42.83582" lon="0.12442">
        <ele>2768</ele>
        <time>2015-05-30T08:59:19Z</time>
      </trkpt>
      <trkpt lat="42.83579" lon="0.12442">
        <ele>2768</ele>
        <time>2015-05-30T08:59:40Z</time>
      </trkpt>
      <trkpt lat="42.83577" lon="0.12434">
        <ele>2770</ele>
        <time>2015-05-30T08:59:54Z</time>
      </trkpt>
      <trkpt lat="42.83572" lon="0.12424">
        <ele>2773</ele>
        <time>2015-05-30T09:00:11Z</time>
      </trkpt>
      <trkpt lat="42.83568" lon="0.12412">
        <ele>2776</ele>
        <time>2015-05-30T09:00:27Z</time>
      </trkpt>
      <trkpt lat="42.83563" lon="0.12403">
        <ele>2779</ele>
        <time>2015-05-30T09:00:42Z</time>
      </trkpt>
      <trkpt lat="42.83559" lon="0.12396">
        <ele>2780</ele>
        <time>2015-05-30T09:00:51Z</time>
      </trkpt>
      <trkpt lat="42.83554" lon="0.12389">
        <ele>2782</ele>
        <time>2015-05-30T09:01:05Z</time>
      </trkpt>
      <trkpt lat="42.83545" lon="0.12385">
        <ele>2786</ele>
        <time>2015-05-30T09:01:17Z</time>
      </trkpt>
      <trkpt lat="42.83534" lon="0.12387">
        <ele>2787</ele>
        <time>2015-05-30T09:01:32Z</time>
      </trkpt>
      <trkpt lat="42.83534" lon="0.12382">
        <ele>2788</ele>
        <time>2015-05-30T09:01:57Z</time>
      </trkpt>
      <trkpt lat="42.83539" lon="0.12369">
        <ele>2791</ele>
        <time>2015-05-30T09:02:15Z</time>
      </trkpt>
      <trkpt lat="42.83544" lon="0.12359">
        <ele>2793</ele>
        <time>2015-05-30T09:02:29Z</time>
      </trkpt>
      <trkpt lat="42.83549" lon="0.12346">
        <ele>2796</ele>
        <time>2015-05-30T09:02:45Z</time>
      </trkpt>
      <trkpt lat="42.83551" lon="0.12337">
        <ele>2799</ele>
        <time>2015-05-30T09:02:59Z</time>
      </trkpt>
      <trkpt lat="42.8355" lon="0.12337">
        <ele>2799</ele>
        <time>2015-05-30T09:03:00Z</time>
      </trkpt>
      <trkpt lat="42.83553" lon="0.12325">
        <ele>2802</ele>
        <time>2015-05-30T09:03:17Z</time>
      </trkpt>
      <trkpt lat="42.83548" lon="0.1232">
        <ele>2805</ele>
        <time>2015-05-30T09:03:32Z</time>
      </trkpt>
      <trkpt lat="42.83538" lon="0.12309">
        <ele>2808</ele>
        <time>2015-05-30T09:03:51Z</time>
      </trkpt>
      <trkpt lat="42.83531" lon="0.123">
        <ele>2811</ele>
        <time>2015-05-30T09:04:07Z</time>
      </trkpt>
      <trkpt lat="42.83525" lon="0.1229">
        <ele>2813</ele>
        <time>2015-05-30T09:04:22Z</time>
      </trkpt>
      <trkpt lat="42.8352" lon="0.1228">
        <ele>2816</ele>
        <time>2015-05-30T09:04:36Z</time>
      </trkpt>
      <trkpt lat="42.83515" lon="0.1227">
        <ele>2819</ele>
        <time>2015-05-30T09:04:50Z</time>
      </trkpt>
      <trkpt lat="42.83511" lon="0.12262">
        <ele>2822</ele>
        <time>2015-05-30T09:05:05Z</time>
      </trkpt>
      <trkpt lat="42.83503" lon="0.12256">
        <ele>2824</ele>
        <time>2015-05-30T09:05:22Z</time>
      </trkpt>
      <trkpt lat="42.83496" lon="0.12249">
        <ele>2827</ele>
        <time>2015-05-30T09:05:37Z</time>
      </trkpt>
      <trkpt lat="42.83492" lon="0.1224">
        <ele>2829</ele>
        <time>2015-05-30T09:05:50Z</time>
      </trkpt>
      <trkpt lat="42.83487" lon="0.12229">
        <ele>2832</ele>
        <time>2015-05-30T09:06:04Z</time>
      </trkpt>
      <trkpt lat="42.83486" lon="0.12228">
        <ele>2832</ele>
        <time>2015-05-30T09:06:05Z</time>
      </trkpt>
      <trkpt lat="42.8348" lon="0.12216">
        <ele>2835</ele>
        <time>2015-05-30T09:06:21Z</time>
      </trkpt>
      <trkpt lat="42.83476" lon="0.12207">
        <ele>2837</ele>
        <time>2015-05-30T09:06:36Z</time>
      </trkpt>
      <trkpt lat="42.83475" lon="0.12209">
        <ele>2837</ele>
        <time>2015-05-30T09:06:55Z</time>
      </trkpt>
      <trkpt lat="42.83476" lon="0.12209">
        <ele>2837</ele>
        <time>2015-05-30T09:07:19Z</time>
      </trkpt>
      <trkpt lat="42.83476" lon="0.12207">
        <ele>2837</ele>
        <time>2015-05-30T09:07:42Z</time>
      </trkpt>
      <trkpt lat="42.83471" lon="0.12202">
        <ele>2838</ele>
        <time>2015-05-30T09:07:58Z</time>
      </trkpt>
      <trkpt lat="42.83462" lon="0.12198">
        <ele>2841</ele>
        <time>2015-05-30T09:08:11Z</time>
      </trkpt>
      <trkpt lat="42.83453" lon="0.12192">
        <ele>2844</ele>
        <time>2015-05-30T09:08:26Z</time>
      </trkpt>
      <trkpt lat="42.83447" lon="0.12188">
        <ele>2847</ele>
        <time>2015-05-30T09:08:38Z</time>
      </trkpt>
      <trkpt lat="42.83437" lon="0.12183">
        <ele>2849</ele>
        <time>2015-05-30T09:08:55Z</time>
      </trkpt>
      <trkpt lat="42.8343" lon="0.12182">
        <ele>2850</ele>
        <time>2015-05-30T09:09:11Z</time>
      </trkpt>
      <trkpt lat="42.83422" lon="0.12186">
        <ele>2852</ele>
        <time>2015-05-30T09:09:31Z</time>
      </trkpt>
      <trkpt lat="42.83417" lon="0.12189">
        <ele>2853</ele>
        <time>2015-05-30T09:09:38Z</time>
      </trkpt>
      <trkpt lat="42.83406" lon="0.12196">
        <ele>2855</ele>
        <time>2015-05-30T09:09:54Z</time>
      </trkpt>
      <trkpt lat="42.83397" lon="0.12201">
        <ele>2856</ele>
        <time>2015-05-30T09:10:07Z</time>
      </trkpt>
      <trkpt lat="42.83386" lon="0.12204">
        <ele>2858</ele>
        <time>2015-05-30T09:10:23Z</time>
      </trkpt>
      <trkpt lat="42.83384" lon="0.12206">
        <ele>2858</ele>
        <time>2015-05-30T09:10:40Z</time>
      </trkpt>
      <trkpt lat="42.83374" lon="0.12215">
        <ele>2859</ele>
        <time>2015-05-30T09:10:53Z</time>
      </trkpt>
      <trkpt lat="42.83368" lon="0.12223">
        <ele>2861</ele>
        <time>2015-05-30T09:11:08Z</time>
      </trkpt>
      <trkpt lat="42.83368" lon="0.12223">
        <ele>2861</ele>
        <time>2015-05-30T09:11:29Z</time>
      </trkpt>
      <trkpt lat="42.83368" lon="0.1222">
        <ele>2861</ele>
        <time>2015-05-30T09:11:55Z</time>
      </trkpt>
      <trkpt lat="42.83368" lon="0.12221">
        <ele>2857</ele>
        <time>2015-05-30T09:12:19Z</time>
      </trkpt>
      <trkpt lat="42.83368" lon="0.1222">
        <ele>2863</ele>
        <time>2015-05-30T09:12:24Z</time>
      </trkpt>
      <trkpt lat="42.83368" lon="0.1222">
        <ele>2861</ele>
        <time>2015-05-30T09:12:25Z</time>
      </trkpt>
      <trkpt lat="42.83368" lon="0.1222">
        <ele>2866</ele>
        <time>2015-05-30T09:12:26Z</time>
      </trkpt>
      <trkpt lat="42.83369" lon="0.1222">
        <ele>2861</ele>
        <time>2015-05-30T09:12:28Z</time>
      </trkpt>
      <trkpt lat="42.83368" lon="0.12221">
        <ele>2861</ele>
        <time>2015-05-30T09:12:30Z</time>
      </trkpt>
      <trkpt lat="42.8337" lon="0.12218">
        <ele>2860</ele>
        <time>2015-05-30T09:12:46Z</time>
      </trkpt>
      <trkpt lat="42.83371" lon="0.12217">
        <ele>2860</ele>
        <time>2015-05-30T09:12:47Z</time>
      </trkpt>
      <trkpt lat="42.83376" lon="0.12209">
        <ele>2859</ele>
        <time>2015-05-30T09:12:51Z</time>
      </trkpt>
      <trkpt lat="42.83382" lon="0.12203">
        <ele>2859</ele>
        <time>2015-05-30T09:12:58Z</time>
      </trkpt>
      <trkpt lat="42.83384" lon="0.12196">
        <ele>2860</ele>
        <time>2015-05-30T09:13:06Z</time>
      </trkpt>
      <trkpt lat="42.83391" lon="0.12181">
        <ele>2862</ele>
        <time>2015-05-30T09:13:23Z</time>
      </trkpt>
      <trkpt lat="42.83397" lon="0.1217">
        <ele>2865</ele>
        <time>2015-05-30T09:13:37Z</time>
      </trkpt>
      <trkpt lat="42.83401" lon="0.12164">
        <ele>2867</ele>
        <time>2015-05-30T09:13:55Z</time>
      </trkpt>
      <trkpt lat="42.83394" lon="0.12169">
        <ele>2869</ele>
        <time>2015-05-30T09:14:14Z</time>
      </trkpt>
      <trkpt lat="42.83397" lon="0.12159">
        <ele>2872</ele>
        <time>2015-05-30T09:14:30Z</time>
      </trkpt>
      <trkpt lat="42.83401" lon="0.12144">
        <ele>2875</ele>
        <time>2015-05-30T09:14:47Z</time>
      </trkpt>
      <trkpt lat="42.83405" lon="0.12133">
        <ele>2878</ele>
        <time>2015-05-30T09:15:05Z</time>
      </trkpt>
      <trkpt lat="42.83415" lon="0.12127">
        <ele>2880</ele>
        <time>2015-05-30T09:15:22Z</time>
      </trkpt>
      <trkpt lat="42.8342" lon="0.12125">
        <ele>2882</ele>
        <time>2015-05-30T09:15:37Z</time>
      </trkpt>
      <trkpt lat="42.83429" lon="0.12119">
        <ele>2885</ele>
        <time>2015-05-30T09:15:53Z</time>
      </trkpt>
      <trkpt lat="42.83428" lon="0.12115">
        <ele>2885</ele>
        <time>2015-05-30T09:16:08Z</time>
      </trkpt>
      <trkpt lat="42.83432" lon="0.12113">
        <ele>2886</ele>
        <time>2015-05-30T09:16:23Z</time>
      </trkpt>
      <trkpt lat="42.83429" lon="0.12119">
        <ele>2887</ele>
        <time>2015-05-30T09:16:45Z</time>
      </trkpt>
      <trkpt lat="42.83424" lon="0.12121">
        <ele>2888</ele>
        <time>2015-05-30T09:17:01Z</time>
      </trkpt>
      <trkpt lat="42.83416" lon="0.12114">
        <ele>2891</ele>
        <time>2015-05-30T09:17:18Z</time>
      </trkpt>
      <trkpt lat="42.83417" lon="0.12107">
        <ele>2894</ele>
        <time>2015-05-30T09:17:35Z</time>
      </trkpt>
      <trkpt lat="42.83424" lon="0.12097">
        <ele>2897</ele>
        <time>2015-05-30T09:17:49Z</time>
      </trkpt>
      <trkpt lat="42.83435" lon="0.1209">
        <ele>2899</ele>
        <time>2015-05-30T09:18:07Z</time>
      </trkpt>
      <trkpt lat="42.83442" lon="0.12086">
        <ele>2901</ele>
        <time>2015-05-30T09:18:21Z</time>
      </trkpt>
      <trkpt lat="42.83443" lon="0.12087">
        <ele>2902</ele>
        <time>2015-05-30T09:18:32Z</time>
      </trkpt>
      <trkpt lat="42.83447" lon="0.12087">
        <ele>2904</ele>
        <time>2015-05-30T09:18:43Z</time>
      </trkpt>
      <trkpt lat="42.83448" lon="0.12088">
        <ele>2905</ele>
        <time>2015-05-30T09:18:56Z</time>
      </trkpt>
      <trkpt lat="42.8345" lon="0.1209">
        <ele>2904</ele>
        <time>2015-05-30T09:19:18Z</time>
      </trkpt>
      <trkpt lat="42.83443" lon="0.12087">
        <ele>2906</ele>
        <time>2015-05-30T09:19:32Z</time>
      </trkpt>
      <trkpt lat="42.83436" lon="0.12083">
        <ele>2907</ele>
        <time>2015-05-30T09:19:47Z</time>
      </trkpt>
      <trkpt lat="42.83428" lon="0.1208">
        <ele>2911</ele>
        <time>2015-05-30T09:20:02Z</time>
      </trkpt>
      <trkpt lat="42.83426" lon="0.12074">
        <ele>2911</ele>
        <time>2015-05-30T09:20:14Z</time>
      </trkpt>
      <trkpt lat="42.83429" lon="0.12071">
        <ele>2912</ele>
        <time>2015-05-30T09:20:33Z</time>
      </trkpt>
      <trkpt lat="42.83433" lon="0.12068">
        <ele>2914</ele>
        <time>2015-05-30T09:20:45Z</time>
      </trkpt>
      <trkpt lat="42.83438" lon="0.12068">
        <ele>2915</ele>
        <time>2015-05-30T09:20:56Z</time>
      </trkpt>
      <trkpt lat="42.83443" lon="0.12067">
        <ele>2917</ele>
        <time>2015-05-30T09:21:08Z</time>
      </trkpt>
      <trkpt lat="42.8345" lon="0.12064">
        <ele>2919</ele>
        <time>2015-05-30T09:21:21Z</time>
      </trkpt>
      <trkpt lat="42.83451" lon="0.12062">
        <ele>2920</ele>
        <time>2015-05-30T09:21:39Z</time>
      </trkpt>
      <trkpt lat="42.83446" lon="0.12068">
        <ele>2920</ele>
        <time>2015-05-30T09:21:58Z</time>
      </trkpt>
      <trkpt lat="42.83442" lon="0.12063">
        <ele>2922</ele>
        <time>2015-05-30T09:22:13Z</time>
      </trkpt>
      <trkpt lat="42.83437" lon="0.1206">
        <ele>2923</ele>
        <time>2015-05-30T09:22:29Z</time>
      </trkpt>
      <trkpt lat="42.83434" lon="0.12057">
        <ele>2924</ele>
        <time>2015-05-30T09:22:43Z</time>
      </trkpt>
      <trkpt lat="42.83431" lon="0.12052">
        <ele>2925</ele>
        <time>2015-05-30T09:23:00Z</time>
      </trkpt>
      <trkpt lat="42.83428" lon="0.1205">
        <ele>2926</ele>
        <time>2015-05-30T09:23:15Z</time>
      </trkpt>
      <trkpt lat="42.83428" lon="0.12051">
        <ele>2927</ele>
        <time>2015-05-30T09:23:33Z</time>
      </trkpt>
      <trkpt lat="42.83429" lon="0.12052">
        <ele>2927</ele>
        <time>2015-05-30T09:23:52Z</time>
      </trkpt>
      <trkpt lat="42.8343" lon="0.12053">
        <ele>2919</ele>
        <time>2015-05-30T09:24:15Z</time>
      </trkpt>
      <trkpt lat="42.83431" lon="0.12053">
        <ele>2929</ele>
        <time>2015-05-30T09:24:16Z</time>
      </trkpt>
      <trkpt lat="42.83432" lon="0.12053">
        <ele>2936</ele>
        <time>2015-05-30T09:24:17Z</time>
      </trkpt>
      <trkpt lat="42.83432" lon="0.12053">
        <ele>2921</ele>
        <time>2015-05-30T09:24:18Z</time>
      </trkpt>
      <trkpt lat="42.83432" lon="0.12052">
        <ele>2935</ele>
        <time>2015-05-30T09:24:19Z</time>
      </trkpt>
      <trkpt lat="42.83432" lon="0.12052">
        <ele>2928</ele>
        <time>2015-05-30T09:24:20Z</time>
      </trkpt>
      <trkpt lat="42.8343" lon="0.12051">
        <ele>2926</ele>
        <time>2015-05-30T09:24:22Z</time>
      </trkpt>
      <trkpt lat="42.83429" lon="0.1205">
        <ele>2925</ele>
        <time>2015-05-30T09:24:40Z</time>
      </trkpt>
      <trkpt lat="42.83431" lon="0.1205">
        <ele>2926</ele>
        <time>2015-05-30T09:25:04Z</time>
      </trkpt>
      <trkpt lat="42.83429" lon="0.1205">
        <ele>2926</ele>
        <time>2015-05-30T09:25:27Z</time>
      </trkpt>
      <trkpt lat="42.8343" lon="0.12049">
        <ele>2925</ele>
        <time>2015-05-30T09:25:49Z</time>
      </trkpt>
      <trkpt lat="42.83431" lon="0.1205">
        <ele>2925</ele>
        <time>2015-05-30T09:26:15Z</time>
      </trkpt>
      <trkpt lat="42.8343" lon="0.12048">
        <ele>2925</ele>
        <time>2015-05-30T09:26:37Z</time>
      </trkpt>
      <trkpt lat="42.83431" lon="0.12048">
        <ele>2925</ele>
        <time>2015-05-30T09:26:58Z</time>
      </trkpt>
      <trkpt lat="42.83431" lon="0.12048">
        <ele>2924</ele>
        <time>2015-05-30T09:27:22Z</time>
      </trkpt>
      <trkpt lat="42.8343" lon="0.12049">
        <ele>2925</ele>
        <time>2015-05-30T09:27:41Z</time>
      </trkpt>
      <trkpt lat="42.8343" lon="0.12049">
        <ele>2925</ele>
        <time>2015-05-30T09:28:01Z</time>
      </trkpt>
      <trkpt lat="42.83431" lon="0.1205">
        <ele>2925</ele>
        <time>2015-05-30T09:28:24Z</time>
      </trkpt>
      <trkpt lat="42.83429" lon="0.12052">
        <ele>2925</ele>
        <time>2015-05-30T09:28:56Z</time>
      </trkpt>
      <trkpt lat="42.83429" lon="0.12049">
        <ele>2924</ele>
        <time>2015-05-30T09:29:15Z</time>
      </trkpt>
      <trkpt lat="42.8343" lon="0.12052">
        <ele>2925</ele>
        <time>2015-05-30T09:29:30Z</time>
      </trkpt>
      <trkpt lat="42.83429" lon="0.12053">
        <ele>2924</ele>
        <time>2015-05-30T09:29:49Z</time>
      </trkpt>
      <trkpt lat="42.83428" lon="0.12053">
        <ele>2924</ele>
        <time>2015-05-30T09:30:13Z</time>
      </trkpt>
      <trkpt lat="42.83428" lon="0.12052">
        <ele>2924</ele>
        <time>2015-05-30T09:30:36Z</time>
      </trkpt>
      <trkpt lat="42.83433" lon="0.12051">
        <ele>2924</ele>
        <time>2015-05-30T09:30:56Z</time>
      </trkpt>
      <trkpt lat="42.83434" lon="0.12051">
        <ele>2924</ele>
        <time>2015-05-30T09:31:22Z</time>
      </trkpt>
      <trkpt lat="42.8343" lon="0.1205">
        <ele>2925</ele>
        <time>2015-05-30T09:31:46Z</time>
      </trkpt>
      <trkpt lat="42.83431" lon="0.12049">
        <ele>2925</ele>
        <time>2015-05-30T09:32:08Z</time>
      </trkpt>
      <trkpt lat="42.83429" lon="0.12051">
        <ele>2926</ele>
        <time>2015-05-30T09:32:27Z</time>
      </trkpt>
      <trkpt lat="42.83428" lon="0.12051">
        <ele>2926</ele>
        <time>2015-05-30T09:32:55Z</time>
      </trkpt>
      <trkpt lat="42.8343" lon="0.12049">
        <ele>2926</ele>
        <time>2015-05-30T09:33:16Z</time>
      </trkpt>
      <trkpt lat="42.83434" lon="0.12051">
        <ele>2926</ele>
        <time>2015-05-30T09:33:32Z</time>
      </trkpt>
      <trkpt lat="42.83433" lon="0.12049">
        <ele>2926</ele>
        <time>2015-05-30T09:33:56Z</time>
      </trkpt>
      <trkpt lat="42.83434" lon="0.12048">
        <ele>2926</ele>
        <time>2015-05-30T09:34:15Z</time>
      </trkpt>
      <trkpt lat="42.83439" lon="0.12047">
        <ele>2926</ele>
        <time>2015-05-30T09:34:41Z</time>
      </trkpt>
      <trkpt lat="42.8344" lon="0.12055">
        <ele>2926</ele>
        <time>2015-05-30T09:35:01Z</time>
      </trkpt>
      <trkpt lat="42.83441" lon="0.12056">
        <ele>2926</ele>
        <time>2015-05-30T09:35:05Z</time>
      </trkpt>
      <trkpt lat="42.83449" lon="0.12061">
        <ele>2923</ele>
        <time>2015-05-30T09:35:11Z</time>
      </trkpt>
      <trkpt lat="42.83453" lon="0.12064">
        <ele>2921</ele>
        <time>2015-05-30T09:35:14Z</time>
      </trkpt>
      <trkpt lat="42.83446" lon="0.12064">
        <ele>2917</ele>
        <time>2015-05-30T09:35:17Z</time>
      </trkpt>
      <trkpt lat="42.83442" lon="0.12068">
        <ele>2915</ele>
        <time>2015-05-30T09:35:19Z</time>
      </trkpt>
      <trkpt lat="42.83442" lon="0.12076">
        <ele>2911</ele>
        <time>2015-05-30T09:35:22Z</time>
      </trkpt>
      <trkpt lat="42.83443" lon="0.12083">
        <ele>2908</ele>
        <time>2015-05-30T09:35:24Z</time>
      </trkpt>
      <trkpt lat="42.83435" lon="0.12089">
        <ele>2904</ele>
        <time>2015-05-30T09:35:27Z</time>
      </trkpt>
      <trkpt lat="42.83436" lon="0.12099">
        <ele>2899</ele>
        <time>2015-05-30T09:35:30Z</time>
      </trkpt>
      <trkpt lat="42.83432" lon="0.12106">
        <ele>2895</ele>
        <time>2015-05-30T09:35:32Z</time>
      </trkpt>
      <trkpt lat="42.83433" lon="0.12113">
        <ele>2891</ele>
        <time>2015-05-30T09:35:34Z</time>
      </trkpt>
      <trkpt lat="42.83431" lon="0.12121">
        <ele>2887</ele>
        <time>2015-05-30T09:35:37Z</time>
      </trkpt>
      <trkpt lat="42.83427" lon="0.12125">
        <ele>2885</ele>
        <time>2015-05-30T09:35:49Z</time>
      </trkpt>
      <trkpt lat="42.83424" lon="0.12129">
        <ele>2884</ele>
        <time>2015-05-30T09:35:55Z</time>
      </trkpt>
      <trkpt lat="42.83413" lon="0.12139">
        <ele>2879</ele>
        <time>2015-05-30T09:35:58Z</time>
      </trkpt>
      <trkpt lat="42.83404" lon="0.1215">
        <ele>2875</ele>
        <time>2015-05-30T09:36:03Z</time>
      </trkpt>
      <trkpt lat="42.83402" lon="0.12155">
        <ele>2874</ele>
        <time>2015-05-30T09:36:05Z</time>
      </trkpt>
      <trkpt lat="42.83404" lon="0.12163">
        <ele>2869</ele>
        <time>2015-05-30T09:36:08Z</time>
      </trkpt>
      <trkpt lat="42.83407" lon="0.12165">
        <ele>2867</ele>
        <time>2015-05-30T09:36:09Z</time>
      </trkpt>
      <trkpt lat="42.83413" lon="0.12175">
        <ele>2860</ele>
        <time>2015-05-30T09:36:11Z</time>
      </trkpt>
      <trkpt lat="42.83418" lon="0.12187">
        <ele>2857</ele>
        <time>2015-05-30T09:36:14Z</time>
      </trkpt>
      <trkpt lat="42.83419" lon="0.12191">
        <ele>2853</ele>
        <time>2015-05-30T09:36:15Z</time>
      </trkpt>
      <trkpt lat="42.83424" lon="0.12202">
        <ele>2849</ele>
        <time>2015-05-30T09:36:17Z</time>
      </trkpt>
      <trkpt lat="42.83433" lon="0.12212">
        <ele>2843</ele>
        <time>2015-05-30T09:36:19Z</time>
      </trkpt>
      <trkpt lat="42.8344" lon="0.12223">
        <ele>2840</ele>
        <time>2015-05-30T09:36:21Z</time>
      </trkpt>
      <trkpt lat="42.83449" lon="0.12231">
        <ele>2834</ele>
        <time>2015-05-30T09:36:23Z</time>
      </trkpt>
      <trkpt lat="42.83452" lon="0.12234">
        <ele>2832</ele>
        <time>2015-05-30T09:36:24Z</time>
      </trkpt>
      <trkpt lat="42.83456" lon="0.12238">
        <ele>2830</ele>
        <time>2015-05-30T09:36:25Z</time>
      </trkpt>
      <trkpt lat="42.83458" lon="0.12243">
        <ele>2829</ele>
        <time>2015-05-30T09:36:26Z</time>
      </trkpt>
      <trkpt lat="42.8346" lon="0.12248">
        <ele>2827</ele>
        <time>2015-05-30T09:36:27Z</time>
      </trkpt>
      <trkpt lat="42.83442" lon="0.12281">
        <ele>2824</ele>
        <time>2015-05-30T09:36:30Z</time>
      </trkpt>
      <trkpt lat="42.8344" lon="0.12299">
        <ele>2823</ele>
        <time>2015-05-30T09:36:32Z</time>
      </trkpt>
      <trkpt lat="42.83441" lon="0.12305">
        <ele>2819</ele>
        <time>2015-05-30T09:36:33Z</time>
      </trkpt>
      <trkpt lat="42.83445" lon="0.1231">
        <ele>2817</ele>
        <time>2015-05-30T09:36:34Z</time>
      </trkpt>
      <trkpt lat="42.83442" lon="0.12332">
        <ele>2812</ele>
        <time>2015-05-30T09:36:36Z</time>
      </trkpt>
      <trkpt lat="42.83439" lon="0.12342">
        <ele>2810</ele>
        <time>2015-05-30T09:36:37Z</time>
      </trkpt>
      <trkpt lat="42.83427" lon="0.1238">
        <ele>2804</ele>
        <time>2015-05-30T09:36:41Z</time>
      </trkpt>
      <trkpt lat="42.83425" lon="0.12384">
        <ele>2805</ele>
        <time>2015-05-30T09:36:42Z</time>
      </trkpt>
      <trkpt lat="42.834" lon="0.12394">
        <ele>2803</ele>
        <time>2015-05-30T09:36:51Z</time>
      </trkpt>
      <trkpt lat="42.83397" lon="0.12389">
        <ele>2804</ele>
        <time>2015-05-30T09:36:56Z</time>
      </trkpt>
      <trkpt lat="42.83397" lon="0.124">
        <ele>2800</ele>
        <time>2015-05-30T09:36:59Z</time>
      </trkpt>
      <trkpt lat="42.834" lon="0.12414">
        <ele>2796</ele>
        <time>2015-05-30T09:37:01Z</time>
      </trkpt>
      <trkpt lat="42.83403" lon="0.12427">
        <ele>2792</ele>
        <time>2015-05-30T09:37:03Z</time>
      </trkpt>
      <trkpt lat="42.83402" lon="0.12434">
        <ele>2788</ele>
        <time>2015-05-30T09:37:05Z</time>
      </trkpt>
      <trkpt lat="42.83398" lon="0.12436">
        <ele>2787</ele>
        <time>2015-05-30T09:37:06Z</time>
      </trkpt>
      <trkpt lat="42.83375" lon="0.12442">
        <ele>2783</ele>
        <time>2015-05-30T09:37:11Z</time>
      </trkpt>
      <trkpt lat="42.83372" lon="0.12452">
        <ele>2777</ele>
        <time>2015-05-30T09:37:13Z</time>
      </trkpt>
      <trkpt lat="42.8337" lon="0.12461">
        <ele>2774</ele>
        <time>2015-05-30T09:37:15Z</time>
      </trkpt>
      <trkpt lat="42.83363" lon="0.1247">
        <ele>2769</ele>
        <time>2015-05-30T09:37:17Z</time>
      </trkpt>
      <trkpt lat="42.83351" lon="0.12476">
        <ele>2766</ele>
        <time>2015-05-30T09:37:20Z</time>
      </trkpt>
      <trkpt lat="42.83336" lon="0.12487">
        <ele>2762</ele>
        <time>2015-05-30T09:37:24Z</time>
      </trkpt>
      <trkpt lat="42.83328" lon="0.12499">
        <ele>2756</ele>
        <time>2015-05-30T09:37:27Z</time>
      </trkpt>
      <trkpt lat="42.83327" lon="0.12503">
        <ele>2753</ele>
        <time>2015-05-30T09:37:28Z</time>
      </trkpt>
      <trkpt lat="42.83331" lon="0.12522">
        <ele>2746</ele>
        <time>2015-05-30T09:37:31Z</time>
      </trkpt>
      <trkpt lat="42.83332" lon="0.12536">
        <ele>2740</ele>
        <time>2015-05-30T09:37:33Z</time>
      </trkpt>
      <trkpt lat="42.83332" lon="0.12544">
        <ele>2738</ele>
        <time>2015-05-30T09:37:34Z</time>
      </trkpt>
      <trkpt lat="42.83332" lon="0.12566">
        <ele>2730</ele>
        <time>2015-05-30T09:37:37Z</time>
      </trkpt>
      <trkpt lat="42.83325" lon="0.12578">
        <ele>2725</ele>
        <time>2015-05-30T09:37:39Z</time>
      </trkpt>
      <trkpt lat="42.83318" lon="0.12598">
        <ele>2716</ele>
        <time>2015-05-30T09:37:42Z</time>
      </trkpt>
      <trkpt lat="42.83314" lon="0.12604">
        <ele>2713</ele>
        <time>2015-05-30T09:37:43Z</time>
      </trkpt>
      <trkpt lat="42.83308" lon="0.12616">
        <ele>2708</ele>
        <time>2015-05-30T09:37:45Z</time>
      </trkpt>
      <trkpt lat="42.83308" lon="0.12629">
        <ele>2702</ele>
        <time>2015-05-30T09:37:47Z</time>
      </trkpt>
      <trkpt lat="42.83305" lon="0.12637">
        <ele>2699</ele>
        <time>2015-05-30T09:37:49Z</time>
      </trkpt>
      <trkpt lat="42.83292" lon="0.12645">
        <ele>2696</ele>
        <time>2015-05-30T09:37:53Z</time>
      </trkpt>
      <trkpt lat="42.83281" lon="0.12652">
        <ele>2694</ele>
        <time>2015-05-30T09:37:56Z</time>
      </trkpt>
      <trkpt lat="42.83267" lon="0.12658">
        <ele>2689</ele>
        <time>2015-05-30T09:38:01Z</time>
      </trkpt>
      <trkpt lat="42.83273" lon="0.12667">
        <ele>2686</ele>
        <time>2015-05-30T09:38:03Z</time>
      </trkpt>
      <trkpt lat="42.83287" lon="0.12685">
        <ele>2682</ele>
        <time>2015-05-30T09:38:14Z</time>
      </trkpt>
      <trkpt lat="42.83292" lon="0.12688">
        <ele>2683</ele>
        <time>2015-05-30T09:38:33Z</time>
      </trkpt>
      <trkpt lat="42.83287" lon="0.127">
        <ele>2679</ele>
        <time>2015-05-30T09:38:38Z</time>
      </trkpt>
      <trkpt lat="42.83299" lon="0.12714">
        <ele>2672</ele>
        <time>2015-05-30T09:38:41Z</time>
      </trkpt>
      <trkpt lat="42.83301" lon="0.1272">
        <ele>2667</ele>
        <time>2015-05-30T09:38:42Z</time>
      </trkpt>
      <trkpt lat="42.83302" lon="0.12727">
        <ele>2665</ele>
        <time>2015-05-30T09:38:43Z</time>
      </trkpt>
      <trkpt lat="42.83306" lon="0.12741">
        <ele>2661</ele>
        <time>2015-05-30T09:38:45Z</time>
      </trkpt>
      <trkpt lat="42.83309" lon="0.12748">
        <ele>2657</ele>
        <time>2015-05-30T09:38:46Z</time>
      </trkpt>
      <trkpt lat="42.83312" lon="0.12753">
        <ele>2656</ele>
        <time>2015-05-30T09:38:47Z</time>
      </trkpt>
      <trkpt lat="42.83319" lon="0.1276">
        <ele>2650</ele>
        <time>2015-05-30T09:38:49Z</time>
      </trkpt>
      <trkpt lat="42.83323" lon="0.12765">
        <ele>2648</ele>
        <time>2015-05-30T09:38:50Z</time>
      </trkpt>
      <trkpt lat="42.83325" lon="0.12771">
        <ele>2643</ele>
        <time>2015-05-30T09:38:51Z</time>
      </trkpt>
      <trkpt lat="42.83326" lon="0.12773">
        <ele>2642</ele>
        <time>2015-05-30T09:38:52Z</time>
      </trkpt>
      <trkpt lat="42.83327" lon="0.12778">
        <ele>2640</ele>
        <time>2015-05-30T09:38:53Z</time>
      </trkpt>
      <trkpt lat="42.83301" lon="0.12815">
        <ele>2636</ele>
        <time>2015-05-30T09:38:56Z</time>
      </trkpt>
      <trkpt lat="42.83295" lon="0.12823">
        <ele>2635</ele>
        <time>2015-05-30T09:38:57Z</time>
      </trkpt>
      <trkpt lat="42.83277" lon="0.12856">
        <ele>2631</ele>
        <time>2015-05-30T09:39:02Z</time>
      </trkpt>
      <trkpt lat="42.8328" lon="0.1287">
        <ele>2625</ele>
        <time>2015-05-30T09:39:05Z</time>
      </trkpt>
      <trkpt lat="42.83281" lon="0.12878">
        <ele>2621</ele>
        <time>2015-05-30T09:39:06Z</time>
      </trkpt>
      <trkpt lat="42.83283" lon="0.12888">
        <ele>2616</ele>
        <time>2015-05-30T09:39:08Z</time>
      </trkpt>
      <trkpt lat="42.83289" lon="0.129">
        <ele>2612</ele>
        <time>2015-05-30T09:39:10Z</time>
      </trkpt>
      <trkpt lat="42.8329" lon="0.12908">
        <ele>2610</ele>
        <time>2015-05-30T09:39:11Z</time>
      </trkpt>
      <trkpt lat="42.83291" lon="0.1292">
        <ele>2609</ele>
        <time>2015-05-30T09:39:13Z</time>
      </trkpt>
      <trkpt lat="42.83284" lon="0.12948">
        <ele>2605</ele>
        <time>2015-05-30T09:39:16Z</time>
      </trkpt>
      <trkpt lat="42.83276" lon="0.12965">
        <ele>2602</ele>
        <time>2015-05-30T09:39:24Z</time>
      </trkpt>
      <trkpt lat="42.83269" lon="0.12963">
        <ele>2603</ele>
        <time>2015-05-30T09:39:39Z</time>
      </trkpt>
      <trkpt lat="42.83276" lon="0.12969">
        <ele>2599</ele>
        <time>2015-05-30T09:39:42Z</time>
      </trkpt>
      <trkpt lat="42.83278" lon="0.12979">
        <ele>2594</ele>
        <time>2015-05-30T09:39:44Z</time>
      </trkpt>
      <trkpt lat="42.83274" lon="0.12993">
        <ele>2591</ele>
        <time>2015-05-30T09:39:46Z</time>
      </trkpt>
      <trkpt lat="42.8327" lon="0.12999">
        <ele>2589</ele>
        <time>2015-05-30T09:39:47Z</time>
      </trkpt>
      <trkpt lat="42.83258" lon="0.13019">
        <ele>2585</ele>
        <time>2015-05-30T09:39:51Z</time>
      </trkpt>
      <trkpt lat="42.83254" lon="0.13025">
        <ele>2584</ele>
        <time>2015-05-30T09:39:52Z</time>
      </trkpt>
      <trkpt lat="42.83248" lon="0.13041">
        <ele>2582</ele>
        <time>2015-05-30T09:39:55Z</time>
      </trkpt>
      <trkpt lat="42.83249" lon="0.1305">
        <ele>2576</ele>
        <time>2015-05-30T09:39:58Z</time>
      </trkpt>
      <trkpt lat="42.83256" lon="0.13053">
        <ele>2571</ele>
        <time>2015-05-30T09:40:00Z</time>
      </trkpt>
      <trkpt lat="42.83255" lon="0.13059">
        <ele>2568</ele>
        <time>2015-05-30T09:40:01Z</time>
      </trkpt>
      <trkpt lat="42.83253" lon="0.13066">
        <ele>2566</ele>
        <time>2015-05-30T09:40:02Z</time>
      </trkpt>
      <trkpt lat="42.83255" lon="0.13072">
        <ele>2563</ele>
        <time>2015-05-30T09:40:04Z</time>
      </trkpt>
      <trkpt lat="42.83256" lon="0.13074">
        <ele>2562</ele>
        <time>2015-05-30T09:40:05Z</time>
      </trkpt>
      <trkpt lat="42.8326" lon="0.13076">
        <ele>2557</ele>
        <time>2015-05-30T09:40:07Z</time>
      </trkpt>
      <trkpt lat="42.83257" lon="0.13083">
        <ele>2555</ele>
        <time>2015-05-30T09:40:08Z</time>
      </trkpt>
      <trkpt lat="42.83251" lon="0.13099">
        <ele>2551</ele>
        <time>2015-05-30T09:40:10Z</time>
      </trkpt>
      <trkpt lat="42.8325" lon="0.13104">
        <ele>2551</ele>
        <time>2015-05-30T09:40:11Z</time>
      </trkpt>
      <trkpt lat="42.83245" lon="0.13126">
        <ele>2548</ele>
        <time>2015-05-30T09:40:14Z</time>
      </trkpt>
      <trkpt lat="42.83241" lon="0.13141">
        <ele>2544</ele>
        <time>2015-05-30T09:40:16Z</time>
      </trkpt>
      <trkpt lat="42.83239" lon="0.1315">
        <ele>2542</ele>
        <time>2015-05-30T09:40:17Z</time>
      </trkpt>
      <trkpt lat="42.83236" lon="0.13158">
        <ele>2541</ele>
        <time>2015-05-30T09:40:18Z</time>
      </trkpt>
      <trkpt lat="42.83232" lon="0.13177">
        <ele>2538</ele>
        <time>2015-05-30T09:40:20Z</time>
      </trkpt>
      <trkpt lat="42.83224" lon="0.13202">
        <ele>2535</ele>
        <time>2015-05-30T09:40:24Z</time>
      </trkpt>
      <trkpt lat="42.83228" lon="0.13208">
        <ele>2531</ele>
        <time>2015-05-30T09:40:26Z</time>
      </trkpt>
      <trkpt lat="42.83238" lon="0.1321">
        <ele>2528</ele>
        <time>2015-05-30T09:40:28Z</time>
      </trkpt>
      <trkpt lat="42.83241" lon="0.13212">
        <ele>2525</ele>
        <time>2015-05-30T09:40:29Z</time>
      </trkpt>
      <trkpt lat="42.83245" lon="0.13216">
        <ele>2521</ele>
        <time>2015-05-30T09:40:31Z</time>
      </trkpt>
      <trkpt lat="42.83246" lon="0.13218">
        <ele>2521</ele>
        <time>2015-05-30T09:40:32Z</time>
      </trkpt>
      <trkpt lat="42.83245" lon="0.13226">
        <ele>2519</ele>
        <time>2015-05-30T09:40:33Z</time>
      </trkpt>
      <trkpt lat="42.83248" lon="0.13232">
        <ele>2517</ele>
        <time>2015-05-30T09:40:34Z</time>
      </trkpt>
      <trkpt lat="42.83262" lon="0.13237">
        <ele>2512</ele>
        <time>2015-05-30T09:40:37Z</time>
      </trkpt>
      <trkpt lat="42.83264" lon="0.1324">
        <ele>2511</ele>
        <time>2015-05-30T09:40:38Z</time>
      </trkpt>
      <trkpt lat="42.83266" lon="0.13244">
        <ele>2510</ele>
        <time>2015-05-30T09:40:39Z</time>
      </trkpt>
      <trkpt lat="42.83253" lon="0.1326">
        <ele>2510</ele>
        <time>2015-05-30T09:40:42Z</time>
      </trkpt>
      <trkpt lat="42.83221" lon="0.13269">
        <ele>2511</ele>
        <time>2015-05-30T09:40:51Z</time>
      </trkpt>
      <trkpt lat="42.83203" lon="0.13249">
        <ele>2511</ele>
        <time>2015-05-30T09:41:04Z</time>
      </trkpt>
      <trkpt lat="42.83209" lon="0.13261">
        <ele>2507</ele>
        <time>2015-05-30T09:41:08Z</time>
      </trkpt>
      <trkpt lat="42.83211" lon="0.1328">
        <ele>2501</ele>
        <time>2015-05-30T09:41:12Z</time>
      </trkpt>
      <trkpt lat="42.83212" lon="0.13298">
        <ele>2498</ele>
        <time>2015-05-30T09:41:15Z</time>
      </trkpt>
      <trkpt lat="42.83207" lon="0.13321">
        <ele>2494</ele>
        <time>2015-05-30T09:41:18Z</time>
      </trkpt>
      <trkpt lat="42.83207" lon="0.13327">
        <ele>2493</ele>
        <time>2015-05-30T09:41:19Z</time>
      </trkpt>
      <trkpt lat="42.83202" lon="0.13374">
        <ele>2492</ele>
        <time>2015-05-30T09:41:30Z</time>
      </trkpt>
      <trkpt lat="42.83195" lon="0.13383">
        <ele>2490</ele>
        <time>2015-05-30T09:41:35Z</time>
      </trkpt>
      <trkpt lat="42.83196" lon="0.13389">
        <ele>2488</ele>
        <time>2015-05-30T09:41:37Z</time>
      </trkpt>
      <trkpt lat="42.83193" lon="0.13401">
        <ele>2484</ele>
        <time>2015-05-30T09:41:41Z</time>
      </trkpt>
      <trkpt lat="42.83197" lon="0.13415">
        <ele>2481</ele>
        <time>2015-05-30T09:41:44Z</time>
      </trkpt>
      <trkpt lat="42.83196" lon="0.13423">
        <ele>2478</ele>
        <time>2015-05-30T09:41:45Z</time>
      </trkpt>
      <trkpt lat="42.83192" lon="0.13444">
        <ele>2476</ele>
        <time>2015-05-30T09:41:48Z</time>
      </trkpt>
      <trkpt lat="42.83189" lon="0.13476">
        <ele>2473</ele>
        <time>2015-05-30T09:41:53Z</time>
      </trkpt>
      <trkpt lat="42.83188" lon="0.13482">
        <ele>2472</ele>
        <time>2015-05-30T09:41:54Z</time>
      </trkpt>
      <trkpt lat="42.83184" lon="0.13506">
        <ele>2468</ele>
        <time>2015-05-30T09:41:57Z</time>
      </trkpt>
      <trkpt lat="42.83179" lon="0.13537">
        <ele>2464</ele>
        <time>2015-05-30T09:42:01Z</time>
      </trkpt>
      <trkpt lat="42.83178" lon="0.13544">
        <ele>2463</ele>
        <time>2015-05-30T09:42:02Z</time>
      </trkpt>
      <trkpt lat="42.83177" lon="0.13563">
        <ele>2463</ele>
        <time>2015-05-30T09:42:10Z</time>
      </trkpt>
      <trkpt lat="42.83177" lon="0.13571">
        <ele>2462</ele>
        <time>2015-05-30T09:42:22Z</time>
      </trkpt>
      <trkpt lat="42.83176" lon="0.13564">
        <ele>2462</ele>
        <time>2015-05-30T09:42:27Z</time>
      </trkpt>
      <trkpt lat="42.83185" lon="0.1355">
        <ele>2459</ele>
        <time>2015-05-30T09:42:32Z</time>
      </trkpt>
      <trkpt lat="42.83195" lon="0.13553">
        <ele>2454</ele>
        <time>2015-05-30T09:42:36Z</time>
      </trkpt>
      <trkpt lat="42.83203" lon="0.13551">
        <ele>2450</ele>
        <time>2015-05-30T09:42:39Z</time>
      </trkpt>
      <trkpt lat="42.83204" lon="0.13555">
        <ele>2448</ele>
        <time>2015-05-30T09:42:40Z</time>
      </trkpt>
      <trkpt lat="42.83211" lon="0.13561">
        <ele>2441</ele>
        <time>2015-05-30T09:42:45Z</time>
      </trkpt>
      <trkpt lat="42.83214" lon="0.1356">
        <ele>2440</ele>
        <time>2015-05-30T09:42:46Z</time>
      </trkpt>
      <trkpt lat="42.83219" lon="0.1357">
        <ele>2435</ele>
        <time>2015-05-30T09:42:50Z</time>
      </trkpt>
      <trkpt lat="42.8322" lon="0.13584">
        <ele>2431</ele>
        <time>2015-05-30T09:42:54Z</time>
      </trkpt>
      <trkpt lat="42.8322" lon="0.13587">
        <ele>2430</ele>
        <time>2015-05-30T09:42:55Z</time>
      </trkpt>
      <trkpt lat="42.8322" lon="0.13599">
        <ele>2427</ele>
        <time>2015-05-30T09:42:58Z</time>
      </trkpt>
      <trkpt lat="42.8322" lon="0.13609">
        <ele>2424</ele>
        <time>2015-05-30T09:43:00Z</time>
      </trkpt>
      <trkpt lat="42.83218" lon="0.13623">
        <ele>2420</ele>
        <time>2015-05-30T09:43:03Z</time>
      </trkpt>
      <trkpt lat="42.83215" lon="0.13633">
        <ele>2418</ele>
        <time>2015-05-30T09:43:05Z</time>
      </trkpt>
      <trkpt lat="42.83217" lon="0.13639">
        <ele>2417</ele>
        <time>2015-05-30T09:43:07Z</time>
      </trkpt>
      <trkpt lat="42.83231" lon="0.1362">
        <ele>2413</ele>
        <time>2015-05-30T09:43:11Z</time>
      </trkpt>
      <trkpt lat="42.83235" lon="0.13621">
        <ele>2413</ele>
        <time>2015-05-30T09:43:12Z</time>
      </trkpt>
      <trkpt lat="42.83234" lon="0.13634">
        <ele>2407</ele>
        <time>2015-05-30T09:43:15Z</time>
      </trkpt>
      <trkpt lat="42.83232" lon="0.13641">
        <ele>2405</ele>
        <time>2015-05-30T09:43:16Z</time>
      </trkpt>
      <trkpt lat="42.83229" lon="0.13679">
        <ele>2401</ele>
        <time>2015-05-30T09:43:21Z</time>
      </trkpt>
      <trkpt lat="42.83226" lon="0.13679">
        <ele>2402</ele>
        <time>2015-05-30T09:43:30Z</time>
      </trkpt>
      <trkpt lat="42.83226" lon="0.1368">
        <ele>2401</ele>
        <time>2015-05-30T09:43:34Z</time>
      </trkpt>
      <trkpt lat="42.83231" lon="0.1369">
        <ele>2399</ele>
        <time>2015-05-30T09:43:38Z</time>
      </trkpt>
      <trkpt lat="42.83235" lon="0.13695">
        <ele>2395</ele>
        <time>2015-05-30T09:43:40Z</time>
      </trkpt>
      <trkpt lat="42.83231" lon="0.13705">
        <ele>2392</ele>
        <time>2015-05-30T09:43:42Z</time>
      </trkpt>
      <trkpt lat="42.83225" lon="0.13722">
        <ele>2390</ele>
        <time>2015-05-30T09:43:45Z</time>
      </trkpt>
      <trkpt lat="42.83222" lon="0.1374">
        <ele>2388</ele>
        <time>2015-05-30T09:43:48Z</time>
      </trkpt>
      <trkpt lat="42.83222" lon="0.13753">
        <ele>2387</ele>
        <time>2015-05-30T09:43:50Z</time>
      </trkpt>
      <trkpt lat="42.8323" lon="0.13757">
        <ele>2382</ele>
        <time>2015-05-30T09:43:54Z</time>
      </trkpt>
      <trkpt lat="42.8324" lon="0.13746">
        <ele>2377</ele>
        <time>2015-05-30T09:43:58Z</time>
      </trkpt>
      <trkpt lat="42.8324" lon="0.13775">
        <ele>2374</ele>
        <time>2015-05-30T09:44:03Z</time>
      </trkpt>
      <trkpt lat="42.83244" lon="0.13784">
        <ele>2372</ele>
        <time>2015-05-30T09:44:06Z</time>
      </trkpt>
      <trkpt lat="42.83257" lon="0.13767">
        <ele>2367</ele>
        <time>2015-05-30T09:44:09Z</time>
      </trkpt>
      <trkpt lat="42.83261" lon="0.13771">
        <ele>2364</ele>
        <time>2015-05-30T09:44:11Z</time>
      </trkpt>
      <trkpt lat="42.83268" lon="0.13766">
        <ele>2360</ele>
        <time>2015-05-30T09:44:14Z</time>
      </trkpt>
      <trkpt lat="42.8327" lon="0.13763">
        <ele>2360</ele>
        <time>2015-05-30T09:44:15Z</time>
      </trkpt>
      <trkpt lat="42.83271" lon="0.13762">
        <ele>2360</ele>
        <time>2015-05-30T09:44:16Z</time>
      </trkpt>
      <trkpt lat="42.83272" lon="0.13772">
        <ele>2356</ele>
        <time>2015-05-30T09:44:19Z</time>
      </trkpt>
      <trkpt lat="42.83274" lon="0.1378">
        <ele>2355</ele>
        <time>2015-05-30T09:44:21Z</time>
      </trkpt>
      <trkpt lat="42.83284" lon="0.13787">
        <ele>2349</ele>
        <time>2015-05-30T09:44:24Z</time>
      </trkpt>
      <trkpt lat="42.83289" lon="0.13791">
        <ele>2348</ele>
        <time>2015-05-30T09:44:25Z</time>
      </trkpt>
      <trkpt lat="42.83288" lon="0.13819">
        <ele>2345</ele>
        <time>2015-05-30T09:44:29Z</time>
      </trkpt>
      <trkpt lat="42.83296" lon="0.13825">
        <ele>2342</ele>
        <time>2015-05-30T09:44:33Z</time>
      </trkpt>
      <trkpt lat="42.83299" lon="0.13823">
        <ele>2339</ele>
        <time>2015-05-30T09:44:34Z</time>
      </trkpt>
      <trkpt lat="42.8331" lon="0.13841">
        <ele>2337</ele>
        <time>2015-05-30T09:44:41Z</time>
      </trkpt>
      <trkpt lat="42.8331" lon="0.13841">
        <ele>2337</ele>
        <time>2015-05-30T09:44:48Z</time>
      </trkpt>
      <trkpt lat="42.83316" lon="0.13819">
        <ele>2333</ele>
        <time>2015-05-30T09:44:54Z</time>
      </trkpt>
      <trkpt lat="42.83324" lon="0.1382">
        <ele>2328</ele>
        <time>2015-05-30T09:44:57Z</time>
      </trkpt>
      <trkpt lat="42.83336" lon="0.13811">
        <ele>2324</ele>
        <time>2015-05-30T09:45:00Z</time>
      </trkpt>
      <trkpt lat="42.83344" lon="0.13807">
        <ele>2321</ele>
        <time>2015-05-30T09:45:02Z</time>
      </trkpt>
      <trkpt lat="42.83353" lon="0.13806">
        <ele>2320</ele>
        <time>2015-05-30T09:45:04Z</time>
      </trkpt>
      <trkpt lat="42.83358" lon="0.13804">
        <ele>2319</ele>
        <time>2015-05-30T09:45:05Z</time>
      </trkpt>
      <trkpt lat="42.83366" lon="0.138">
        <ele>2315</ele>
        <time>2015-05-30T09:45:07Z</time>
      </trkpt>
      <trkpt lat="42.83383" lon="0.13786">
        <ele>2311</ele>
        <time>2015-05-30T09:45:12Z</time>
      </trkpt>
      <trkpt lat="42.83386" lon="0.13783">
        <ele>2311</ele>
        <time>2015-05-30T09:45:13Z</time>
      </trkpt>
      <trkpt lat="42.83398" lon="0.13771">
        <ele>2309</ele>
        <time>2015-05-30T09:45:17Z</time>
      </trkpt>
      <trkpt lat="42.83401" lon="0.13769">
        <ele>2306</ele>
        <time>2015-05-30T09:45:20Z</time>
      </trkpt>
      <trkpt lat="42.83413" lon="0.13774">
        <ele>2302</ele>
        <time>2015-05-30T09:45:25Z</time>
      </trkpt>
      <trkpt lat="42.83417" lon="0.13775">
        <ele>2302</ele>
        <time>2015-05-30T09:45:26Z</time>
      </trkpt>
      <trkpt lat="42.83439" lon="0.13772">
        <ele>2298</ele>
        <time>2015-05-30T09:45:31Z</time>
      </trkpt>
      <trkpt lat="42.83444" lon="0.13767">
        <ele>2297</ele>
        <time>2015-05-30T09:45:32Z</time>
      </trkpt>
      <trkpt lat="42.83457" lon="0.13768">
        <ele>2294</ele>
        <time>2015-05-30T09:45:36Z</time>
      </trkpt>
      <trkpt lat="42.83461" lon="0.1379">
        <ele>2290</ele>
        <time>2015-05-30T09:45:42Z</time>
      </trkpt>
      <trkpt lat="42.83464" lon="0.13793">
        <ele>2290</ele>
        <time>2015-05-30T09:45:43Z</time>
      </trkpt>
      <trkpt lat="42.83468" lon="0.13818">
        <ele>2286</ele>
        <time>2015-05-30T09:45:48Z</time>
      </trkpt>
      <trkpt lat="42.83468" lon="0.13835">
        <ele>2285</ele>
        <time>2015-05-30T09:45:51Z</time>
      </trkpt>
      <trkpt lat="42.83475" lon="0.13838">
        <ele>2283</ele>
        <time>2015-05-30T09:45:55Z</time>
      </trkpt>
      <trkpt lat="42.83483" lon="0.13831">
        <ele>2279</ele>
        <time>2015-05-30T09:45:58Z</time>
      </trkpt>
      <trkpt lat="42.83483" lon="0.13833">
        <ele>2279</ele>
        <time>2015-05-30T09:45:59Z</time>
      </trkpt>
      <trkpt lat="42.83488" lon="0.13834">
        <ele>2277</ele>
        <time>2015-05-30T09:46:12Z</time>
      </trkpt>
      <trkpt lat="42.83491" lon="0.13837">
        <ele>2275</ele>
        <time>2015-05-30T09:46:23Z</time>
      </trkpt>
      <trkpt lat="42.83496" lon="0.13833">
        <ele>2276</ele>
        <time>2015-05-30T09:46:40Z</time>
      </trkpt>
      <trkpt lat="42.83495" lon="0.13835">
        <ele>2276</ele>
        <time>2015-05-30T09:46:58Z</time>
      </trkpt>
      <trkpt lat="42.83487" lon="0.13838">
        <ele>2275</ele>
        <time>2015-05-30T09:47:16Z</time>
      </trkpt>
      <trkpt lat="42.83483" lon="0.13842">
        <ele>2273</ele>
        <time>2015-05-30T09:47:30Z</time>
      </trkpt>
      <trkpt lat="42.83486" lon="0.13843">
        <ele>2273</ele>
        <time>2015-05-30T09:47:45Z</time>
      </trkpt>
      <trkpt lat="42.83488" lon="0.13848">
        <ele>2271</ele>
        <time>2015-05-30T09:47:55Z</time>
      </trkpt>
      <trkpt lat="42.83486" lon="0.13849">
        <ele>2269</ele>
        <time>2015-05-30T09:48:07Z</time>
      </trkpt>
      <trkpt lat="42.83486" lon="0.13849">
        <ele>2265</ele>
        <time>2015-05-30T09:48:20Z</time>
      </trkpt>
      <trkpt lat="42.83486" lon="0.13849">
        <ele>2266</ele>
        <time>2015-05-30T09:48:21Z</time>
      </trkpt>
      <trkpt lat="42.83486" lon="0.13849">
        <ele>2263</ele>
        <time>2015-05-30T09:48:23Z</time>
      </trkpt>
      <trkpt lat="42.83486" lon="0.13849">
        <ele>2280</ele>
        <time>2015-05-30T09:48:24Z</time>
      </trkpt>
      <trkpt lat="42.83486" lon="0.1385">
        <ele>2270</ele>
        <time>2015-05-30T09:48:25Z</time>
      </trkpt>
      <trkpt lat="42.83485" lon="0.13848">
        <ele>2269</ele>
        <time>2015-05-30T09:48:27Z</time>
      </trkpt>
      <trkpt lat="42.83481" lon="0.13852">
        <ele>2268</ele>
        <time>2015-05-30T09:48:48Z</time>
      </trkpt>
      <trkpt lat="42.83485" lon="0.13854">
        <ele>2269</ele>
        <time>2015-05-30T09:48:55Z</time>
      </trkpt>
      <trkpt lat="42.8349" lon="0.13856">
        <ele>2268</ele>
        <time>2015-05-30T09:48:58Z</time>
      </trkpt>
      <trkpt lat="42.83503" lon="0.13864">
        <ele>2261</ele>
        <time>2015-05-30T09:49:03Z</time>
      </trkpt>
      <trkpt lat="42.83517" lon="0.13871">
        <ele>2256</ele>
        <time>2015-05-30T09:49:07Z</time>
      </trkpt>
      <trkpt lat="42.83524" lon="0.13875">
        <ele>2253</ele>
        <time>2015-05-30T09:49:08Z</time>
      </trkpt>
      <trkpt lat="42.83537" lon="0.13879">
        <ele>2250</ele>
        <time>2015-05-30T09:49:11Z</time>
      </trkpt>
      <trkpt lat="42.83542" lon="0.13884">
        <ele>2250</ele>
        <time>2015-05-30T09:49:13Z</time>
      </trkpt>
      <trkpt lat="42.83559" lon="0.13891">
        <ele>2245</ele>
        <time>2015-05-30T09:49:18Z</time>
      </trkpt>
      <trkpt lat="42.83565" lon="0.13896">
        <ele>2243</ele>
        <time>2015-05-30T09:49:27Z</time>
      </trkpt>
      <trkpt lat="42.83561" lon="0.13898">
        <ele>2243</ele>
        <time>2015-05-30T09:49:51Z</time>
      </trkpt>
      <trkpt lat="42.83557" lon="0.13897">
        <ele>2242</ele>
        <time>2015-05-30T09:50:09Z</time>
      </trkpt>
      <trkpt lat="42.83558" lon="0.13897">
        <ele>2242</ele>
        <time>2015-05-30T09:50:26Z</time>
      </trkpt>
      <trkpt lat="42.8357" lon="0.1389">
        <ele>2241</ele>
        <time>2015-05-30T09:50:32Z</time>
      </trkpt>
      <trkpt lat="42.83574" lon="0.13888">
        <ele>2240</ele>
        <time>2015-05-30T09:50:33Z</time>
      </trkpt>
      <trkpt lat="42.83581" lon="0.13886">
        <ele>2240</ele>
        <time>2015-05-30T09:50:35Z</time>
      </trkpt>
      <trkpt lat="42.83599" lon="0.13875">
        <ele>2236</ele>
        <time>2015-05-30T09:50:40Z</time>
      </trkpt>
      <trkpt lat="42.83602" lon="0.13873">
        <ele>2236</ele>
        <time>2015-05-30T09:50:41Z</time>
      </trkpt>
      <trkpt lat="42.8361" lon="0.13866">
        <ele>2235</ele>
        <time>2015-05-30T09:50:44Z</time>
      </trkpt>
      <trkpt lat="42.83613" lon="0.13861">
        <ele>2235</ele>
        <time>2015-05-30T09:50:46Z</time>
      </trkpt>
      <trkpt lat="42.83635" lon="0.13864">
        <ele>2231</ele>
        <time>2015-05-30T09:50:54Z</time>
      </trkpt>
      <trkpt lat="42.83637" lon="0.13868">
        <ele>2230</ele>
        <time>2015-05-30T09:50:55Z</time>
      </trkpt>
      <trkpt lat="42.83651" lon="0.13879">
        <ele>2227</ele>
        <time>2015-05-30T09:50:59Z</time>
      </trkpt>
      <trkpt lat="42.83654" lon="0.13883">
        <ele>2227</ele>
        <time>2015-05-30T09:51:00Z</time>
      </trkpt>
      <trkpt lat="42.83668" lon="0.13884">
        <ele>2223</ele>
        <time>2015-05-30T09:51:04Z</time>
      </trkpt>
      <trkpt lat="42.83674" lon="0.13903">
        <ele>2220</ele>
        <time>2015-05-30T09:51:09Z</time>
      </trkpt>
      <trkpt lat="42.83674" lon="0.13909">
        <ele>2219</ele>
        <time>2015-05-30T09:51:17Z</time>
      </trkpt>
      <trkpt lat="42.83673" lon="0.1391">
        <ele>2219</ele>
        <time>2015-05-30T09:51:35Z</time>
      </trkpt>
      <trkpt lat="42.83672" lon="0.13907">
        <ele>2218</ele>
        <time>2015-05-30T09:51:56Z</time>
      </trkpt>
      <trkpt lat="42.83671" lon="0.13906">
        <ele>2218</ele>
        <time>2015-05-30T09:52:15Z</time>
      </trkpt>
      <trkpt lat="42.8367" lon="0.13907">
        <ele>2218</ele>
        <time>2015-05-30T09:52:34Z</time>
      </trkpt>
      <trkpt lat="42.83671" lon="0.13906">
        <ele>2217</ele>
        <time>2015-05-30T09:52:55Z</time>
      </trkpt>
      <trkpt lat="42.83669" lon="0.13905">
        <ele>2218</ele>
        <time>2015-05-30T09:53:06Z</time>
      </trkpt>
      <trkpt lat="42.83669" lon="0.13903">
        <ele>2217</ele>
        <time>2015-05-30T09:53:25Z</time>
      </trkpt>
      <trkpt lat="42.83666" lon="0.13904">
        <ele>2216</ele>
        <time>2015-05-30T09:53:53Z</time>
      </trkpt>
      <trkpt lat="42.83667" lon="0.13908">
        <ele>2217</ele>
        <time>2015-05-30T09:54:15Z</time>
      </trkpt>
      <trkpt lat="42.83669" lon="0.13906">
        <ele>2216</ele>
        <time>2015-05-30T09:54:35Z</time>
      </trkpt>
      <trkpt lat="42.83669" lon="0.13906">
        <ele>2217</ele>
        <time>2015-05-30T09:54:49Z</time>
      </trkpt>
      <trkpt lat="42.8367" lon="0.13906">
        <ele>2216</ele>
        <time>2015-05-30T09:55:09Z</time>
      </trkpt>
      <trkpt lat="42.83669" lon="0.13907">
        <ele>2217</ele>
        <time>2015-05-30T09:55:24Z</time>
      </trkpt>
      <trkpt lat="42.83669" lon="0.13904">
        <ele>2216</ele>
        <time>2015-05-30T09:55:48Z</time>
      </trkpt>
      <trkpt lat="42.83669" lon="0.13905">
        <ele>2216</ele>
        <time>2015-05-30T09:56:01Z</time>
      </trkpt>
      <trkpt lat="42.83671" lon="0.13906">
        <ele>2215</ele>
        <time>2015-05-30T09:56:24Z</time>
      </trkpt>
      <trkpt lat="42.83672" lon="0.13904">
        <ele>2215</ele>
        <time>2015-05-30T09:56:36Z</time>
      </trkpt>
      <trkpt lat="42.83669" lon="0.13908">
        <ele>2215</ele>
        <time>2015-05-30T09:56:58Z</time>
      </trkpt>
      <trkpt lat="42.8367" lon="0.13907">
        <ele>2215</ele>
        <time>2015-05-30T09:57:18Z</time>
      </trkpt>
      <trkpt lat="42.83672" lon="0.13912">
        <ele>2215</ele>
        <time>2015-05-30T09:57:37Z</time>
      </trkpt>
      <trkpt lat="42.83671" lon="0.13914">
        <ele>2215</ele>
        <time>2015-05-30T09:57:54Z</time>
      </trkpt>
      <trkpt lat="42.83669" lon="0.13911">
        <ele>2214</ele>
        <time>2015-05-30T09:58:16Z</time>
      </trkpt>
      <trkpt lat="42.83668" lon="0.13906">
        <ele>2214</ele>
        <time>2015-05-30T09:58:32Z</time>
      </trkpt>
      <trkpt lat="42.8367" lon="0.13907">
        <ele>2214</ele>
        <time>2015-05-30T09:58:51Z</time>
      </trkpt>
      <trkpt lat="42.83668" lon="0.13907">
        <ele>2214</ele>
        <time>2015-05-30T09:59:18Z</time>
      </trkpt>
      <trkpt lat="42.83667" lon="0.13904">
        <ele>2213</ele>
        <time>2015-05-30T09:59:34Z</time>
      </trkpt>
      <trkpt lat="42.83669" lon="0.13907">
        <ele>2213</ele>
        <time>2015-05-30T09:59:51Z</time>
      </trkpt>
      <trkpt lat="42.83671" lon="0.13906">
        <ele>2213</ele>
        <time>2015-05-30T10:00:13Z</time>
      </trkpt>
      <trkpt lat="42.83675" lon="0.13907">
        <ele>2212</ele>
        <time>2015-05-30T10:00:32Z</time>
      </trkpt>
      <trkpt lat="42.83677" lon="0.13919">
        <ele>2209</ele>
        <time>2015-05-30T10:00:47Z</time>
      </trkpt>
      <trkpt lat="42.83683" lon="0.13937">
        <ele>2206</ele>
        <time>2015-05-30T10:01:03Z</time>
      </trkpt>
      <trkpt lat="42.83687" lon="0.13943">
        <ele>2204</ele>
        <time>2015-05-30T10:01:14Z</time>
      </trkpt>
      <trkpt lat="42.83693" lon="0.13947">
        <ele>2203</ele>
        <time>2015-05-30T10:01:27Z</time>
      </trkpt>
      <trkpt lat="42.83699" lon="0.13952">
        <ele>2200</ele>
        <time>2015-05-30T10:01:40Z</time>
      </trkpt>
      <trkpt lat="42.83702" lon="0.13953">
        <ele>2199</ele>
        <time>2015-05-30T10:01:53Z</time>
      </trkpt>
      <trkpt lat="42.83711" lon="0.13951">
        <ele>2196</ele>
        <time>2015-05-30T10:02:05Z</time>
      </trkpt>
      <trkpt lat="42.83717" lon="0.13955">
        <ele>2194</ele>
        <time>2015-05-30T10:02:13Z</time>
      </trkpt>
      <trkpt lat="42.83724" lon="0.13957">
        <ele>2192</ele>
        <time>2015-05-30T10:02:21Z</time>
      </trkpt>
      <trkpt lat="42.8373" lon="0.13961">
        <ele>2190</ele>
        <time>2015-05-30T10:02:33Z</time>
      </trkpt>
      <trkpt lat="42.83733" lon="0.13957">
        <ele>2188</ele>
        <time>2015-05-30T10:02:47Z</time>
      </trkpt>
      <trkpt lat="42.8374" lon="0.13957">
        <ele>2186</ele>
        <time>2015-05-30T10:02:57Z</time>
      </trkpt>
      <trkpt lat="42.83743" lon="0.1396">
        <ele>2185</ele>
        <time>2015-05-30T10:03:08Z</time>
      </trkpt>
      <trkpt lat="42.83747" lon="0.13959">
        <ele>2184</ele>
        <time>2015-05-30T10:03:18Z</time>
      </trkpt>
      <trkpt lat="42.83753" lon="0.13964">
        <ele>2182</ele>
        <time>2015-05-30T10:03:31Z</time>
      </trkpt>
      <trkpt lat="42.83754" lon="0.13969">
        <ele>2181</ele>
        <time>2015-05-30T10:03:41Z</time>
      </trkpt>
      <trkpt lat="42.83754" lon="0.1397">
        <ele>2180</ele>
        <time>2015-05-30T10:03:42Z</time>
      </trkpt>
      <trkpt lat="42.83755" lon="0.13973">
        <ele>2180</ele>
        <time>2015-05-30T10:03:44Z</time>
      </trkpt>
      <trkpt lat="42.83758" lon="0.13976">
        <ele>2179</ele>
        <time>2015-05-30T10:03:48Z</time>
      </trkpt>
      <trkpt lat="42.83763" lon="0.13977">
        <ele>2179</ele>
        <time>2015-05-30T10:03:53Z</time>
      </trkpt>
      <trkpt lat="42.83773" lon="0.1399">
        <ele>2177</ele>
        <time>2015-05-30T10:04:07Z</time>
      </trkpt>
      <trkpt lat="42.83777" lon="0.13997">
        <ele>2175</ele>
        <time>2015-05-30T10:04:21Z</time>
      </trkpt>
      <trkpt lat="42.83784" lon="0.13997">
        <ele>2173</ele>
        <time>2015-05-30T10:04:34Z</time>
      </trkpt>
      <trkpt lat="42.83786" lon="0.13997">
        <ele>2172</ele>
        <time>2015-05-30T10:04:38Z</time>
      </trkpt>
      <trkpt lat="42.83789" lon="0.14002">
        <ele>2171</ele>
        <time>2015-05-30T10:04:44Z</time>
      </trkpt>
      <trkpt lat="42.83791" lon="0.14003">
        <ele>2170</ele>
        <time>2015-05-30T10:04:46Z</time>
      </trkpt>
      <trkpt lat="42.83797" lon="0.14008">
        <ele>2169</ele>
        <time>2015-05-30T10:04:52Z</time>
      </trkpt>
      <trkpt lat="42.83799" lon="0.14015">
        <ele>2170</ele>
        <time>2015-05-30T10:05:07Z</time>
      </trkpt>
      <trkpt lat="42.83801" lon="0.14017">
        <ele>2170</ele>
        <time>2015-05-30T10:05:20Z</time>
      </trkpt>
      <trkpt lat="42.838" lon="0.14016">
        <ele>2170</ele>
        <time>2015-05-30T10:05:43Z</time>
      </trkpt>
      <trkpt lat="42.83798" lon="0.14016">
        <ele>2170</ele>
        <time>2015-05-30T10:05:59Z</time>
      </trkpt>
      <trkpt lat="42.83793" lon="0.14018">
        <ele>2170</ele>
        <time>2015-05-30T10:06:26Z</time>
      </trkpt>
      <trkpt lat="42.83797" lon="0.14021">
        <ele>2169</ele>
        <time>2015-05-30T10:06:47Z</time>
      </trkpt>
      <trkpt lat="42.838" lon="0.14024">
        <ele>2169</ele>
        <time>2015-05-30T10:07:03Z</time>
      </trkpt>
      <trkpt lat="42.83806" lon="0.14035">
        <ele>2169</ele>
        <time>2015-05-30T10:07:12Z</time>
      </trkpt>
      <trkpt lat="42.83814" lon="0.14055">
        <ele>2169</ele>
        <time>2015-05-30T10:07:27Z</time>
      </trkpt>
      <trkpt lat="42.83822" lon="0.14073">
        <ele>2168</ele>
        <time>2015-05-30T10:07:41Z</time>
      </trkpt>
      <trkpt lat="42.83826" lon="0.14084">
        <ele>2169</ele>
        <time>2015-05-30T10:07:54Z</time>
      </trkpt>
      <trkpt lat="42.8383" lon="0.14091">
        <ele>2169</ele>
        <time>2015-05-30T10:08:00Z</time>
      </trkpt>
      <trkpt lat="42.83845" lon="0.14102">
        <ele>2168</ele>
        <time>2015-05-30T10:08:16Z</time>
      </trkpt>
      <trkpt lat="42.83858" lon="0.14115">
        <ele>2168</ele>
        <time>2015-05-30T10:08:30Z</time>
      </trkpt>
      <trkpt lat="42.83868" lon="0.14128">
        <ele>2167</ele>
        <time>2015-05-30T10:08:43Z</time>
      </trkpt>
      <trkpt lat="42.8387" lon="0.1413">
        <ele>2167</ele>
        <time>2015-05-30T10:08:45Z</time>
      </trkpt>
      <trkpt lat="42.83872" lon="0.14136">
        <ele>2167</ele>
        <time>2015-05-30T10:08:49Z</time>
      </trkpt>
      <trkpt lat="42.83875" lon="0.14144">
        <ele>2168</ele>
        <time>2015-05-30T10:08:54Z</time>
      </trkpt>
      <trkpt lat="42.83879" lon="0.14153">
        <ele>2167</ele>
        <time>2015-05-30T10:09:00Z</time>
      </trkpt>
      <trkpt lat="42.8388" lon="0.14176">
        <ele>2167</ele>
        <time>2015-05-30T10:09:12Z</time>
      </trkpt>
      <trkpt lat="42.83878" lon="0.14195">
        <ele>2167</ele>
        <time>2015-05-30T10:09:23Z</time>
      </trkpt>
      <trkpt lat="42.83878" lon="0.14199">
        <ele>2168</ele>
        <time>2015-05-30T10:09:26Z</time>
      </trkpt>
      <trkpt lat="42.83879" lon="0.14222">
        <ele>2168</ele>
        <time>2015-05-30T10:09:42Z</time>
      </trkpt>
      <trkpt lat="42.83878" lon="0.14235">
        <ele>2168</ele>
        <time>2015-05-30T10:09:49Z</time>
      </trkpt>
      <trkpt lat="42.83879" lon="0.1424">
        <ele>2168</ele>
        <time>2015-05-30T10:10:01Z</time>
      </trkpt>
      <trkpt lat="42.83879" lon="0.14255">
        <ele>2168</ele>
        <time>2015-05-30T10:10:16Z</time>
      </trkpt>
      <trkpt lat="42.83879" lon="0.14272">
        <ele>2168</ele>
        <time>2015-05-30T10:10:32Z</time>
      </trkpt>
      <trkpt lat="42.83882" lon="0.14288">
        <ele>2167</ele>
        <time>2015-05-30T10:10:45Z</time>
      </trkpt>
      <trkpt lat="42.83891" lon="0.14306">
        <ele>2167</ele>
        <time>2015-05-30T10:11:03Z</time>
      </trkpt>
      <trkpt lat="42.83895" lon="0.14315">
        <ele>2166</ele>
        <time>2015-05-30T10:11:18Z</time>
      </trkpt>
      <trkpt lat="42.83897" lon="0.14318">
        <ele>2167</ele>
        <time>2015-05-30T10:11:21Z</time>
      </trkpt>
      <trkpt lat="42.83899" lon="0.14321">
        <ele>2166</ele>
        <time>2015-05-30T10:11:24Z</time>
      </trkpt>
      <trkpt lat="42.8391" lon="0.14341">
        <ele>2166</ele>
        <time>2015-05-30T10:11:41Z</time>
      </trkpt>
      <trkpt lat="42.83916" lon="0.14349">
        <ele>2166</ele>
        <time>2015-05-30T10:11:56Z</time>
      </trkpt>
      <trkpt lat="42.83926" lon="0.14363">
        <ele>2167</ele>
        <time>2015-05-30T10:12:09Z</time>
      </trkpt>
      <trkpt lat="42.83935" lon="0.14353">
        <ele>2167</ele>
        <time>2015-05-30T10:12:25Z</time>
      </trkpt>
      <trkpt lat="42.83942" lon="0.14343">
        <ele>2167</ele>
        <time>2015-05-30T10:12:39Z</time>
      </trkpt>
      <trkpt lat="42.83944" lon="0.14343">
        <ele>2167</ele>
        <time>2015-05-30T10:12:46Z</time>
      </trkpt>
      <trkpt lat="42.83952" lon="0.14333">
        <ele>2167</ele>
        <time>2015-05-30T10:12:57Z</time>
      </trkpt>
      <trkpt lat="42.83964" lon="0.14329">
        <ele>2167</ele>
        <time>2015-05-30T10:13:10Z</time>
      </trkpt>
      <trkpt lat="42.83979" lon="0.14326">
        <ele>2168</ele>
        <time>2015-05-30T10:13:27Z</time>
      </trkpt>
      <trkpt lat="42.83992" lon="0.14322">
        <ele>2170</ele>
        <time>2015-05-30T10:13:43Z</time>
      </trkpt>
      <trkpt lat="42.8401" lon="0.14316">
        <ele>2169</ele>
        <time>2015-05-30T10:14:02Z</time>
      </trkpt>
      <trkpt lat="42.84024" lon="0.14314">
        <ele>2170</ele>
        <time>2015-05-30T10:14:18Z</time>
      </trkpt>
      <trkpt lat="42.84038" lon="0.14308">
        <ele>2169</ele>
        <time>2015-05-30T10:14:33Z</time>
      </trkpt>
      <trkpt lat="42.84049" lon="0.14315">
        <ele>2171</ele>
        <time>2015-05-30T10:14:48Z</time>
      </trkpt>
      <trkpt lat="42.8405" lon="0.14319">
        <ele>2172</ele>
        <time>2015-05-30T10:14:52Z</time>
      </trkpt>
      <trkpt lat="42.84054" lon="0.14327">
        <ele>2172</ele>
        <time>2015-05-30T10:14:57Z</time>
      </trkpt>
      <trkpt lat="42.84054" lon="0.14345">
        <ele>2173</ele>
        <time>2015-05-30T10:15:09Z</time>
      </trkpt>
      <trkpt lat="42.84053" lon="0.14348">
        <ele>2173</ele>
        <time>2015-05-30T10:15:11Z</time>
      </trkpt>
      <trkpt lat="42.84047" lon="0.14361">
        <ele>2174</ele>
        <time>2015-05-30T10:15:25Z</time>
      </trkpt>
      <trkpt lat="42.84051" lon="0.14368">
        <ele>2174</ele>
        <time>2015-05-30T10:15:31Z</time>
      </trkpt>
      <trkpt lat="42.84055" lon="0.14392">
        <ele>2173</ele>
        <time>2015-05-30T10:15:45Z</time>
      </trkpt>
      <trkpt lat="42.84053" lon="0.14399">
        <ele>2173</ele>
        <time>2015-05-30T10:15:50Z</time>
      </trkpt>
      <trkpt lat="42.84047" lon="0.14417">
        <ele>2173</ele>
        <time>2015-05-30T10:16:02Z</time>
      </trkpt>
      <trkpt lat="42.84032" lon="0.14435">
        <ele>2175</ele>
        <time>2015-05-30T10:16:18Z</time>
      </trkpt>
      <trkpt lat="42.84022" lon="0.14446">
        <ele>2175</ele>
        <time>2015-05-30T10:16:30Z</time>
      </trkpt>
      <trkpt lat="42.8402" lon="0.14452">
        <ele>2175</ele>
        <time>2015-05-30T10:16:45Z</time>
      </trkpt>
      <trkpt lat="42.84021" lon="0.14451">
        <ele>2175</ele>
        <time>2015-05-30T10:16:59Z</time>
      </trkpt>
      <trkpt lat="42.84023" lon="0.14449">
        <ele>2176</ele>
        <time>2015-05-30T10:17:21Z</time>
      </trkpt>
      <trkpt lat="42.84022" lon="0.14458">
        <ele>2175</ele>
        <time>2015-05-30T10:17:41Z</time>
      </trkpt>
      <trkpt lat="42.84022" lon="0.14453">
        <ele>2175</ele>
        <time>2015-05-30T10:18:05Z</time>
      </trkpt>
      <trkpt lat="42.84022" lon="0.14453">
        <ele>2175</ele>
        <time>2015-05-30T10:18:19Z</time>
      </trkpt>
      <trkpt lat="42.8402" lon="0.14452">
        <ele>2175</ele>
        <time>2015-05-30T10:18:33Z</time>
      </trkpt>
      <trkpt lat="42.84021" lon="0.14452">
        <ele>2174</ele>
        <time>2015-05-30T10:18:52Z</time>
      </trkpt>
      <trkpt lat="42.84024" lon="0.14453">
        <ele>2174</ele>
        <time>2015-05-30T10:19:11Z</time>
      </trkpt>
      <trkpt lat="42.84018" lon="0.14452">
        <ele>2174</ele>
        <time>2015-05-30T10:19:31Z</time>
      </trkpt>
    </trkseg>
  </trk>
</gpx>